[[{"header":{"parameterUnit":"m.s-1","parameterCategory":1,"la1":31.0,"la2":29.5877,"lo1":-88.7671,"lo2":-86.6584,"dy":0.0162,"dx":0.0185,"nx":115,"ny":88,"refTime":"2026-04-20T12:00:00:Z","depth":0,"parameterNumber":2,"parameterNumberName":"U-component_of_WINDS"},"data":[0.0,0.0,0.0,0.0,0.0,0.0,0.0,0.0,0.0,0.0,0.0,0.0,0.0,0.0,0.0,0.0,0.0,0.0,0.0,0.0,0.0,0.0,0.0,0.0,0.0,0.0,0.0,0.0,0.0,0.0,0.0,0.0,0.0,0.0,0.0,0.0,0.0,0.0,0.0,0.0,0.0,0.0,0.0,0.0,0.0,0.0,0.0,0.0,0.0,0.0,0.0,0.0,0.0,0.0,0.0,0.0,0.0,0.0,0.0,0.0,0.0,0.0,0.0,0.0,0.0,0.0,0.0,0.0,0.0,0.0,0.0,0.0,0.0,0.0,0.0,0.0,0.0,0.0,0.0,0.0,0.0,0.0,0.0,0.0,0.0,0.0,0.0,0.0,0.0,0.0,0.0,0.0,0.0,0.0,0.0,0.0,0.0,0.0,0.0,0.0,0.0,0.0,0.0,0.0,0.0,0.0,0.0,0.0,0.0,0.0,0.0,0.0,0.0,0.0,0.0,0.0,0.0,0.0,0.0,0.0,0.0,0.0,0.0,0.0,0.0,0.0,0.0,0.0,0.0,0.0,0.0,0.0,0.0,0.0,0.0,0.0,0.0,0.0,0.0,0.0,0.0,0.0,0.0,0.0,0.0,0.0,0.0,0.0,0.0,0.0,0.0,0.0,0.0,0.0,0.0,0.0,0.0,0.0,0.0,0.0,0.0,0.0,0.0,0.0,0.0,0.0,0.0,0.0,0.0,0.0,0.0,0.0,0.0,0.0,0.0,0.0,0.0,0.0,0.0,0.0,0.0,0.0,0.0,0.0,0.0,0.0,0.0,0.0,0.0,0.0,0.0,0.0,0.0,0.0,0.0,0.0,0.0,0.0,0.0,0.0,0.0,0.0,0.0,0.0,0.0,0.0,0.0,0.0,0.0,0.0,0.0,0.0,0.0,0.0,0.0,0.0,0.0,0.0,0.0,0.0,0.0,0.0,0.0,0.0,0.0,0.0,0.0,0.0,0.0,0.0,0.0,0.0,0.0,0.0,0.0,0.0,0.0,0.0,0.0,0.0,0.0,0.0,0.0,0.0,0.0,0.0,0.0,0.0,0.0,0.0,0.0,0.0,0.0,0.0,0.0,0.0,0.0,0.0,0.0,0.0,0.0,0.0,0.0,0.0,0.0,0.0,0.0,0.0,0.0,0.0,0.0,0.0,0.0,0.0,0.0,0.0,0.0,0.0,0.0,0.0,0.0,0.0,0.0,0.0,0.0,0.0,0.0,0.0,0.0,0.0,0.0,0.0,0.0,0.0,0.0,0.0,0.0,0.0,0.0,0.0,0.0,0.0,0.0,0.0,0.0,0.0,0.0,0.0,0.0,0.0,0.0,0.0,0.0,0.0,0.0,0.0,0.0,0.0,0.0,0.0,0.0,0.0,0.0,0.0,0.0,0.0,0.0,0.0,0.0,0.0,0.0,0.0,0.0,0.0,0.0,0.0,0.0,0.0,0.0,0.0,0.0,0.0,0.0,0.0,0.0,0.0,0.0,0.0,0.0,0.0,0.0,0.0,0.0,0.0,0.0,0.0,0.0,0.0,0.0,0.0,0.0,0.0,0.0,0.0,0.0,0.0,0.0,0.0,0.0,0.0,0.0,0.0,0.0,0.0,0.0,0.0,0.0,0.0,0.0,0.0,0.0,0.0,0.0,0.0,0.0,0.0,0.0,0.0,0.0,0.0,0.0,0.0,0.0,0.0,0.0,0.0,0.0,0.0,0.0,0.0,0.0,0.0,0.0,0.0,0.0,0.0,0.0,0.0,0.0,0.0,0.0,0.0,0.0,0.0,0.0,0.0,0.0,0.0,0.0,0.0,0.0,0.0,0.0,0.0,0.0,0.0,0.0,0.0,0.0,0.0,0.0,0.0,0.0,0.0,0.0,0.0,0.0,0.0,0.0,0.0,0.0,0.0,0.0,0.0,0.0,0.0,0.0,0.0,0.0,0.0,0.0,0.0,0.0,0.0,0.0,0.0,0.0,0.0,0.0,0.0,0.0,0.0,0.0,0.0,0.0,0.0,0.0,0.0,0.0,0.0,0.0,0.0,0.0,0.0,0.0,0.0,0.0,0.0,0.0,0.0,0.0,0.0,0.0,0.0,0.0,0.0,0.0,0.0,0.0,0.0,0.0,0.0,0.0,0.0,0.0,0.0,0.0,0.0,0.0,0.0,0.0,0.0,0.0,0.0,0.0,0.0,0.0,0.0,0.0,0.0,0.0,0.0,0.0,0.0,0.0,0.0,0.0,0.0,0.0,0.0,0.0,0.0,0.0,0.0,0.0,0.0,0.0,0.0,0.0,0.0,0.0,0.0,0.0,0.0,0.0,0.0,0.0,0.0,0.0,0.0,0.0,0.0,0.0,0.0,0.0,0.0,0.0,0.0,0.0,0.0,0.0,0.0,0.0,0.0,0.0,0.0,0.0,0.0,0.0,0.0,0.0,0.0,0.0,0.0,0.0,0.0,0.0,0.0,0.0,0.0,0.0,0.0,0.0,0.0,0.0,0.0,0.0,0.0,0.0,0.0,0.0,0.0,0.0,0.0,0.0,0.0,0.0,0.0,0.0,0.0,0.0,0.0,0.0,0.0,0.0,0.0,0.0,0.0,0.0,0.0,0.0,0.0,0.0,0.0,0.0,0.0,0.0,0.0,0.0,0.0,0.0,0.0,0.0,0.0,0.0,0.0,0.0,0.0,0.0,0.0,0.0,0.0,0.0,0.0,0.0,0.0,0.0,0.0,0.0,0.0,0.0,0.0,0.0,0.0,0.0,0.0,0.0,0.0,0.0,0.0,0.0,0.0,0.0,0.0,0.0,0.0,0.0,0.0,0.0,0.0,0.0,0.0,0.0,0.0,0.0,0.0,0.0,0.0,0.0,0.0,0.0,0.0,0.0,0.0,0.0,0.0,0.0,0.0,0.0,0.0,0.0,0.0,0.0,0.0,0.0,0.0,0.0,0.0,0.0,0.0,0.0,0.0,0.0,0.0,0.0,0.0,0.0,0.0,0.0,0.0,0.0,0.0,0.0,0.0,0.0,0.0,0.0,0.0,0.0,0.0,0.0,0.0,0.0,0.0,0.0,0.0,0.0,0.0,0.0,0.0,0.0,0.0,0.0,0.0,0.0,0.0,0.0,0.0,0.0,0.0,0.0,0.0,0.0,0.0,0.0,0.0,0.0,0.0,0.0,0.0,0.0,0.0,0.0,0.0,0.0,0.0,0.0,0.0,0.0,0.0,0.0,0.0,0.0,0.0,0.0,0.0,0.0,0.0,0.0,0.0,0.0,0.0,0.0,0.0,0.0,0.0,0.0,0.0,0.0,0.0,0.0,0.0,0.0,0.0,0.0,0.0,0.0,0.0,0.0,0.0,0.0,0.0,0.0,0.0,0.0,0.0,0.0,0.0,0.0,0.0,0.0,0.0,0.0,0.0,0.0,0.0,0.0,0.0,0.0,0.0,0.0,0.0,0.0,0.0,0.0,0.0,0.0,0.0,0.0,0.0,0.0,0.0,0.0,0.0,0.0,0.0,0.0,0.0,0.0,0.0,0.0,0.0,0.0,0.0,0.0,0.0,0.0,0.0,0.0,0.0,0.0,0.0,0.0,0.0,0.0,0.0,0.0,0.0,0.0,0.0,0.0,0.0,0.0,0.0,0.0,0.0,0.0,0.0,0.0,0.0,0.0,0.0,0.0,0.0,0.0,0.0,0.0,0.0,0.0,0.0,0.0,0.0,0.0,0.0,0.0,0.0,0.0,0.0,0.0,0.0,0.0,0.0,0.0,0.0,0.0,0.0,0.0,0.0,0.0,0.0,0.0,0.0,0.0,0.0,0.0,0.0,0.0,0.0,0.0,0.0,0.0,0.0,0.0,0.0,0.0,0.0,0.0,0.0,0.0,0.0,0.0,0.0,0.0,0.0,0.0,0.0,0.0,0.0,0.0,0.0,0.0,0.0,0.0,0.0,0.0,0.0,0.0,0.0,0.0,0.0,0.0,0.0,0.0,0.0,0.0,0.0,0.0,0.0,0.0,0.0,0.0,0.0,0.0,0.0,0.0,0.0,0.0,0.0,0.0,0.0,0.0,0.0,0.0,0.0,0.0,0.0,0.0,0.0,0.0,0.0,0.0,0.0,0.0,0.0,0.0,0.0,0.0,0.0,0.0,0.0,0.0,0.0,0.0,0.0,0.0,0.0,0.0,0.0,0.0,0.0,0.0,0.0,0.0,0.0,0.0,0.0,-0.6546,0.0,0.0,0.0,0.0,0.0,0.0,0.0,0.0,0.0,0.0,0.0,0.0,0.0,0.0,0.0,0.0,0.0,0.0,0.0,0.0,0.0,0.0,0.0,0.0,0.0,0.0,0.0,0.0,0.0,0.0,0.0,0.0,0.0,0.0,0.0,0.0,0.0,0.0,0.0,0.0,0.0,0.0,0.0,0.0,0.0,0.0,0.0,0.0,0.0,0.0,0.0,0.0,0.0,0.0,0.0,0.0,0.0,0.0,0.0,0.0,0.0,0.0,0.0,0.0,0.0,0.0,0.0,0.0,0.0,0.0,0.0,0.0,0.0,0.0,0.0,0.0,0.0,0.0,0.0,0.0,0.0,0.0,0.0,0.0,0.0,0.0,0.0,0.0,0.0,0.0,0.0,0.0,0.0,0.0,0.0,0.0,0.0,0.0,0.0,0.0,0.0,0.0,0.0,0.0,0.0,0.0,0.0,0.0,0.0,0.0,-0.6993,-0.6993,-0.674,-0.6667,-0.6814,0.0,0.0,0.0,0.0,0.0,0.0,0.0,0.0,0.0,0.0,0.0,0.0,0.0,0.0,0.0,0.0,0.0,0.0,0.0,0.0,0.0,0.0,0.0,0.0,0.0,0.0,0.0,0.0,0.0,0.0,0.0,0.0,0.0,0.0,0.0,0.0,0.0,0.0,0.0,0.0,0.0,0.0,0.0,0.0,0.0,0.0,0.0,0.0,0.0,0.0,0.0,0.0,0.0,0.0,0.0,0.0,0.0,0.0,0.0,0.0,0.0,0.0,0.0,0.0,0.0,0.0,0.0,0.0,0.0,0.0,0.0,0.0,0.0,0.0,0.0,0.0,0.0,0.0,0.0,0.0,0.0,0.0,0.0,0.0,0.0,0.0,0.0,0.0,0.0,0.0,0.0,0.0,0.0,0.0,0.0,0.0,0.0,0.0,0.0,0.0,0.0,0.0,0.0,0.0,0.0,0.0,0.0,0.0,0.0,0.0,0.0,0.0,-0.6941,-0.686,-0.6986,0.0,0.0,0.0,0.0,0.0,0.0,0.0,0.0,0.0,0.0,0.0,0.0,0.0,0.0,0.0,0.0,0.0,0.0,0.0,0.0,0.0,0.0,0.0,0.0,0.0,0.0,0.0,0.0,0.0,0.0,0.0,0.0,0.0,0.0,0.0,0.0,0.0,0.0,0.0,0.0,0.0,0.0,0.0,0.0,0.0,0.0,0.0,0.0,0.0,0.0,0.0,0.0,0.0,0.0,0.0,0.0,0.0,0.0,0.0,0.0,0.0,0.0,0.0,0.0,0.0,0.0,0.0,0.0,0.0,0.0,0.0,0.0,0.0,0.0,0.0,0.0,0.0,0.0,0.0,0.0,0.0,0.0,0.0,0.0,0.0,0.0,0.0,0.0,0.0,0.0,0.0,0.0,0.0,0.0,0.0,0.0,0.0,0.0,0.0,0.0,0.0,0.0,0.0,0.0,0.0,0.0,0.0,0.0,0.0,0.0,-0.7259,-0.7806,-0.7542,0.0,-0.7026,0.0,0.0,0.0,0.0,0.0,0.0,0.0,0.0,0.0,0.0,0.0,0.0,0.0,0.0,0.0,0.0,0.0,0.0,0.0,0.0,0.0,0.0,0.0,0.0,0.0,0.0,0.0,0.0,0.0,0.0,0.0,0.0,0.0,0.0,0.0,0.0,0.0,0.0,0.0,0.0,0.0,0.0,0.0,0.0,0.0,0.0,0.0,0.0,0.0,0.0,0.0,0.0,0.0,0.0,0.0,0.0,0.0,0.0,0.0,0.0,0.0,0.0,0.0,0.0,0.0,0.0,0.0,0.0,0.0,0.0,0.0,0.0,0.0,0.0,0.0,0.0,0.0,0.0,0.0,0.0,0.0,0.0,0.0,0.0,0.0,0.0,0.0,0.0,0.0,0.0,0.0,0.0,0.0,0.0,0.0,0.0,0.0,0.0,0.0,0.0,0.0,0.0,0.0,0.0,0.0,0.0,0.0,0.0,0.0,0.0,0.0,-0.7899,-0.7786,-0.7515,0.0,0.0,0.0,0.0,0.0,0.0,0.0,0.0,0.0,0.0,0.0,0.0,0.0,0.0,0.0,0.0,0.0,0.0,0.0,0.0,0.0,0.0,0.0,0.0,0.0,0.0,0.0,0.0,0.0,0.0,0.0,0.0,0.0,0.0,0.0,0.0,0.0,0.0,0.0,0.0,0.0,0.0,0.0,0.0,0.0,0.0,0.0,0.0,0.0,0.0,0.0,0.0,0.0,0.0,0.0,0.0,0.0,0.0,0.0,0.0,0.0,0.0,0.0,0.0,0.0,0.0,0.0,0.0,0.0,0.0,0.0,0.0,0.0,0.0,0.0,0.0,0.0,0.0,0.0,0.0,0.0,0.0,0.0,0.0,0.0,0.0,0.0,0.0,0.0,0.0,0.0,0.0,0.0,0.0,0.0,0.0,0.0,0.0,0.0,0.0,0.0,0.0,0.0,0.0,0.0,0.0,0.0,0.0,0.0,0.0,-0.7464,0.0,-0.7999,-0.7945,-0.7586,-0.6906,0.0,0.0,0.0,0.0,0.0,0.0,0.0,0.0,0.0,0.0,0.0,0.0,0.0,0.0,0.0,0.0,0.0,0.0,0.0,0.0,0.0,0.0,0.0,0.0,0.0,0.0,0.0,0.0,0.0,0.0,0.0,0.0,0.0,0.0,0.0,0.0,0.0,0.0,0.0,0.0,0.0,0.0,0.0,0.0,0.0,0.0,0.0,0.0,0.0,0.0,0.0,0.0,0.0,0.0,0.0,0.0,0.0,0.0,0.0,0.0,0.0,0.0,0.0,0.0,0.0,0.0,0.0,0.0,0.0,0.0,0.0,0.0,0.0,0.0,0.0,0.0,0.0,0.0,0.0,0.0,0.0,0.0,0.0,0.0,0.0,0.0,0.0,0.0,0.0,0.0,0.0,0.0,0.0,0.0,0.0,0.0,0.0,0.0,0.0,0.0,0.0,0.0,0.0,0.0,0.0,0.0,0.0,0.0,0.0,-0.7772,-0.7802,-0.8355,-0.8052,-0.7493,0.0,0.0,0.0,0.0,0.0,0.0,0.0,0.0,0.0,0.0,0.0,0.0,0.0,0.0,0.0,0.0,0.0,0.0,0.0,0.0,0.0,0.0,0.0,0.0,0.0,0.0,0.0,0.0,0.0,0.0,0.0,0.0,0.0,0.0,0.0,0.0,0.0,0.0,0.0,0.0,0.0,0.0,0.0,0.0,0.0,0.0,0.0,0.0,0.0,0.0,0.0,0.0,0.0,0.0,0.0,0.0,0.0,0.0,0.0,0.0,0.0,0.0,0.0,0.0,0.0,0.0,0.0,0.0,0.0,0.0,0.0,0.0,0.0,0.0,0.0,0.0,0.0,0.0,0.0,0.0,0.0,0.0,0.0,0.0,0.0,0.0,0.0,0.0,0.0,0.0,0.0,0.0,0.0,0.0,0.0,0.0,0.0,0.0,0.0,0.0,0.0,0.0,0.0,0.0,0.0,0.0,0.0,0.0,0.0,-0.7216,-0.7404,-0.7873,-0.8584,-0.7996,-0.7395,0.0,0.0,0.0,0.0,0.0,0.0,0.0,0.0,0.0,0.0,0.0,0.0,0.0,0.0,0.0,0.0,0.0,0.0,0.0,0.0,0.0,0.0,0.0,0.0,0.0,0.0,0.0,0.0,0.0,0.0,0.0,0.0,0.0,0.0,0.0,0.0,0.0,0.0,0.0,0.0,0.0,0.0,0.0,0.0,0.0,0.0,0.0,0.0,0.0,0.0,0.0,0.0,0.0,0.0,0.0,0.0,0.0,0.0,0.0,0.0,0.0,0.0,0.0,0.0,0.0,0.0,0.0,0.0,0.0,0.0,0.0,0.0,0.0,0.0,0.0,0.0,0.0,0.0,0.0,0.0,0.0,0.0,0.0,0.0,0.0,0.0,0.0,0.0,0.0,0.0,0.0,0.0,0.0,0.0,0.0,0.0,0.0,0.0,0.0,0.0,0.0,0.0,0.0,0.0,0.0,0.0,0.0,0.0,0.0,-0.7007,0.0,-0.829,0.0,-0.796,-0.7278,0.0,0.0,0.0,0.0,0.0,0.0,0.0,0.0,0.0,0.0,0.0,0.0,0.0,0.0,0.0,0.0,0.0,0.0,0.0,0.0,0.0,0.0,0.0,0.0,0.0,0.0,0.0,0.0,0.0,0.0,0.0,0.0,0.0,0.0,0.0,0.0,0.0,0.0,0.0,0.0,0.0,0.0,0.0,0.0,0.0,0.0,0.0,0.0,0.0,0.0,0.0,0.0,0.0,0.0,0.0,0.0,0.0,0.0,0.0,0.0,0.0,0.0,0.0,0.0,0.0,0.0,0.0,0.0,0.0,0.0,0.0,0.0,0.0,0.0,0.0,0.0,0.0,0.0,0.0,0.0,0.0,0.0,0.0,0.0,0.0,0.0,0.0,0.0,0.0,0.0,0.0,0.0,0.0,0.0,0.0,0.0,0.0,0.0,0.0,0.0,0.0,0.0,0.0,0.0,0.0,0.0,0.0,0.0,-0.6794,-0.7846,-0.8691,-0.8978,-0.8804,-0.7953,-0.7082,0.0,0.0,0.0,0.0,0.0,0.0,0.0,0.0,0.0,0.0,0.0,0.0,0.0,0.0,0.0,0.0,0.0,0.0,0.0,0.0,0.0,0.0,0.0,0.0,0.0,0.0,0.0,0.0,0.0,0.0,0.0,0.0,0.0,0.0,0.0,0.0,0.0,0.0,0.0,0.0,0.0,0.0,0.0,0.0,0.0,0.0,0.0,0.0,0.0,0.0,0.0,0.0,0.0,0.0,0.0,0.0,0.0,0.0,0.0,0.0,0.0,0.0,0.0,0.0,0.0,0.0,0.0,0.0,0.0,0.0,0.0,0.0,0.0,0.0,0.0,0.0,0.0,0.0,0.0,0.0,0.0,0.0,0.0,0.0,0.0,0.0,0.0,0.0,0.0,0.0,0.0,0.0,0.0,0.0,0.0,0.0,0.0,0.0,0.0,0.0,0.0,0.0,0.0,0.0,0.0,0.0,0.0,0.0,0.0,-0.7802,-0.8119,-0.8465,-0.8751,-0.7736,-0.7235,0.0,0.0,0.0,0.0,0.0,0.0,0.0,0.0,0.0,0.0,0.0,0.0,0.0,0.0,0.0,0.0,0.0,0.0,0.0,0.0,0.0,0.0,0.0,0.0,0.0,0.0,0.0,0.0,0.0,0.0,0.0,0.0,0.0,0.0,0.0,0.0,0.0,0.0,0.0,0.0,0.0,0.0,0.0,0.0,0.0,0.0,0.0,0.0,0.0,0.0,0.0,0.0,0.0,0.0,0.0,0.0,0.0,0.0,0.0,0.0,0.0,0.0,0.0,0.0,0.0,0.0,0.0,0.0,0.0,0.0,0.0,0.0,0.0,0.0,0.0,0.0,0.0,0.0,0.0,0.0,0.0,0.0,0.0,0.0,0.0,0.0,0.0,0.0,0.0,0.0,0.0,0.0,0.0,0.0,0.0,0.0,0.0,0.0,0.0,0.0,0.0,0.0,0.0,0.0,0.0,0.0,0.0,0.0,0.0,-0.8936,-0.8919,-0.9061,-0.9326,-0.7919,-0.7293,-0.7533,0.0,0.0,0.0,0.0,0.0,0.0,0.0,0.0,0.0,0.0,0.0,0.0,0.0,0.0,0.0,0.0,0.0,0.0,0.0,0.0,0.0,0.0,0.0,0.0,0.0,0.0,0.0,0.0,0.0,0.0,0.0,0.0,0.0,0.0,0.0,0.0,0.0,0.0,0.0,0.0,0.0,0.0,0.0,0.0,0.0,0.0,0.0,0.0,0.0,0.0,0.0,0.0,0.0,0.0,0.0,0.0,0.0,0.0,0.0,0.0,0.0,0.0,0.0,0.0,0.0,0.0,0.0,0.0,0.0,0.0,0.0,0.0,0.0,0.0,0.0,0.0,0.0,0.0,0.0,0.0,0.0,0.0,0.0,0.0,0.0,0.0,0.0,0.0,0.0,0.0,0.0,0.0,0.0,0.0,0.0,0.0,0.0,0.0,0.0,0.0,0.0,0.0,0.0,0.0,0.0,0.0,0.0,0.0,-1.1039,-1.0872,-1.0568,-1.0131,-0.8477,-0.743,0.0,0.0,0.0,0.0,0.0,0.0,0.0,0.0,0.0,0.0,0.0,0.0,0.0,0.0,0.0,0.0,0.0,0.0,0.0,0.0,0.0,0.0,0.0,0.0,0.0,0.0,0.0,0.0,0.0,0.0,0.0,0.0,0.0,0.0,0.0,0.0,0.0,0.0,0.0,0.0,0.0,0.0,0.0,0.0,0.0,0.0,0.0,0.0,0.0,0.0,0.0,0.0,0.0,0.0,0.0,0.0,0.0,0.0,0.0,0.0,0.0,0.0,0.0,0.0,0.0,0.0,0.0,0.0,0.0,0.0,0.0,0.0,0.0,0.0,0.0,0.0,0.0,0.0,0.0,0.0,0.0,0.0,0.0,0.0,0.0,0.0,0.0,0.0,0.0,0.0,0.0,0.0,0.0,0.0,0.0,0.0,0.0,0.0,0.0,0.0,0.0,0.0,0.0,0.0,0.0,0.0,0.0,0.0,0.0,-1.291,-1.2161,-1.1125,-0.9867,-0.895,-0.8417,0.0,0.0,0.0,0.0,0.0,0.0,0.0,0.0,0.0,0.0,0.0,0.0,0.0,0.0,0.0,0.0,0.0,0.0,0.0,0.0,0.0,0.0,0.0,0.0,0.0,0.0,0.0,0.0,0.0,0.0,0.0,0.0,0.0,0.0,0.0,0.0,0.0,0.0,0.0,0.0,0.0,0.0,0.0,0.0,0.0,0.0,0.0,0.0,0.0,0.0,0.0,0.0,0.0,0.0,0.0,0.0,0.0,0.0,0.0,0.0,0.0,0.0,0.0,0.0,0.0,0.0,0.0,0.0,0.0,0.0,0.0,0.0,0.0,0.0,0.0,0.0,0.0,0.0,0.0,0.0,0.0,0.0,0.0,0.0,0.0,0.0,0.0,0.0,0.0,0.0,0.0,0.0,0.0,0.0,0.0,0.0,0.0,0.0,0.0,0.0,0.0,0.0,0.0,0.0,0.0,0.0,0.0,0.0,-1.3004,-1.3852,-1.3437,-1.2341,-1.0594,-0.9527,-0.8898,0.0,0.0,0.0,0.0,0.0,0.0,0.0,0.0,0.0,0.0,0.0,0.0,0.0,0.0,0.0,0.0,0.0,0.0,0.0,0.0,0.0,0.0,0.0,0.0,0.0,0.0,0.0,0.0,0.0,0.0,0.0,0.0,0.0,0.0,0.0,0.0,0.0,0.0,0.0,0.0,0.0,0.0,0.0,0.0,0.0,0.0,0.0,0.0,0.0,0.0,0.0,0.0,0.0,0.0,0.0,0.0,0.0,0.0,0.0,0.0,0.0,0.0,0.0,0.0,0.0,0.0,0.0,0.0,0.0,0.0,0.0,0.0,0.0,0.0,0.0,0.0,0.0,0.0,0.0,0.0,0.0,0.0,0.0,0.0,0.0,0.0,0.0,0.0,0.0,0.0,0.0,0.0,0.0,0.0,0.0,0.0,0.0,0.0,0.0,0.0,0.0,0.0,0.0,0.0,0.0,0.0,0.0,0.0,-1.3661,-1.425,-1.4526,-1.3801,-1.1954,-1.0311,-0.926,0.0,0.0,0.0,0.0,0.0,0.0,0.0,0.0,0.0,0.0,0.0,0.0,0.0,0.0,0.0,0.0,0.0,0.0,0.0,0.0,0.0,0.0,0.0,0.0,0.0,0.0,0.0,0.0,0.0,0.0,0.0,0.0,0.0,0.0,0.0,0.0,0.0,0.0,0.0,0.0,0.0,0.0,0.0,0.0,0.0,0.0,0.0,0.0,0.0,0.0,0.0,0.0,0.0,0.0,0.0,0.0,0.0,0.0,0.0,0.0,0.0,0.0,0.0,0.0,0.0,0.0,0.0,0.0,0.0,0.0,0.0,0.0,0.0,0.0,0.0,0.0,0.0,0.0,0.0,0.0,0.0,0.0,0.0,0.0,0.0,0.0,0.0,0.0,0.0,0.0,0.0,0.0,0.0,0.0,0.0,0.0,0.0,0.0,0.0,0.0,0.0,0.0,0.0,0.0,0.0,0.0,0.0,0.0,-1.4273,-1.5323,-1.4924,-1.4229,-1.3313,-1.1917,-1.0505,0.0,0.0,0.0,0.0,0.0,0.0,0.0,0.0,0.0,0.0,0.0,0.0,0.0,0.0,0.0,0.0,0.0,0.0,0.0,0.0,0.0,0.0,0.0,0.0,0.0,0.0,0.0,0.0,0.0,0.0,0.0,0.0,0.0,0.0,0.0,0.0,0.0,0.0,0.0,0.0,0.0,0.0,0.0,0.0,0.0,0.0,0.0,0.0,-0.2879,0.0,0.0,0.0,0.0,0.0,0.0,0.0,0.0,0.0,0.0,0.0,0.0,0.0,0.0,0.0,0.0,0.0,0.0,0.0,0.0,0.0,0.0,0.0,0.0,0.0,0.0,0.0,0.0,0.0,0.0,0.0,0.0,0.0,0.0,0.0,0.0,0.0,0.0,0.0,0.0,0.0,0.0,0.0,0.0,0.0,0.0,0.0,0.0,0.0,0.0,0.0,0.0,0.0,0.0,0.0,0.0,0.0,0.0,0.0,-1.4955,-1.5945,-1.5833,-1.5322,-1.4438,-1.329,-1.165,0.0,0.0,0.0,0.0,0.0,0.0,0.0,0.0,0.0,0.0,0.0,0.0,0.0,0.0,0.0,0.0,0.0,0.0,0.0,0.0,0.0,0.0,0.0,0.0,0.0,0.0,0.0,0.0,0.0,0.0,0.0,0.0,0.0,0.0,0.0,0.0,0.0,0.0,0.0,0.0,0.0,0.0,0.0,0.0,0.0,0.0,0.0,0.0,0.0,0.0,0.0,0.0,0.0,0.0,0.0,0.0,0.0,0.0,0.0,0.0,0.0,0.0,0.0,0.0,0.0,0.0,0.0,0.0,0.0,0.0,0.0,0.0,0.0,0.0,0.0,0.0,0.0,0.0,0.0,0.0,0.0,0.0,0.0,0.0,0.0,0.0,0.0,0.0,0.0,0.0,0.0,0.0,0.0,0.0,0.0,0.0,0.0,0.0,0.0,0.0,0.0,0.0,0.0,0.0,0.0,0.0,0.0,-1.4407,-1.5496,-1.6294,-1.6697,-1.6319,-1.5172,-1.4221,-1.2464,-0.9881,0.0,0.0,0.0,0.0,0.0,0.0,0.0,0.0,0.0,0.0,0.0,0.0,0.0,0.0,0.0,0.0,0.0,0.0,0.0,0.0,0.0,0.0,0.0,0.0,0.0,0.0,0.0,0.0,0.0,0.0,0.0,0.0,0.0,0.0,0.0,0.0,0.0,0.0,-0.3678,-0.4149,0.0,0.0,0.0,0.0,0.0,0.0,0.0,0.0,-0.4225,0.0,0.0,0.0,0.0,0.0,0.0,0.0,0.0,0.0,0.0,0.0,0.0,0.0,0.0,0.0,0.0,0.0,0.0,0.0,0.0,0.0,0.0,0.0,0.0,0.0,0.0,0.0,0.0,0.0,0.0,0.0,0.0,0.0,0.0,0.0,0.0,0.0,0.0,0.0,0.0,0.0,0.0,0.0,0.0,0.0,0.0,0.0,0.0,0.0,0.0,0.0,0.0,0.0,0.0,0.0,0.0,-1.4185,-1.479,-1.5464,-1.6303,-1.6697,-1.6078,-1.4437,-1.3945,-1.2563,-1.0194,0.0,0.0,0.0,0.0,0.0,0.0,0.0,0.0,0.0,0.0,0.0,0.0,0.0,0.0,0.0,0.0,0.0,0.0,0.0,0.0,0.0,0.0,0.0,0.0,0.0,0.0,0.0,0.0,0.0,0.0,0.0,0.0,0.0,0.0,0.0,0.0,0.0,0.0,0.0,-0.4397,-0.4724,0.0,0.0,0.0,0.0,0.0,0.0,0.0,0.0,-0.4251,0.0,0.0,0.0,0.0,0.0,0.0,0.0,0.0,0.0,0.0,0.0,0.0,0.0,0.0,0.0,0.0,0.0,0.0,0.0,0.0,0.0,0.0,0.0,0.0,0.0,0.0,0.0,0.0,0.0,0.0,0.0,0.0,0.0,0.0,0.0,0.0,0.0,0.0,0.0,0.0,0.0,0.0,0.0,0.0,0.0,0.0,0.0,0.0,0.0,0.0,0.0,0.0,0.0,0.0,0.0,-1.413,-1.4992,-1.5799,-1.6597,-1.6807,-1.6496,-1.5618,-1.4239,-1.2885,0.0,0.0,0.0,0.0,0.0,0.0,0.0,0.0,0.0,0.0,0.0,0.0,0.0,0.0,0.0,0.0,0.0,0.0,0.0,0.0,0.0,0.0,0.0,0.0,0.0,0.0,0.0,0.0,0.0,0.0,0.0,0.0,0.0,0.0,0.0,0.0,0.0,0.0,0.0,0.0,-0.5062,-0.5372,-0.5534,0.0,0.0,0.0,0.0,0.0,0.0,-0.4836,-0.4843,0.0,0.0,0.0,0.0,0.0,0.0,0.0,0.0,0.0,0.0,0.0,0.0,0.0,0.0,0.0,0.0,0.0,0.0,0.0,0.0,0.0,0.0,0.0,0.0,0.0,0.0,0.0,0.0,0.0,0.0,0.0,0.0,0.0,0.0,0.0,0.0,0.0,0.0,0.0,0.0,0.0,0.0,0.0,0.0,0.0,0.0,0.0,0.0,0.0,0.0,0.0,0.0,0.0,0.0,0.0,-1.4002,-1.512,-1.6083,-1.6862,-1.6908,-1.6839,-1.6664,-1.4678,-1.3282,0.0,0.0,0.0,0.0,0.0,0.0,0.0,0.0,0.0,0.0,0.0,0.0,0.0,0.0,0.0,0.0,0.0,0.0,0.0,0.0,0.0,0.0,0.0,0.0,0.0,0.0,0.0,0.0,0.0,0.0,0.0,0.0,0.0,0.0,0.0,0.0,0.0,0.0,0.0,0.0,0.0,-0.5981,-0.6358,-0.6028,0.0,0.0,0.0,0.0,-0.5404,-0.5721,0.0,0.0,0.0,0.0,0.0,0.0,0.0,0.0,0.0,0.0,0.0,0.0,0.0,0.0,0.0,0.0,0.0,0.0,0.0,0.0,0.0,0.0,0.0,0.0,0.0,0.0,0.0,0.0,0.0,0.0,0.0,0.0,0.0,0.0,0.0,0.0,0.0,0.0,0.0,0.0,0.0,0.0,0.0,0.0,0.0,0.0,0.0,0.0,0.0,0.0,0.0,0.0,0.0,0.0,0.0,0.0,-1.4396,-1.5258,-1.6092,-1.6862,-1.6908,-1.6586,-1.5965,-1.5025,-1.3695,0.0,0.0,0.0,0.0,0.0,0.0,0.0,0.0,0.0,0.0,0.0,0.0,0.0,0.0,0.0,0.0,0.0,0.0,0.0,0.0,0.0,0.0,0.0,0.0,0.0,0.0,0.0,0.0,0.0,0.0,0.0,0.0,0.0,0.0,0.0,0.0,0.0,0.0,0.0,0.0,0.0,-0.6195,-0.5864,-0.5881,-0.616,0.0,0.0,-0.6458,-0.6875,-0.7376,0.0,0.0,0.0,0.0,0.0,0.0,0.0,0.0,0.0,0.0,0.0,0.0,0.0,0.0,0.0,0.0,0.0,0.0,0.0,0.0,0.0,0.0,0.0,0.0,0.0,0.0,0.0,0.0,0.0,0.0,0.0,0.0,0.0,0.0,0.0,0.0,0.0,0.0,0.0,0.0,0.0,0.0,0.0,0.0,0.0,0.0,0.0,0.0,0.0,0.0,0.0,0.0,0.0,0.0,0.0,-1.3909,-1.5079,-1.5908,-1.6684,-1.7482,-1.7097,-1.676,-1.6438,-1.5136,-1.3973,0.0,0.0,0.0,0.0,0.0,0.0,0.0,0.0,0.0,0.0,0.0,0.0,0.0,0.0,0.0,0.0,0.0,0.0,0.0,0.0,0.0,0.0,0.0,0.0,0.0,0.0,0.0,0.0,0.0,0.0,0.0,0.0,0.0,0.0,0.0,0.0,0.0,0.0,0.0,0.0,0.0,0.0,-0.759,-0.7568,0.0,0.0,0.0,-0.7723,-0.776,0.0,0.0,0.0,0.0,0.0,0.0,0.0,0.0,0.0,0.0,0.0,0.0,0.0,0.0,0.0,0.0,0.0,0.0,0.0,0.0,0.0,0.0,0.0,0.0,0.0,0.0,0.0,0.0,0.0,0.0,0.0,0.0,0.0,0.0,0.0,0.0,0.0,0.0,0.0,0.0,0.0,0.0,0.0,0.0,0.0,0.0,0.0,0.0,0.0,0.0,0.0,0.0,0.0,0.0,0.0,0.0,0.0,-1.5555,-1.6799,-1.761,-1.7988,-1.7593,-1.7255,-1.7037,-1.5489,0.0,0.0,0.0,0.0,0.0,0.0,0.0,0.0,0.0,0.0,0.0,0.0,0.0,0.0,0.0,0.0,0.0,0.0,0.0,0.0,0.0,0.0,0.0,0.0,0.0,0.0,0.0,-0.4053,0.0,0.0,0.0,0.0,0.0,0.0,0.0,0.0,0.0,0.0,0.0,0.0,0.0,0.0,-0.8569,-0.8955,-0.8903,-0.8876,0.0,0.0,-0.89,-0.8763,-0.9035,-0.8909,0.0,0.0,0.0,0.0,0.0,0.0,0.0,0.0,0.0,0.0,0.0,0.0,0.0,0.0,0.0,0.0,0.0,0.0,0.0,0.0,0.0,0.0,0.0,0.0,0.0,0.0,0.0,0.0,0.0,0.0,0.0,0.0,0.0,0.0,0.0,0.0,0.0,0.0,0.0,0.0,0.0,0.0,0.0,0.0,0.0,0.0,0.0,0.0,0.0,0.0,0.0,0.0,0.0,0.0,0.0,-1.5478,-1.7842,-1.8765,-1.8135,-1.8408,-1.8222,-1.7476,-1.6251,-1.4993,0.0,0.0,0.0,0.0,0.0,0.0,0.0,0.0,0.0,0.0,0.0,0.0,0.0,0.0,0.0,0.0,0.0,0.0,0.0,0.0,0.0,0.0,0.0,0.0,0.0,0.0,0.0,0.0,0.0,0.0,0.0,0.0,0.0,0.0,0.0,0.0,0.0,0.0,0.0,0.0,0.0,-0.8843,-0.8738,-0.9041,-0.9476,0.0,0.0,-0.9743,-1.0119,-1.0599,-1.0414,-0.8854,0.0,0.0,0.0,0.0,0.0,0.0,0.0,0.0,0.0,0.0,0.0,0.0,0.0,0.0,0.0,0.0,0.0,0.0,0.0,0.0,0.0,0.0,0.0,0.0,0.0,0.0,0.0,0.0,0.0,0.0,0.0,0.0,0.0,0.0,0.0,0.0,0.0,0.0,0.0,0.0,0.0,0.0,0.0,0.0,0.0,0.0,0.0,0.0,0.0,0.0,0.0,0.0,0.0,-1.5701,-1.692,-1.8471,-1.9314,-1.9479,-1.9274,-1.8718,-1.7898,-1.6831,-1.5744,0.0,0.0,0.0,0.0,0.0,0.0,0.0,0.0,0.0,0.0,0.0,0.0,0.0,0.0,0.0,0.0,0.0,0.0,0.0,0.0,0.0,0.0,0.0,0.0,0.0,0.0,0.0,0.0,-0.6946,-0.7194,-0.7293,0.0,0.0,0.0,0.0,0.0,0.0,0.0,0.0,0.0,0.0,-1.129,-1.1458,-1.1747,0.0,0.0,-1.2211,-1.2136,-1.225,-1.1955,-1.1362,-1.0343,-0.9494,0.0,0.0,0.0,0.0,0.0,0.0,0.0,0.0,0.0,0.0,0.0,0.0,0.0,0.0,0.0,0.0,0.0,0.0,0.0,0.0,0.0,0.0,0.0,0.0,0.0,0.0,0.0,0.0,0.0,0.0,0.0,0.0,0.0,0.0,0.0,0.0,0.0,0.0,0.0,0.0,0.0,0.0,0.0,0.0,0.0,0.0,0.0,0.0,0.0,0.0,0.0,0.0,-1.6217,-1.7822,-1.9078,-1.9985,-2.0401,-2.0121,-1.9476,-1.8471,-1.7588,-1.6463,0.0,0.0,0.0,0.0,0.0,0.0,0.0,0.0,0.0,0.0,0.0,0.0,0.0,0.0,0.0,0.0,0.0,0.0,0.0,0.0,0.0,0.0,0.0,0.0,0.0,0.0,0.0,0.0,-0.8336,-0.8435,-0.8142,0.0,0.0,0.0,0.0,0.0,0.0,0.0,0.0,0.0,0.0,-1.3006,-1.3175,-1.351,-1.3733,-1.3741,-1.3616,-1.3586,-1.3623,-1.3092,-1.2458,-1.1803,0.0,0.0,0.0,0.0,0.0,0.0,0.0,0.0,0.0,0.0,0.0,0.0,0.0,0.0,0.0,0.0,0.0,0.0,0.0,0.0,0.0,0.0,0.0,0.0,0.0,0.0,0.0,-1.3184,0.0,0.0,-1.289,0.0,0.0,0.0,0.0,0.0,0.0,0.0,0.0,0.0,0.0,0.0,0.0,0.0,0.0,0.0,0.0,0.0,0.0,0.0,0.0,0.0,0.0,-1.6353,-1.7709,-1.9828,-2.0807,-2.0538,-2.0909,-2.0547,-1.9314,-1.8497,-1.7242,-1.5411,0.0,0.0,0.0,0.0,0.0,0.0,0.0,0.0,0.0,0.0,0.0,0.0,0.0,0.0,0.0,0.0,0.0,0.0,0.0,0.0,0.0,0.0,0.0,0.0,0.0,0.0,-0.8383,-0.8691,-0.8596,0.0,0.0,0.0,0.0,0.0,0.0,0.0,0.0,0.0,0.0,-1.2591,-1.3496,-1.3194,-1.3652,-1.4103,-1.4058,-1.3793,-1.366,-1.4007,-1.3991,-1.3741,0.0,0.0,0.0,0.0,0.0,0.0,0.0,0.0,0.0,0.0,0.0,0.0,0.0,0.0,0.0,0.0,0.0,0.0,0.0,0.0,0.0,0.0,0.0,0.0,0.0,0.0,0.0,-1.6433,-1.5751,0.0,0.0,0.0,0.0,0.0,0.0,0.0,0.0,0.0,0.0,0.0,-1.8673,-1.893,0.0,0.0,0.0,0.0,0.0,0.0,0.0,0.0,0.0,0.0,0.0,0.0,-1.6653,-1.8568,-1.9948,-2.0829,-2.136,-2.1504,-2.1165,-2.0199,-1.9258,-1.7402,-1.4566,0.0,0.0,0.0,0.0,0.0,0.0,0.0,0.0,0.0,0.0,0.0,0.0,0.0,0.0,0.0,0.0,0.0,0.0,0.0,0.0,0.0,0.0,0.0,0.0,0.0,-0.969,0.0,0.0,0.0,0.0,0.0,0.0,0.0,0.0,0.0,0.0,0.0,-1.2241,-1.2885,-1.4356,-1.5446,-1.5614,-1.6002,-1.6343,0.0,0.0,0.0,0.0,0.0,0.0,0.0,0.0,0.0,0.0,0.0,0.0,0.0,0.0,-1.0325,-0.8938,-0.8624,-0.8594,-0.8536,0.0,0.0,0.0,0.0,0.0,0.0,0.0,0.0,0.0,0.0,0.0,0.0,0.0,0.0,-1.8475,0.0,-1.7678,0.0,0.0,0.0,0.0,0.0,0.0,0.0,0.0,-1.9561,-2.0373,-2.0518,-2.0772,-2.0514,0.0,-1.9344,-1.7864,0.0,0.0,0.0,0.0,0.0,0.0,0.0,0.0,-1.7357,-1.9285,-2.0203,-2.1041,-2.1766,-2.1807,-2.1477,-2.0771,-1.954,-1.7737,-1.5395,-1.4648,-1.3708,0.0,0.0,0.0,0.0,0.0,0.0,0.0,0.0,0.0,0.0,0.0,0.0,0.0,0.0,0.0,0.0,0.0,0.0,0.0,0.0,0.0,0.0,0.0,-1.133,0.0,0.0,0.0,0.0,0.0,0.0,0.0,0.0,0.0,-1.2061,-1.3045,-1.4223,-1.5213,-1.6124,-1.6848,-1.7203,0.0,0.0,0.0,0.0,0.0,0.0,0.0,-1.6111,-1.6065,-1.4967,-1.4052,-1.4096,-1.3937,-1.3724,-1.3581,0.0,0.0,-1.1142,-1.0744,-1.0698,-1.0751,-1.1006,-1.123,-1.1224,-1.149,-1.1713,0.0,0.0,0.0,0.0,0.0,0.0,0.0,0.0,-1.9544,-1.9768,0.0,-1.9168,0.0,0.0,0.0,0.0,0.0,-1.8849,0.0,0.0,-2.179,-2.2364,-2.2018,-2.2057,-2.1797,-2.1333,-2.1697,-2.0949,-1.9164,-1.6547,0.0,0.0,0.0,0.0,0.0,0.0,-1.8433,-1.9824,-2.0659,-2.1352,-2.1818,-2.1818,-2.158,-2.1077,-1.9424,-1.8288,-1.7788,-1.6596,-1.5381,-1.4177,-1.3792,0.0,0.0,0.0,0.0,0.0,0.0,0.0,0.0,0.0,0.0,0.0,0.0,0.0,0.0,0.0,0.0,0.0,0.0,0.0,0.0,-1.1836,0.0,0.0,0.0,0.0,0.0,0.0,0.0,0.0,0.0,0.0,-1.5197,-1.5691,-1.6581,-1.7998,0.0,0.0,0.0,0.0,-1.7782,-1.8112,-1.7837,-1.7902,-1.8568,-1.8637,-1.8285,-1.7499,0.0,0.0,-1.6292,-1.6052,-1.5823,-1.5539,-1.5397,-1.4884,-1.3154,-1.2609,-1.2439,-1.2446,-1.2332,-1.2168,-1.2155,-1.2373,-1.2342,-2.3266,0.0,0.0,0.0,0.0,-2.1835,-2.2459,-2.3629,-2.3174,-2.276,-2.2366,-2.1983,0.0,0.0,0.0,0.0,0.0,0.0,-2.1569,-2.233,-2.4151,-2.5092,-2.5328,-2.6006,-2.6021,-2.5481,-2.4375,-2.3335,-2.2388,-2.0362,-1.8143,-1.5835,0.0,0.0,0.0,0.0,-1.9023,-2.0638,-2.0979,-2.1497,-2.2283,-2.1983,-2.158,-2.1135,-2.0586,-1.9656,-1.8278,-1.7601,-1.6648,-1.5302,-1.431,0.0,0.0,0.0,0.0,0.0,0.0,0.0,0.0,0.0,0.0,0.0,0.0,0.0,0.0,0.0,0.0,0.0,0.0,0.0,-1.2818,-1.32,-1.3404,0.0,0.0,0.0,0.0,0.0,0.0,0.0,0.0,0.0,-1.8693,-1.8082,-1.7826,0.0,0.0,-1.9316,-1.9408,-1.9851,-2.0222,-2.0342,-2.0094,0.0,-2.019,-1.9679,-1.9106,-1.8675,-1.7865,-1.747,-1.8221,-1.7219,-1.6442,-1.7005,-1.6584,-1.5944,-1.5447,-1.4873,-1.4506,-1.4519,-1.4659,-1.4758,-1.4807,-1.4963,-1.5098,-2.7024,-2.5041,-2.3888,-2.3639,-2.3981,-2.3888,-2.4364,-2.5179,-2.489,-2.491,-2.5073,-2.4754,-2.4052,-2.316,-2.263,0.0,0.0,0.0,-2.44,-2.5213,-2.6499,-2.7265,-2.7557,-2.8088,-2.8191,-2.7838,-2.6404,-2.5492,-2.5139,-2.3683,-2.166,-1.9116,0.0,0.0,-1.836,-1.9073,-2.0182,-2.159,-2.1849,-2.2211,-2.2749,-2.2315,-2.1849,-2.1414,-2.118,-2.0576,-1.9519,-1.889,-1.8142,-1.709,-1.5821,-1.477,0.0,0.0,0.0,0.0,0.0,0.0,0.0,0.0,0.0,0.0,0.0,-0.9338,0.0,0.0,0.0,0.0,-1.1914,-1.3242,-1.4703,-1.4619,0.0,0.0,0.0,0.0,0.0,0.0,0.0,-1.7402,-1.8488,-1.9489,-2.0518,-2.0399,-2.0226,-2.0359,-2.0369,-2.0415,-2.0575,0.0,-2.1062,-2.1222,-2.1123,-2.1052,-2.1209,-2.0754,-2.0271,-1.9904,-1.8974,-1.8568,-1.938,-1.864,-1.8152,-1.8552,-1.8277,-1.7893,-1.7893,-1.7293,-1.6462,-1.5786,-1.5774,-1.5906,-1.5913,-1.6155,-1.6411,-3.0844,-3.0235,-2.7568,-2.6153,-2.5633,-2.6052,-2.6045,-2.5714,-2.5683,-2.6617,-2.8106,-2.7293,-2.713,-2.7429,-2.6205,0.0,-2.6391,-2.7192,-2.7793,-2.8279,-2.8765,-2.9016,-2.9016,-2.9114,-2.9122,-2.9052,-2.8073,-2.7557,-2.7429,-2.6436,-2.5085,-2.3367,-2.1336,-2.041,-2.0545,-2.099,-2.1673,-2.2584,-2.2987,-2.3174,-2.3122,-2.2718,-2.2273,-2.1818,-2.1362,-2.1056,-2.0994,-2.0213,-1.9585,-1.9088,-1.7771,-1.6479,-1.5235,0.0,0.0,0.0,0.0,0.0,0.0,0.0,0.0,0.0,0.0,0.0,0.0,0.0,0.0,0.0,-1.3288,0.0,-1.6312,-1.6053,0.0,0.0,0.0,-1.6764,-1.7206,-1.7664,-1.8096,-1.8606,0.0,0.0,-2.1331,-2.2439,-2.3175,-2.29,-2.1863,-2.1243,-2.1627,-2.13,-2.1038,-2.1515,-2.1432,-2.1528,-2.1859,-2.171,-2.1505,-2.1221,-2.0656,-2.0189,-2.0414,-2.0189,-2.0178,-2.0279,-2.0277,-2.0124,-2.0178,-1.9307,-1.8318,-1.6618,-1.6168,-1.6016,-1.6067,-1.6316,-1.6506,-3.2589,-3.2453,-3.1732,-3.0504,-2.9018,-2.9115,-2.9569,-3.0199,-2.9827,-2.9681,-2.9704,-2.91,-2.8683,-2.8434,-2.8159,-2.8245,-2.8699,-2.8887,-2.9268,-2.9752,-3.0555,-3.0934,-3.0978,-3.173,-3.1864,-3.1361,-3.0459,-2.9648,-2.8831,-2.7918,-2.6875,-2.5704,-2.5163,-2.3765,-2.1565,-2.1942,-2.2625,-2.3546,-2.3308,-2.3058,-2.2666,-2.2553,-2.2263,-2.1807,-2.1362,-2.0948,-2.056,-2.0093,-1.9575,-1.9108,-1.8081,-1.7234,-1.6552,-1.4949,0.0,0.0,0.0,0.0,0.0,0.0,0.0,0.0,0.0,-1.2337,-1.0669,0.0,-1.3728,0.0,-1.4999,-1.6082,-1.6779,-1.6758,0.0,0.0,-1.8206,-1.836,-1.9472,-1.9675,-2.0071,-2.0905,-2.1669,-2.2439,-2.3143,-2.3505,-2.3669,-2.3554,-2.3363,-2.3234,-2.3328,-2.338,-2.3388,-2.3348,-2.3109,-2.2984,-2.294,-2.2246,-2.1935,-2.2511,-2.1284,-2.0683,-2.2138,-2.1141,-2.0413,-2.1096,-2.0692,-2.0277,-2.0232,-1.983,-1.9459,-1.8891,-1.7874,-1.6943,-1.695,-1.704,-1.7099,-3.4284,-3.4211,-3.3492,-3.2807,-3.2159,-3.1506,-3.1437,-3.1734,-3.1469,-3.1472,-3.1639,-3.1774,-3.1533,-3.1084,-3.1084,-3.1064,-3.1081,-3.1081,-3.1237,-3.1524,-3.2021,-3.2264,-3.2307,-3.2853,-3.2918,-3.2591,-3.1863,-3.1166,-3.0589,-2.9878,-2.8898,-2.778,-2.7728,-2.6542,-2.4251,-2.3849,-2.385,-2.4157,-2.3929,-2.3567,-2.3132,-2.2915,-2.2573,-2.2118,-2.1673,-2.1207,-2.0705,-2.0286,-1.9748,-1.9119,-1.8184,-1.7482,-1.6987,-1.587,-1.5018,0.0,0.0,0.0,0.0,0.0,0.0,0.0,0.0,0.0,0.0,0.0,-1.5173,-1.5756,-1.6705,-1.7543,-1.8195,-1.8247,-1.8713,-1.9851,-1.9748,-2.0048,-2.1228,-2.1352,-2.1621,-2.2335,-2.2822,-2.3298,-2.3805,-2.4053,-2.4133,-2.4112,-2.4077,-2.3924,-2.3626,-2.3667,-2.3711,-2.3721,-2.3493,-2.3319,-2.3319,-2.2775,-2.2467,-2.2862,-2.2227,-2.1872,-2.2862,-2.2227,-2.1686,-2.2138,-2.1872,-2.1507,-2.1445,-2.1024,-2.0651,-2.0447,-1.9545,-1.867,-1.8407,-1.818,-1.7971,-3.5913,-3.5778,-3.4369,-3.4341,-3.509,-3.3797,-3.2881,-3.2393,-3.2311,-3.2723,-3.3523,-3.4338,-3.4405,-3.401,-3.401,-3.3746,-3.3294,-3.3262,-3.3181,-3.3181,-3.3149,-3.3124,-3.3124,-3.3124,-3.3124,-3.3099,-3.2566,-3.2277,-3.219,-3.1738,-3.0844,-2.9609,-2.9484,-2.876,-2.7406,-2.6224,-2.5302,-2.469,-2.4658,-2.4492,-2.4085,-2.3566,-2.3018,-2.2511,-2.1994,-2.1507,-2.1041,-2.055,-1.9986,-1.9222,-1.835,-1.7699,-1.7285,-1.6767,-1.6288,0.0,-1.5784,0.0,0.0,0.0,0.0,0.0,0.0,0.0,0.0,-1.538,-1.6684,-1.7781,-1.8402,-1.9077,-1.9813,-1.999,-2.0358,-2.1176,-2.129,-2.1642,-2.2459,-2.2635,-2.2832,-2.3225,-2.3681,-2.3971,-2.4084,-2.4352,-2.4547,-2.4438,-2.4308,-2.3901,-2.3276,-2.3178,-2.3232,-2.3144,-2.3101,-2.3144,-2.3144,-2.3091,-2.3047,-2.3091,-2.3003,-2.3101,-2.3047,-2.3047,-2.3047,-2.3047,-2.3003,-2.3003,-2.3101,-2.2369,-2.1908,-2.1845,-2.1123,-2.0407,-1.9862,-1.936,-1.9001,-3.7543,-3.7531,-3.7221,-3.7233,-3.7381,-3.7072,-3.6417,-3.5476,-3.4996,-3.4656,-3.4441,-3.4635,-3.4663,-3.4575,-3.4562,-3.45,-3.4387,-3.3947,-3.3746,-3.3721,-3.3294,-3.3124,-3.3124,-3.3124,-3.3124,-3.3124,-3.2955,-3.2667,-3.2202,-3.2102,-3.1693,-3.0979,-3.0568,-2.988,-2.8901,0.0,0.0,0.0,-2.5547,-2.5352,-2.496,-2.4177,-2.335,-2.2511,-2.1683,0.0,-2.0529,-2.0131,-1.9844,-1.9658,-1.915,0.0,0.0,0.0,0.0,0.0,0.0,0.0,0.0,0.0,0.0,0.0,-1.803,-1.7657,-1.6541,-1.7988,-1.8973,-1.8858,-1.9893,-2.0514,-2.0327,-2.0979,-2.1642,-2.2159,-2.2242,-2.2459,-2.2998,-2.3381,-2.3701,-2.3743,-2.4136,-2.4518,-2.4859,-2.4828,-2.4683,-2.454,-2.4285,-2.3826,-2.3184,-2.3276,-2.3416,-2.3416,-2.3232,-2.3101,-2.3101,-2.311,-2.314,-2.3101,-2.3101,-2.3101,-2.3101,-2.3101,-2.3101,-2.3101,-2.3101,-2.3101,-2.3101,-2.2916,-2.2784,-2.2828,-2.2643,-2.2066,-2.0461,-2.0045,-1.9914,-3.8429,0.0,-3.8128,-3.8002,0.0,-3.8002,-3.7688,-3.7136,-3.6596,-3.6044,-3.5542,-3.5529,-3.5378,-3.5082,-3.5082,-3.4931,-3.4713,-3.4437,-3.4299,-3.4274,-3.3734,-3.3483,-3.347,-3.3206,-3.3124,-3.3124,-3.3124,-3.2918,-3.2654,-3.2641,-3.2353,-3.18,-3.1537,-3.092,-2.997,-2.9441,-2.8263,-2.6453,-2.6027,-2.571,-2.5469,-2.4471,-2.3536,-2.2853,-2.2159,0.0,0.0,0.0,0.0,0.0,0.0,0.0,0.0,0.0,0.0,-1.8382,-1.8371,-1.8382,-1.8402,-1.898,-1.9499,-1.9727,-2.0404,-2.0182,-1.8783,-1.9779,-2.0524,-2.0788,-2.1404,-2.1797,-2.1818,-2.2221,-2.2677,-2.3111,-2.3174,-2.336,-2.3784,-2.4064,-2.4291,-2.4476,-2.4607,-2.4828,-2.5279,-2.5096,-2.4826,-2.4545,-2.4272,-2.389,-2.3408,-2.3276,-2.3276,-2.3319,-2.3178,-2.3179,-2.3418,-2.3467,-2.3447,-2.3457,-2.3467,-2.3325,-2.312,-2.3101,-2.3101,-2.3101,-2.3101,-2.3101,-2.3101,-2.3101,-2.3101,-2.3101,-2.3101,-2.2862,-2.1774,-2.1284,-2.0962,-3.9019,-3.8969,-3.8492,-3.8291,-3.8304,-3.8304,-3.8241,-3.8115,0.0,0.0,0.0,-3.6556,-3.6207,-3.5658,-3.5646,-3.5441,-3.5014,-3.4914,-3.4831,-3.4793,-3.4311,-3.3997,-3.3872,-3.3445,-3.3212,-3.3124,-3.3124,-3.3124,-3.3124,-3.3124,-3.2842,-3.2403,-3.2265,-3.1725,-3.0783,-3.0206,-2.9187,-2.7766,-2.6775,-2.6276,-2.6224,-2.5108,-2.4166,-2.3592,-2.324,-2.2517,-2.128,-2.1386,-2.099,-2.0093,-2.0031,-2.0072,-2.0145,-2.0072,-2.0228,-2.0627,-2.0669,-2.07,-2.0746,-2.1145,-2.1404,-2.1476,-2.2263,-2.218,-2.0897,-2.118,-2.1797,-2.2563,-2.2687,-2.2894,-2.3267,-2.3391,-2.3577,-2.396,-2.4074,-2.4271,-2.4559,-2.4693,-2.49,-2.522,-2.5105,-2.5145,-2.5538,-2.5371,-2.5072,-2.4656,-2.4341,-2.3959,-2.3535,-2.3232,-2.3144,-2.3144,-2.3091,-2.3227,-2.3555,-2.3623,-2.3672,-2.3594,-2.3633,-2.3535,-2.3208,-2.3101,-2.3101,-2.3101,-2.3101,-2.3101,-2.3101,-2.3101,-2.3101,-2.3101,-2.3101,-2.3101,-2.3047,-2.2511,-2.1961,-3.9572,-3.9572,-3.9484,-3.9459,-3.9459,-3.9459,-3.9195,-3.8718,-3.814,-3.7575,-3.7073,-3.7061,-3.6807,-3.6292,-3.6292,-3.6254,-3.6141,-3.5629,-3.5382,-3.5357,-3.4818,-3.4361,-3.3909,-3.3822,-3.3533,-3.3149,-3.3124,-3.3124,-3.3124,-3.3124,-3.3031,-3.2905,-3.2453,-3.1888,-3.1286,-3.0758,-3.0376,-3.0059,-2.8783,-2.8131,-2.8091,-2.7163,-2.6088,-2.5003,-2.5184,-2.4161,-2.1821,-2.2419,-2.2226,-2.0995,-2.0928,-2.1104,-2.1476,-2.1145,-2.1135,-2.1569,-2.1611,-2.1787,-2.217,-2.2273,-2.248,-2.2873,-2.3391,-2.3267,-2.2325,-2.2635,-2.2946,-2.3101,-2.3443,-2.3743,-2.3795,-2.4115,-2.4396,-2.4467,-2.4809,-2.5078,-2.5228,-2.5519,-2.5802,-2.5951,-2.5792,-2.5867,-2.6167,-2.5945,-2.551,-2.4894,-2.4424,-2.4059,-2.3423,-2.3135,-2.3101,-2.3101,-2.3101,-2.313,-2.3266,-2.3198,-2.3266,-2.3179,-2.3237,-2.3247,-2.312,-2.3101,-2.3101,-2.3101,-2.3101,-2.3101,-2.3101,-2.3101,-2.3101,-2.3101,-2.3101,-2.3101,-2.3101,-2.2916,-2.2828,-3.9697,-3.9697,-3.9697,-3.9697,-3.9697,-3.9697,-3.9559,-3.9308,-3.9044,-3.8429,-3.7638,-3.7312,-3.7048,-3.6832,-3.6543,-3.6417,-3.6405,-3.6107,-3.5994,-3.5943,-3.5429,-3.4994,-3.4743,-3.45,-3.406,-3.3545,-3.352,-3.337,-3.3149,-3.3124,-3.3124,-3.3043,-3.2491,-3.2089,-3.1813,-3.1311,-3.1035,-3.1022,-2.9365,-2.8502,-2.8502,-2.7557,-2.6493,-2.5264,-2.582,-2.5066,-2.2662,-2.3408,-2.358,-2.2981,-2.2503,-2.2558,-2.3193,-2.2618,-2.2335,-2.2542,-2.2563,-2.276,-2.3225,-2.3474,-2.3691,-2.3919,-2.4115,-2.4188,-2.4002,-2.3939,-2.3919,-2.3877,-2.4115,-2.4343,-2.4581,-2.5252,-2.5797,-2.6011,-2.6693,-2.7161,-2.7183,-2.7326,-2.758,-2.7766,-2.7709,-2.7662,-2.7709,-2.7091,-2.6191,-2.5278,-2.4381,-2.3677,-2.3496,-2.3291,-2.3101,-2.3101,-2.3101,-2.3208,-2.3383,-2.3486,-2.3496,-2.3496,-2.3486,-2.3389,-2.3169,-2.3101,-2.3101,-2.3101,-2.3101,-2.3101,-2.3101,-2.3101,-2.3101,-2.3101,-2.3101,-2.3101,-2.3101,-2.3101,-2.3013,-3.9697,-3.9697,-3.9697,-3.9697,-3.9697,-3.9697,-3.9697,-3.9697,-3.9685,-3.9195,-3.8379,-3.7814,-3.7425,-3.7149,-3.6782,-3.6531,-3.643,-3.6417,-3.6405,-3.6367,-3.5931,-3.5621,-3.547,-3.5102,-3.4625,-3.4123,-3.396,-3.3671,-3.3294,-3.3187,-3.3124,-3.3074,-3.2629,-3.2403,-3.239,-3.1851,-3.1587,-3.1471,-2.9954,-2.9083,-2.8974,-2.8163,-2.7129,-2.6089,-2.6776,-2.6109,-2.3877,-2.4693,-2.4943,-2.4263,-2.3905,-2.3959,-2.4324,-2.3915,-2.3696,-2.379,-2.3801,-2.404,-2.4564,-2.4903,-2.5158,-2.5274,-2.5274,-2.5508,-2.5912,-2.5678,-2.5251,-2.4883,-2.4861,-2.5039,-2.567,-2.6346,-2.7052,-2.7612,-2.8411,-2.8815,-2.8945,-2.9037,-2.9187,-2.9422,-2.9268,-2.9001,-2.87,-2.7852,-2.6761,-2.5649,-2.4617,-2.4142,-2.4217,-2.3925,-2.3703,-2.3379,-2.3227,-2.3198,-2.3594,-2.3613,-2.3594,-2.3643,-2.3613,-2.3437,-2.3169,-2.3101,-2.3101,-2.3101,-2.3101,-2.3101,-2.3101,-2.3101,-2.3101,-2.3101,-2.3101,-2.3101,-2.3101,-2.3101,-2.2969,-3.9697,-3.9697,-3.9697,-3.9697,-3.9697,-3.9697,-3.9697,-3.9697,-3.9697,-3.9659,-3.9421,-3.8956,-3.814,-3.7262,-3.7123,-3.687,-3.6455,-3.6417,-3.6417,-3.6417,-3.6367,-3.6031,-3.5558,-3.5445,-3.5144,-3.4593,-3.4198,-3.3947,-3.3796,-3.3332,-3.3136,-3.3124,-3.3018,-3.298,-3.2918,-3.2416,-3.2139,-3.2127,-3.1467,-3.0888,-3.0413,-2.9847,-2.9106,-2.8231,-2.9005,-2.8071,-2.5209,-2.66,-2.6184,-2.378,-2.4758,-2.5065,-2.4228,-2.4639,-2.5169,-2.5478,-2.5552,-2.5928,-2.6673,-2.6842,-2.7039,-2.7596,-2.7569,-2.7816,-2.8302,-2.8357,-2.7599,-2.6311,-2.5841,-2.6246,-2.6986,-2.7349,-2.7875,-2.8694,-2.9277,-2.942,-2.9598,-2.9834,-2.9871,-2.9357,-2.951,-2.9053,-2.8512,-2.7569,-2.6695,-2.5991,-2.5844,-2.5672,-2.5443,-2.5263,-2.4952,-2.4293,-2.3691,-2.3198,-2.3281,-2.3159,-2.3291,-2.3227,-2.3179,-2.3149,-2.311,-2.3101,-2.3101,-2.3101,-2.3101,-2.3101,-2.3101,-2.3101,-2.3101,-2.3101,-2.3101,-2.3101,-2.3101,-2.3101,-2.2969,-3.9697,-3.9697,-3.9697,-3.9697,-3.9697,-3.9697,-3.9697,-3.9697,-3.9697,-3.9697,-3.9672,-3.9459,-3.8919,-3.814,-3.75,-3.7048,-3.6883,-3.6556,-3.6417,-3.6417,-3.6417,-3.6292,-3.6044,-3.6031,-3.5742,-3.5182,-3.4977,-3.47,-3.4336,-3.3834,-3.3407,-3.3149,-3.3124,-3.3124,-3.3099,-3.2842,-3.2717,-3.2717,-3.2164,-3.1763,-3.1499,-3.0721,-2.9861,-2.9149,-2.9512,-2.8745,-2.6661,-2.7042,-2.7069,-2.6365,-2.601,-2.5817,-2.5793,-2.611,-2.6158,-2.5891,-2.6276,-2.6877,-2.7587,-2.7663,-2.787,-2.8449,-2.8472,-2.8691,-2.9175,-2.9222,-2.8942,-2.8544,-2.7944,-2.7931,-2.8552,-2.9114,-2.9741,-3.0426,-3.1168,-3.1593,-3.1617,-3.1743,-3.1683,-3.1119,-3.101,-3.061,-2.9565,-2.8057,-2.6508,-2.5437,-2.5317,-2.564,-2.5476,-2.5217,-2.4993,-2.4798,-2.4277,-2.3828,-2.3594,-2.3525,-2.3428,-2.3179,-2.3101,-2.3101,-2.312,-2.3101,-2.3101,-2.311,-2.3101,-2.3101,-2.3101,-2.3101,-2.3101,-2.3101,-2.3101,-2.3101,-2.3101,-2.3101,-2.3013,-3.9697,-3.9697,-3.9697,-3.9697,-3.9697,-3.9697,-3.9697,-3.9697,-3.9697,-3.9697,-3.9697,-3.9697,-3.9471,-3.8994,-3.8078,-3.7487,-3.7149,-3.682,-3.6556,-3.643,-3.6417,-3.6417,-3.6417,-3.6417,-3.6157,-3.5793,-3.5558,-3.5194,-3.4726,-3.4161,-3.3684,-3.3332,-3.3199,-3.3124,-3.3124,-3.3124,-3.3124,-3.3074,-3.2641,-3.2453,-3.2328,-3.1537,-3.0677,-2.9939,-2.9965,-2.9273,-2.7807,-2.78,-2.777,-2.7718,-2.6935,-2.6565,-2.6741,-2.6935,-2.688,-2.656,-2.7566,-2.8345,-2.8577,-2.8768,-2.9135,-2.9638,-2.9752,-2.9934,-3.0371,-3.0501,-3.0623,-3.0882,-3.0371,-3.0103,-3.01,-3.0688,-3.1315,-3.1952,-3.2711,-3.3124,-3.3068,-3.3124,-3.2812,-3.2328,-3.1992,-3.1751,-3.0572,-2.9195,-2.7887,-2.6538,-2.6328,-2.6266,-2.6419,-2.6362,-2.6187,-2.6091,-2.5811,-2.5141,-2.4264,-2.3955,-2.376,-2.3525,-2.3418,-2.3481,-2.3325,-2.3286,-2.3286,-2.3437,-2.3227,-2.3101,-2.3101,-2.3101,-2.3101,-2.3101,-2.3101,-2.3101,-2.3101,-2.3101,-2.3057,-3.9697,-3.9697,-3.9697,-3.9697,-3.9697,-3.9697,-3.9697,-3.9697,-3.9697,-3.9697,-3.9697,-3.9697,-3.9685,-3.9597,-3.8981,-3.8191,-3.7312,-3.7186,-3.692,-3.6493,-3.6455,-3.643,-3.6417,-3.6417,-3.6392,-3.6267,-3.583,-3.5282,-3.4763,-3.4223,-3.3897,-3.3834,-3.337,-3.3136,-3.3124,-3.3124,-3.3124,-3.3111,-3.3048,-3.3006,-3.2943,-3.2416,-3.1822,-3.1317,-3.0819,-3.0106,-2.9346,-2.9492,-2.8618,-2.6091,-2.7545,-2.7644,-2.6268,-2.6775,-2.7373,-2.7934,-2.9859,-3.0741,-3.0127,-3.0638,-3.134,-3.1855,-3.1841,-3.2234,-3.2524,-3.2599,-3.2636,-3.2884,-3.2642,-3.229,-3.1604,-3.158,-3.1979,-3.2785,-3.3038,-3.3124,-3.3124,-3.3124,-3.2817,-3.2353,-3.2164,-3.1543,-3.0342,-3.0803,-3.0278,-2.9754,-3.0292,-3.0375,-2.9444,-2.9477,-2.9055,-2.8468,-2.8032,-2.754,-2.5135,-2.488,-2.4554,-2.4286,-2.4446,-2.4242,-2.399,-2.3769,-2.3769,-2.3682,-2.3437,-2.3218,-2.314,-2.3101,-2.3101,-2.3101,-2.3101,-2.3101,-2.3101,-2.3101,-2.3057,-3.9697,-3.9697,-3.9697,-3.9697,-3.9697,-3.9697,-3.9697,-3.9697,-3.9697,-3.9697,-3.9697,-3.9697,-3.9697,-3.9697,-3.9496,-3.8981,-3.8316,-3.7889,-3.74,-3.6935,-3.6945,-3.6697,-3.643,-3.6417,-3.6417,-3.6367,-3.6157,-3.5793,-3.5245,-3.4994,-3.4575,-3.3972,-3.3709,-3.3445,-3.3187,-3.3124,-3.3124,-3.3124,-3.3124,-3.3124,-3.3111,-3.288,-3.2654,-3.2483,-3.1574,-3.0988,-3.0666,-3.0249,-2.9772,-2.9407,-2.9489,-2.9213,-2.8703,-2.8828,-2.9367,-3.0068,-3.0947,-3.1372,-3.1435,-3.1718,-3.2164,-3.2679,-3.2754,-3.2817,-3.3061,-3.3124,-3.3124,-3.3124,-3.3124,-3.2896,-3.2723,-3.2581,-3.2667,-3.3038,-3.3124,-3.3124,-3.3124,-3.3111,-3.2855,-3.2315,-3.1926,-3.1162,-3.0368,-3.0199,-3.0087,-2.9157,-2.9352,-2.9602,-2.9431,-2.9235,-2.9223,-2.8866,-2.8669,-2.8375,-2.7562,-2.6929,-2.6644,-2.6127,-2.5889,-2.5435,-2.5098,-2.4418,-2.4235,-2.4141,-2.3828,-2.3594,-2.3555,-2.3344,-2.3305,-2.3227,-2.3218,-2.3286,-2.3101,-2.3218,-2.3145,-3.9697,-3.9697,-3.9697,-3.9697,-3.9697,-3.9697,-3.9697,-3.9697,-3.9697,-3.9697,-3.9697,-3.9697,-3.9697,-3.9697,-3.9697,-3.9509,-3.9094,-3.853,-3.7977,-3.7462,-3.7274,-3.6998,-3.6694,-3.6493,-3.6417,-3.6417,-3.6417,-3.6157,-3.5818,-3.5583,-3.5094,-3.4487,-3.411,-3.3721,-3.3413,-3.3169,-3.3124,-3.3124,-3.3124,-3.3124,-3.3124,-3.3124,-3.3124,-3.3011,-3.2328,-3.1838,-3.1675,-3.0939,-3.0621,-3.084,-3.0426,-3.0067,-3.0121,-3.053,-3.0891,-3.1195,-3.1672,-3.1951,-3.2065,-3.2309,-3.2667,-3.3031,-3.3124,-3.3124,-3.3124,-3.3124,-3.3124,-3.3124,-3.3124,-3.3124,-3.3124,-3.3081,-3.3124,-3.3124,-3.3124,-3.3124,-3.3124,-3.3124,-3.2905,-3.2591,-3.2265,-3.1571,-3.0846,-3.0879,-3.0568,-2.9576,-2.9704,-2.9727,-2.9704,-2.9658,-2.9647,-2.9658,-2.9795,-2.9841,-2.9511,-2.9308,-2.7822,-2.7136,-2.6875,-2.6505,-2.6016,-2.5247,-2.4785,-2.4634,-2.4365,-2.4111,-2.3887,-2.3656,-2.3559,-2.3525,-2.3662,-2.3809,-2.3623,-2.3457,-2.3378,-3.9697,-3.9697,-3.9697,-3.9697,-3.9697,-3.9697,-3.9697,-3.9697,-3.9697,-3.9697,-3.9697,-3.9697,-3.9697,-3.9697,-3.9697,-3.9672,-3.9534,-3.9094,-3.8555,-3.8002,-3.7538,-3.7262,-3.7086,-3.6694,-3.6455,-3.6417,-3.6417,-3.6405,-3.6317,-3.5855,-3.5495,-3.5257,-3.4474,-3.401,-3.3872,-3.3395,-3.3162,-3.3136,-3.3124,-3.3124,-3.3124,-3.3124,-3.3124,-3.3124,-3.3023,-3.2717,-3.2227,-3.1709,-3.1166,-3.0493,-3.0314,-3.0157,-3.0537,-3.145,-3.1824,-3.1388,-3.2265,-3.2494,-3.194,-3.2562,-3.3036,-3.3124,-3.3124,-3.3124,-3.3124,-3.3124,-3.3124,-3.3124,-3.3124,-3.3124,-3.3124,-3.3124,-3.3124,-3.3124,-3.3124,-3.3124,-3.3124,-3.3124,-3.3124,-3.3061,-3.2948,-3.3031,-3.2945,-3.2556,-3.2098,-3.184,-3.1657,-3.1472,-3.1238,-3.1205,-3.1516,-3.1516,-3.1193,-3.0958,-3.1294,-3.1436,-2.9421,-2.7837,-2.7665,-2.7429,-2.6888,-2.6202,-2.5839,-2.5591,-2.48,-2.4489,-2.4219,-2.4072,-2.4131,-2.4111,-2.4238,-2.4219,-2.4062,-2.3906,-2.3838,-3.9697,-3.9697,-3.9697,-3.9697,-3.9697,-3.9697,-3.9697,-3.9697,-3.9697,-3.9697,-3.9697,-3.9697,-3.9697,-3.9697,-3.9697,-3.9697,-3.9685,-3.9496,-3.9132,-3.863,-3.8466,-3.7902,-3.7274,-3.7023,-3.6782,-3.6468,-3.6417,-3.6417,-3.638,-3.6182,-3.5943,-3.547,-3.5157,-3.4625,-3.3972,-3.3721,-3.3483,-3.3162,-3.3124,-3.3124,-3.3124,-3.3124,-3.3124,-3.3124,-3.3124,-3.298,-3.286,-3.2641,-3.2426,-3.2134,-3.2159,-3.2159,-3.2281,-3.2577,-3.2689,-3.2487,-3.2784,-3.3038,-3.2766,-3.2896,-3.3124,-3.3124,-3.3124,-3.3124,-3.3124,-3.3124,-3.3124,-3.3124,-3.3124,-3.3124,-3.3124,-3.3124,-3.3124,-3.3124,-3.3124,-3.3124,-3.3124,-3.3124,-3.3124,-3.3124,-3.3124,-3.3038,-3.2896,-3.2723,-3.255,-3.2257,-3.2069,-3.1937,-3.1749,-3.1705,-3.1705,-3.1705,-3.1705,-3.1705,-3.1705,-3.1661,-3.0582,-2.9218,-2.8861,-2.8147,-2.7581,-2.7113,-2.6769,-2.6178,-2.5379,-2.4881,-2.46,-2.4521,-2.459,-2.4521,-2.4473,-2.4443,-2.4404,-2.4346,-2.4268,-3.9697,-3.9697,-3.9697,-3.9697,-3.9697,-3.9697,-3.9697,-3.9697,-3.9697,-3.9697,-3.9697,-3.9697,-3.9697,-3.9697,-3.9697,-3.9697,-3.9697,-3.9697,-3.9521,-3.9221,-3.8982,-3.8454,-3.7764,-3.7324,-3.7084,-3.6732,-3.6505,-3.6417,-3.6417,-3.6405,-3.6182,-3.5881,-3.5596,-3.5182,-3.4537,-3.4274,-3.3935,-3.347,-3.3395,-3.3325,-3.3162,-3.3124,-3.3124,-3.3124,-3.3124,-3.3124,-3.3124,-3.3124,-3.3124,-3.3124,-3.3124,-3.3124,-3.3124,-3.3111,-3.3124,-3.3124,-3.3124,-3.3124,-3.3124,-3.3081,-3.3124,-3.3124,-3.3124,-3.3124,-3.3124,-3.3124,-3.3124,-3.3124,-3.3124,-3.3124,-3.3124,-3.3124,-3.3124,-3.3124,-3.3124,-3.3124,-3.3124,-3.3124,-3.3124,-3.3124,-3.3124,-3.3038,-3.2896,-3.2723,-3.2593,-3.2288,-3.2113,-3.1981,-3.1837,-3.1749,-3.1705,-3.1705,-3.1705,-3.1705,-3.1705,-3.1617,-3.1415,-3.0765,-3.0181,-2.9085,-2.8118,-2.7593,-2.7191,-2.6335,-2.5525,-2.539,-2.5099,-2.5031,-2.5031,-2.4865,-2.4777,-2.4933,-2.5049,-2.4785,-2.4678,-3.9697,-3.9697,-3.9697,-3.9697,-3.9697,-3.9697,-3.9697,-3.9697,-3.9697,-3.9697,-3.9697,-3.9697,-3.9697,-3.9697,-3.9697,-3.9697,-3.9697,-3.9697,-3.9685,-3.9509,-3.922,-3.8856,-3.8592,-3.7651,-3.7161,-3.7061,-3.6656,-3.643,-3.6417,-3.6417,-3.6417,-3.6304,-3.5868,-3.552,-3.5295,-3.4931,-3.45,-3.4022,-3.3947,-3.3709,-3.335,-3.33,-3.33,-3.3269,-3.3262,-3.3232,-3.3332,-3.3312,-3.3199,-3.3136,-3.3124,-3.3124,-3.3124,-3.3124,-3.3124,-3.3124,-3.3124,-3.3124,-3.3124,-3.3124,-3.3124,-3.3124,-3.3124,-3.3124,-3.3124,-3.3124,-3.3174,-3.3237,-3.325,-3.325,-3.3257,-3.3307,-3.3307,-3.3206,-3.3181,-3.3149,-3.3124,-3.3162,-3.3219,-3.325,-3.3187,-3.3206,-3.3319,-3.309,-3.2953,-3.2704,-3.2455,-3.2291,-3.1937,-3.1849,-3.1749,-3.1717,-3.1717,-3.1705,-3.1705,-3.1661,-3.1516,-3.1371,-3.0958,-3.0158,-2.8901,-2.8308,-2.7804,-2.6856,-2.579,-2.5684,-2.5596,-2.545,-2.5421,-2.5372,-2.543,-2.5645,-2.5518,-2.5244,-2.5107,-3.9697,-3.9697,-3.9697,-3.9697,-3.9697,-3.9697,-3.9697,-3.9697,-3.9697,-3.9697,-3.9697,-3.9697,-3.9697,-3.9697,-3.9697,-3.9697,-3.9697,-3.9697,-3.9697,-3.9672,-3.9572,-3.922,-3.8718,-3.7739,-3.7211,-3.7136,-3.6732,-3.6417,-3.6417,-3.6417,-3.6417,-3.6417,-3.6254,-3.5918,-3.552,-3.5357,-3.4994,-3.4587,-3.45,-3.4449,-3.4299,-3.4236,-3.4286,-3.4216,-3.3897,-3.3897,-3.4173,-3.3897,-3.347,-3.3162,-3.3124,-3.3124,-3.3124,-3.3124,-3.3124,-3.3124,-3.3124,-3.3124,-3.3124,-3.3149,-3.3136,-3.3124,-3.3224,-3.3124,-3.3124,-3.3136,-3.3282,-3.3545,-3.3696,-3.3847,-3.4161,-3.4248,-3.4248,-3.4186,-3.3621,-3.3224,-3.3262,-3.3445,-3.3684,-3.3721,-3.4022,-3.4161,-3.4141,-3.4072,-3.387,-3.3419,-3.313,-3.2879,-3.2487,-3.2208,-3.2204,-3.1834,-3.1741,-3.1717,-3.1705,-3.1705,-3.1661,-3.1649,-3.1472,-3.1294,-3.0125,-2.92,-2.868,-2.8028,-2.6274,-2.5654,-2.5664,-2.5596,-2.5674,-2.5684,-2.5684,-2.5684,-2.5684,-2.5499,-2.5537,-3.9697,-3.9697,-3.9697,-3.9697,-3.9697,-3.9697,-3.9697,-3.9697,-3.9697,-3.9697,-3.9697,-3.9697,-3.9697,-3.9697,-3.9697,-3.9697,-3.9697,-3.9697,-3.9697,-3.9697,-3.9685,-3.9509,-3.9057,-3.8266,-3.7776,-3.7462,-3.696,-3.6656,-3.6455,-3.6417,-3.6417,-3.6417,-3.6417,-3.6194,-3.5943,-3.5881,-3.5571,-3.5132,-3.5019,-3.4931,-3.4705,-3.468,-3.4668,-3.463,-3.4387,-3.4424,-3.4625,-3.4399,-3.3897,-3.3282,-3.3124,-3.3124,-3.3124,-3.3124,-3.3124,-3.3124,-3.3124,-3.3124,-3.3174,-3.3312,-3.3432,-3.3483,-3.3596,-3.3759,-3.3796,-3.3771,-3.396,-3.4186,-3.4248,-3.4412,-3.458,-3.468,-3.468,-3.4613,-3.4148,-3.3771,-3.3771,-3.4073,-3.4223,-3.4336,-3.4512,-3.468,-3.4693,-3.4705,-3.4497,-3.4157,-3.3936,-3.3608,-3.3256,-3.2942,-3.2666,-3.2414,-3.2304,-3.2457,-3.2307,-3.2259,-3.2118,-3.2058,-3.1699,-3.1663,-3.058,-2.9484,-2.8272,-2.7389,-2.6332,-2.5684,-2.5684,-2.5684,-2.5684,-2.5684,-2.5684,-2.5684,-2.5684,-2.5684,-2.5713,-3.9697,-3.9697,-3.9697,-3.9697,-3.9697,-3.9697,-3.9697,-3.9697,-3.9697,-3.9697,-3.9697,-3.9697,-3.9697,-3.9697,-3.9697,-3.9697,-3.9697,-3.9697,-3.9697,-3.9697,-3.9697,-3.9647,-3.9534,-3.8969,-3.8479,-3.8065,-3.7538,-3.6998,-3.6719,-3.6556,-3.6468,-3.643,-3.6417,-3.6417,-3.6317,-3.6355,-3.6081,-3.5683,-3.5583,-3.5441,-3.5152,-3.5102,-3.5115,-3.509,-3.5052,-3.4826,-3.4801,-3.4688,-3.4361,-3.3319,-3.33,-3.34,-3.3375,-3.3338,-3.335,-3.3357,-3.342,-3.3395,-3.3357,-3.3784,-3.3985,-3.4048,-3.4412,-3.4726,-3.4542,-3.4492,-3.46,-3.4756,-3.4813,-3.4901,-3.5027,-3.4977,-3.5027,-3.5077,-3.4939,-3.4901,-3.4889,-3.4806,-3.4768,-3.4826,-3.4839,-3.4901,-3.4901,-3.4889,-3.4843,-3.4773,-3.4549,-3.4321,-3.4024,-3.374,-3.3481,-3.3268,-3.3295,-3.3371,-3.3134,-3.2839,-3.2695,-3.2517,-3.1948,-3.1488,-3.0261,-2.895,-2.7303,-2.6197,-2.6149,-2.5965,-2.5684,-2.5684,-2.5732,-2.5684,-2.5684,-2.5684,-2.5684,-2.5684,-2.5703,-3.9697,-3.9697,-3.9697,-3.9697,-3.9697,-3.9697,-3.9697,-3.9697,-3.9697,-3.9697,-3.9697,-3.9697,-3.9697,-3.9697,-3.9697,-3.9697,-3.9697,-3.9697,-3.9697,-3.9697,-3.9697,-3.9697,-3.9584,-3.9157,-3.8831,-3.853,-3.809,-3.755,-3.7136,-3.6996,-3.6784,-3.648,-3.6443,-3.6417,-3.6417,-3.6405,-3.6367,-3.6194,-3.6169,-3.6081,-3.5968,-3.5952,-3.5952,-3.5952,-3.5977,-3.5504,-3.4977,-3.5094,-3.4981,-3.455,-3.4374,-3.4361,-3.4261,-3.4274,-3.4248,-3.4236,-3.4286,-3.4324,-3.4387,-3.4424,-3.4537,-3.4575,-3.4726,-3.468,-3.468,-3.4801,-3.4931,-3.5194,-3.5332,-3.5529,-3.5818,-3.6028,-3.5906,-3.5855,-3.5893,-3.5977,-3.5977,-3.5617,-3.5357,-3.5395,-3.5705,-3.5981,-3.5968,-3.5893,-3.5755,-3.5433,-3.5199,-3.4982,-3.4719,-3.4504,-3.4232,-3.4029,-3.3912,-3.3926,-3.3654,-3.3344,-3.3116,-3.2913,-3.2398,-3.2038,-3.0752,-2.959,-2.8375,-2.7328,-2.6562,-2.6342,-2.6189,-2.5868,-2.5917,-2.582,-2.5684,-2.5684,-2.5684,-2.5684,-2.5781,-3.9697,-3.9697,-3.9697,-3.9697,-3.9697,-3.9697,-3.9697,-3.9697,-3.9697,-3.9697,-3.9697,-3.9697,-3.9697,-3.9697,-3.9697,-3.9697,-3.9697,-3.9697,-3.9697,-3.9697,-3.9697,-3.9697,-3.9659,-3.9396,-3.9145,-3.8881,-3.8567,-3.8103,-3.7663,-3.7312,-3.701,-3.6782,-3.6556,-3.6417,-3.6417,-3.6417,-3.6417,-3.6392,-3.6417,-3.6417,-3.6417,-3.6417,-3.6417,-3.6417,-3.6405,-3.6065,-3.5617,-3.5768,-3.5755,-3.5567,-3.5479,-3.5215,-3.4801,-3.4693,-3.4693,-3.468,-3.468,-3.468,-3.4693,-3.4919,-3.5069,-3.5056,-3.5328,-3.5466,-3.5491,-3.5491,-3.5604,-3.5843,-3.5943,-3.6069,-3.638,-3.6405,-3.6417,-3.6417,-3.6417,-3.6417,-3.6355,-3.6094,-3.5931,-3.5968,-3.6144,-3.6317,-3.6405,-3.6417,-3.6355,-3.5893,-3.5881,-3.5687,-3.5516,-3.5263,-3.4967,-3.4756,-3.4541,-3.4375,-3.4137,-3.3837,-3.3513,-3.3274,-3.2919,-3.2754,-3.223,-3.1086,-2.9947,-2.8921,-2.7904,-2.7239,-2.7058,-2.6633,-2.611,-2.583,-2.5732,-2.5732,-2.5684,-2.5684,-2.5849,-3.9697,-3.9697,-3.9697,-3.9697,-3.9697,-3.9697,-3.9697,-3.9697,-3.9697,-3.9697,-3.9697,-3.9697,-3.9697,-3.9697,-3.9697,-3.9697,-3.9697,-3.9697,-3.9697,-3.9697,-3.9697,-3.9697,-3.9672,-3.9597,-3.9433,-3.9082,-3.8994,-3.8668,-3.8153,-3.7701,-3.7538,-3.7262,-3.6807,-3.6656,-3.6581,-3.643,-3.6417,-3.6417,-3.6417,-3.6417,-3.6417,-3.6417,-3.6417,-3.6417,-3.6405,-3.6392,-3.6254,-3.6317,-3.6355,-3.6417,-3.6417,-3.5855,-3.5265,-3.4964,-3.4977,-3.5014,-3.5115,-3.5165,-3.524,-3.5441,-3.5621,-3.5633,-3.6031,-3.6329,-3.6329,-3.6267,-3.6267,-3.6317,-3.6342,-3.6342,-3.6417,-3.6417,-3.6417,-3.6417,-3.6417,-3.6417,-3.6417,-3.6417,-3.6355,-3.6367,-3.6355,-3.6392,-3.6417,-3.6417,-3.6417,-3.6417,-3.6405,-3.631,-3.6098,-3.5883,-3.5471,-3.5159,-3.4918,-3.4678,-3.445,-3.4354,-3.403,-3.3814,-3.3515,-3.3527,-3.348,-3.2877,-3.1754,-3.0331,-2.9375,-2.8635,-2.782,-2.7266,-2.6709,-2.612,-2.5732,-2.5684,-2.5684,-2.5684,-2.5947,-3.9697,-3.9697,-3.9697,-3.9697,-3.9697,-3.9697,-3.9697,-3.9697,-3.9697,-3.9697,-3.9697,-3.9697,-3.9697,-3.9697,-3.9697,-3.9697,-3.9697,-3.9697,-3.9697,-3.9697,-3.9697,-3.9697,-3.9697,-3.9697,-3.9622,-3.9609,-3.9496,-3.9195,-3.8831,-3.8655,-3.8253,-3.7826,-3.7324,-3.7061,-3.6923,-3.6681,-3.6493,-3.6493,-3.6455,-3.6417,-3.6417,-3.6417,-3.6417,-3.6417,-3.6417,-3.6417,-3.6417,-3.6417,-3.6417,-3.6417,-3.6417,-3.6292,-3.6078,-3.6015,-3.6015,-3.599,-3.5965,-3.5881,-3.5943,-3.6128,-3.6254,-3.6292,-3.6355,-3.6405,-3.6417,-3.6417,-3.6417,-3.6417,-3.6417,-3.6417,-3.6417,-3.6468,-3.6443,-3.643,-3.6531,-3.6531,-3.6518,-3.6493,-3.6505,-3.6531,-3.648,-3.6417,-3.6417,-3.637,-3.637,-3.6323,-3.631,-3.6181,-3.5968,-3.5872,-3.5667,-3.5403,-3.5174,-3.4957,-3.4751,-3.4715,-3.4571,-3.4499,-3.4318,-3.4378,-3.4366,-3.4462,-3.3633,-3.2241,-3.0788,-2.9697,-2.8901,-2.8132,-2.7506,-2.6972,-2.6376,-2.5781,-2.5879,-2.6035,-2.5908,-3.9697,-3.9697,-3.9697,-3.9697,-3.9697,-3.9697,-3.9697,-3.9697,-3.9697,-3.9697,-3.9697,-3.9697,-3.9697,-3.9697,-3.9697,-3.9697,-3.9697,-3.9697,-3.9697,-3.9697,-3.9697,-3.9697,-3.9697,-3.9697,-3.9697,-3.9697,-3.9672,-3.9584,-3.9283,-3.8969,-3.8793,-3.8404,-3.7889,-3.7613,-3.7487,-3.7086,-3.6883,-3.6795,-3.6593,-3.6443,-3.6417,-3.6417,-3.6417,-3.6417,-3.6417,-3.6417,-3.6417,-3.6417,-3.6417,-3.6417,-3.6417,-3.6417,-3.6417,-3.6417,-3.6417,-3.6417,-3.6417,-3.6417,-3.6417,-3.6417,-3.6392,-3.6405,-3.6417,-3.6417,-3.6417,-3.6417,-3.6468,-3.6443,-3.6417,-3.6417,-3.6417,-3.6669,-3.6807,-3.6847,-3.6998,-3.7149,-3.7123,-3.6935,-3.6883,-3.6782,-3.6593,-3.6505,-3.6358,-3.6323,-3.6275,-3.6275,-3.6275,-3.6051,-3.5824,-3.5716,-3.562,-3.532,-3.503,-3.4969,-3.4823,-3.4823,-3.4775,-3.4775,-3.4787,-3.4859,-3.4907,-3.4847,-3.4797,-3.413,-3.2698,-3.0953,-3.0116,-2.9449,-2.8646,-2.7813,-2.7051,-2.6496,-2.6416,-2.6356,-2.6299,-3.9697,-3.9697,-3.9697,-3.9697,-3.9697,-3.9697,-3.9697,-3.9697,-3.9697,-3.9697,-3.9697,-3.9697,-3.9697,-3.9697,-3.9697,-3.9697,-3.9697,-3.9697,-3.9697,-3.9697,-3.9697,-3.9697,-3.9697,-3.9697,-3.9697,-3.9697,-3.9697,-3.9697,-3.9572,-3.9295,-3.9145,-3.8881,-3.8467,-3.8178,-3.8078,-3.7626,-3.7425,-3.7211,-3.7008,-3.6732,-3.6593,-3.6468,-3.6417,-3.6417,-3.6417,-3.6417,-3.6417,-3.6417,-3.6417,-3.6417,-3.6417,-3.6417,-3.6417,-3.6417,-3.6417,-3.6417,-3.6417,-3.6417,-3.6417,-3.6417,-3.6417,-3.6417,-3.6531,-3.6581,-3.6669,-3.6782,-3.6832,-3.6744,-3.6795,-3.6845,-3.691,-3.7147,-3.7299,-3.7412,-3.7688,-3.7939,-3.7776,-3.7588,-3.7387,-3.7161,-3.6832,-3.6558,-3.6483,-3.6323,-3.6323,-3.6146,-3.6146,-3.5847,-3.562,-3.5524,-3.5368,-3.5066,-3.4823,-3.4823,-3.4823,-3.4823,-3.4775,-3.4775,-3.4799,-3.4847,-3.4931,-3.4979,-3.4953,-3.4902,-3.3898,-3.2267,-3.1517,-3.0577,-2.9537,-2.8582,-2.7703,-2.7086,-2.6828,-2.6758,-2.6719,-3.9697,-3.9697,-3.9697,-3.9697,-3.9697,-3.9697,-3.9697,-3.9697,-3.9697,-3.9697,-3.9697,-3.9645,-3.9581,-3.9594,-3.9685,-3.9697,-3.9697,-3.9697,-3.9697,-3.9697,-3.9697,-3.9697,-3.9697,-3.9697,-3.9697,-3.9697,-3.9697,-3.9697,-3.9659,-3.9584,-3.9559,-3.9421,-3.9044,-3.8818,-3.8705,-3.8203,-3.7927,-3.7902,-3.7814,-3.7538,-3.7098,-3.6719,-3.6556,-3.6518,-3.6531,-3.6568,-3.6619,-3.6631,-3.6593,-3.6531,-3.6468,-3.643,-3.6417,-3.6417,-3.6417,-3.6417,-3.6417,-3.6417,-3.648,-3.6581,-3.6619,-3.6719,-3.686,-3.7036,-3.7161,-3.7412,-3.7626,-3.7801,-3.7751,-3.7663,-3.76,-3.7826,-3.7902,-3.7965,-3.8128,-3.8191,-3.8103,-3.814,-3.7939,-3.7739,-3.7412,-3.6983,-3.6646,-3.6496,-3.6275,-3.6146,-3.5968,-3.5681,-3.5428,-3.532,-3.5223,-3.492,-3.4775,-3.4775,-3.4775,-3.4775,-3.4775,-3.4775,-3.4799,-3.4847,-3.5003,-3.516,-3.5208,-3.4924,-3.4111,-3.3653,-3.3038,-3.1937,-3.0482,-2.9508,-2.8808,-2.7918,-2.7002,-2.706,-2.7353,-3.9697,-3.9697,-3.9697,-3.9697,-3.9697,-3.9697,-3.9697,-3.9697,-3.9697,-3.9697,-3.9517,-3.8921,-3.8659,-3.8764,-3.931,-3.9697,-3.9697,-3.9697,-3.9697,-3.9697,-3.9697,-3.9697,-3.9697,-3.9697,-3.9697,-3.9697,-3.9697,-3.9697,-3.9697,-3.9697,-3.9697,-3.9659,-3.9471,-3.9333,-3.9233,-3.8768,-3.8555,-3.8391,-3.8178,-3.7889,-3.7651,-3.7425,-3.7274,-3.7274,-3.7262,-3.7236,-3.7236,-3.7299,-3.7299,-3.7236,-3.7061,-3.7059,-3.7111,-3.7073,-3.6948,-3.7312,-3.7312,-3.7174,-3.6935,-3.7123,-3.7186,-3.7287,-3.75,-3.7638,-3.7701,-3.7877,-3.804,-3.799,-3.799,-3.8027,-3.814,-3.8316,-3.8442,-3.8542,-3.8668,-3.8806,-3.8768,-3.8555,-3.8454,-3.8241,-3.8027,-3.7575,-3.7111,-3.6689,-3.6468,-3.6274,-3.5997,-3.5695,-3.5393,-3.5078,-3.4969,-3.4872,-3.4775,-3.4775,-3.4775,-3.4775,-3.4775,-3.4775,-3.4775,-3.4871,-3.5172,-3.5292,-3.5256,-3.522,-3.478,-3.4457,-3.4293,-3.2879,-3.1046,-3.0422,-2.996,-2.8906,-2.7969,-2.8369,-2.8564,-3.9697,-3.9697,-3.9697,-3.9697,-3.9697,-3.9697,-3.9697,-3.9697,-3.9697,-3.953,-3.8985,-3.8056,-3.7512,-3.7779,-3.8594,-3.9141,-3.9206,-3.953,-3.9697,-3.9697,-3.9697,-3.9697,-3.9697,-3.9697,-3.9697,-3.9697,-3.9697,-3.9697,-3.9697,-3.9697,-3.9697,-3.9697,-3.9647,-3.9647,-3.9572,-3.9308,-3.9069,-3.9019,-3.8542,-3.8291,-3.8191,-3.8027,-3.7952,-3.7952,-3.799,-3.8002,-3.8002,-3.7952,-3.7952,-3.7852,-3.7613,-3.7563,-3.7751,-3.7575,-3.7538,-3.7839,-3.7977,-3.8015,-3.7789,-3.7814,-3.799,-3.8052,-3.8228,-3.8304,-3.8479,-3.8429,-3.8442,-3.8567,-3.8555,-3.8517,-3.8517,-3.8881,-3.8994,-3.9182,-3.9346,-3.9559,-3.9634,-3.9233,-3.8994,-3.8894,-3.8668,-3.8354,-3.7802,-3.7067,-3.6708,-3.6391,-3.6098,-3.5782,-3.543,-3.515,-3.5016,-3.498,-3.4835,-3.4835,-3.4823,-3.4811,-3.4799,-3.4859,-3.4859,-3.4847,-3.5063,-3.5172,-3.5136,-3.51,-3.5124,-3.492,-3.4598,-3.3038,-3.156,-3.0948,-3.0327,-2.9639,-2.917,-2.9482,-2.9558,-3.9697,-3.9697,-3.9697,-3.9697,-3.9697,-3.9697,-3.9697,-3.9697,-3.9697,-3.9037,-3.7938,-3.6954,-3.6457,-3.6673,-3.7554,-3.8214,-3.8161,-3.9206,-3.9594,-3.9697,-3.9697,-3.9697,-3.9697,-3.9697,-3.9697,-3.9697,-3.9697,-3.9697,-3.9697,-3.9697,-3.9697,-3.9697,-3.9697,-3.9697,-3.9672,-3.9572,-3.9509,-3.9421,-3.9044,-3.8831,-3.868,-3.8442,-3.8165,-3.8128,-3.8078,-3.8015,-3.8027,-3.8153,-3.8216,-3.8228,-3.8052,-3.8078,-3.8228,-3.8065,-3.8078,-3.8316,-3.8617,-3.8693,-3.8642,-3.8366,-3.809,-3.8203,-3.8504,-3.8956,-3.922,-3.9459,-3.9534,-3.9383,-3.9258,-3.9358,-3.9433,-3.9597,-3.9496,-3.9521,-3.9584,-3.9622,-3.9697,-3.9659,-3.9459,-3.9484,-3.927,-3.8919,-3.8743,-3.8104,-3.7331,-3.6986,-3.6628,-3.6308,-3.5865,-3.5582,-3.5304,-3.5196,-3.4979,-3.4919,-3.4956,-3.5028,-3.5256,-3.5255,-3.5243,-3.5063,-3.4955,-3.4979,-3.5184,-3.5148,-3.5195,-3.5053,-3.4644,-3.2994,-3.1735,-3.1228,-3.0642,-2.9724,-2.9365,-2.9453,-2.9587,-3.9697,-3.9697,-3.9697,-3.9697,-3.9697,-3.9697,-3.9697,-3.9697,-3.9697,-3.8594,-3.6792,-3.6348,-3.5815,-3.5827,-3.7126,-3.7885,-3.8108,-3.9141,-3.9581,-3.9697,-3.9697,-3.9697,-3.9697,-3.9645,-3.9697,-3.9645,-3.9697,-3.9697,-3.9697,-3.9697,-3.9697,-3.9697,-3.9697,-3.9594,-3.953,-3.9633,-3.9697,-3.9659,-3.9509,-3.9383,-3.9333,-3.9233,-3.9044,-3.9057,-3.9044,-3.9044,-3.9069,-3.9057,-3.9057,-3.8944,-3.868,-3.873,-3.8831,-3.8668,-3.8693,-3.8894,-3.9207,-3.9295,-3.9333,-3.912,-3.9044,-3.9069,-3.9283,-3.9459,-3.9672,-3.9697,-3.9697,-3.9672,-3.9697,-3.9697,-3.9685,-3.9672,-3.9659,-3.9685,-3.9697,-3.9697,-3.9697,-3.9697,-3.9685,-3.9597,-3.9559,-3.9408,-3.9295,-3.9182,-3.8341,-3.7655,-3.7193,-3.6805,-3.6345,-3.6062,-3.5857,-3.5689,-3.5545,-3.5569,-3.5569,-3.5665,-3.5761,-3.5713,-3.5677,-3.5483,-3.5315,-3.5291,-3.5449,-3.5376,-3.5183,-3.498,-3.4233,-3.2814,-3.1852,-3.1386,-3.0572,-2.9648,-2.9443,-2.9518,-2.9512,-3.9697,-3.9697,-3.9697,-3.9697,-3.9697,-3.9697,-3.949,-3.9206,-3.9141,-3.7832,-3.5706,-3.5322,-3.4792,-3.4736,-3.6317,-3.7287,-3.7725,-3.8816,-3.953,-3.9697,-3.9697,-3.9478,-3.9426,-3.9426,-3.9478,-3.9413,-3.9645,-3.9697,-3.9697,-3.9645,-3.9594,-3.953,-3.9569,-3.9478,-3.953,-3.9594,-3.9697,-3.9697,-3.9697,-3.9697,-3.9685,-3.9647,-3.9634,-3.9622,-3.9584,-3.9572,-3.9559,-3.9534,-3.9572,-3.9471,-3.9358,-3.9346,-3.9396,-3.9433,-3.9383,-3.9546,-3.9697,-3.9697,-3.9697,-3.9697,-3.9685,-3.9572,-3.9597,-3.9659,-3.9697,-3.9697,-3.9697,-3.9697,-3.9697,-3.9697,-3.9697,-3.9697,-3.9697,-3.9697,-3.9697,-3.9697,-3.9697,-3.9697,-3.9697,-3.9672,-3.9647,-3.9609,-3.9572,-3.942,-3.8938,-3.8209,-3.7927,-3.7385,-3.6814,-3.6579,-3.6471,-3.6314,-3.6182,-3.6266,-3.6362,-3.6242,-3.6134,-3.6098,-3.6062,-3.605,-3.5942,-3.5893,-3.5821,-3.5797,-3.5531,-3.4987,-3.4141,-3.3067,-3.2281,-3.1518,-3.0455,-2.9228,-2.9567,-2.9577,-2.9541,-3.9697,-3.9697,-3.9697,-3.9697,-3.9697,-3.9697,-3.9037,-3.8108,-3.7832,-3.6642,-3.4692,-3.3604,-3.3048,-3.3434,-3.5498,-3.6468,-3.7007,-3.8647,-3.9697,-3.9697,-3.9697,-3.905,-3.8816,-3.8921,-3.9206,-3.8477,-3.9037,-3.9697,-3.9697,-3.9478,-3.9374,-3.9438,-3.9478,-3.9478,-3.9685,-3.9697,-3.9697,-3.9697,-3.9697,-3.9697,-3.9697,-3.9697,-3.9697,-3.9697,-3.9697,-3.9697,-3.9697,-3.9697,-3.9697,-3.9647,-3.9622,-3.9609,-3.9622,-3.9634,-3.9622,-3.9672,-3.9697,-3.9697,-3.9697,-3.9697,-3.9697,-3.9697,-3.9697,-3.9697,-3.9697,-3.9697,-3.9697,-3.9697,-3.9697,-3.9697,-3.9697,-3.9697,-3.9697,-3.9697,-3.9697,-3.9697,-3.9697,-3.9697,-3.9697,-3.9645,-3.9685,-3.9685,-3.9633,-3.9556,-3.9233,-3.8822,-3.8518,-3.8024,-3.7328,-3.7132,-3.7048,-3.6988,-3.6879,-3.6867,-3.6879,-3.6639,-3.6507,-3.6471,-3.6519,-3.6591,-3.6531,-3.6423,-3.6338,-3.6242,-3.5927,-3.5491,-3.4581,-3.3579,-3.2638,-3.1529,-2.99,-2.8975,-2.9316,-2.9453,-2.9307,-3.9697,-3.9697,-3.9697,-3.9697,-3.9581,-3.8816,-3.8267,-3.7672,-3.6371,-3.5179,-3.4368,-3.3229,-3.2669,-3.3434,-3.4947,-3.624,-3.6684,-3.8542,-3.9697,-3.9697,-3.9697,-3.8933,-3.8594,-3.8868,-3.9025,-3.8542,-3.9037,-3.9697,-3.9697,-3.9374,-3.9426,-3.953,-3.954,-3.9594,-3.9697,-3.9697,-3.9697,-3.9697,-3.9697,-3.9697,-3.9697,-3.9697,-3.9697,-3.9697,-3.9697,-3.9697,-3.9697,-3.9697,-3.9697,-3.9697,-3.9697,-3.9697,-3.9697,-3.9697,-3.9697,-3.9697,-3.9697,-3.9697,-3.9697,-3.9697,-3.9697,-3.9697,-3.9697,-3.9697,-3.9697,-3.9697,-3.9697,-3.9747,-3.9835,-3.981,-3.9697,-3.971,-3.971,-3.9697,-3.9697,-3.9697,-3.9697,-3.9697,-3.9697,-3.9633,-3.9581,-3.9362,-3.9258,-3.927,-3.905,-3.8893,-3.8566,-3.8303,-3.7766,-3.7726,-3.7649,-3.7649,-3.7589,-3.7529,-3.7421,-3.7192,-3.7156,-3.7216,-3.7276,-3.7348,-3.7216,-3.6976,-3.6759,-3.6603,-3.6312,-3.5958,-3.5254,-3.431,-3.2775,-3.1411,-3.0169,-2.8972,-2.8769,-2.8799,-2.8652,-3.9697,-3.9697,-3.9697,-3.9413,-3.8985,-3.8214,-3.7512,-3.6545,-3.4747,-3.3875,-3.366,-3.3012,-3.3012,-3.3818,-3.5168,-3.6565,-3.6954,-3.8712,-3.9697,-3.9697,-3.9697,-3.8933,-3.8659,-3.8933,-3.8868,-3.8542,-3.8881,-3.953,-3.9478,-3.9154,-3.9102,-3.9308,-3.9678,-3.9907,-3.9921,-3.9885,-3.9697,-3.9697,-3.9697,-3.9697,-3.9697,-3.9697,-3.9697,-3.9697,-3.9697,-3.9697,-3.9697,-3.9697,-3.9697,-3.9697,-3.9697,-3.9697,-3.9697,-3.9697,-3.9697,-3.9697,-3.9697,-3.9697,-3.9697,-3.9697,-3.9697,-3.9697,-3.9697,-3.9697,-3.976,-3.9898,-3.9998,-4.0049,-4.0111,-4.0212,-4.0224,-4.0187,-4.0174,-4.0187,-4.0199,-4.0224,-4.0011,-4.0036,-3.986,-3.9731,-3.9478,-3.9218,-3.8945,-3.8841,-3.8788,-3.8684,-3.8514,-3.8303,-3.808,-3.8027,-3.7974,-3.795,-3.7938,-3.7817,-3.7781,-3.7769,-3.7793,-3.7938,-3.789,-3.7793,-3.7733,-3.7457,-3.7216,-3.6988,-3.6831,-3.6537,-3.6096,-3.5133,-3.37,-3.2365,-3.1061,-2.985,-2.8593,-2.8389,-2.8476,-3.9697,-3.9697,-3.9697,-3.9089,-3.8108,-3.8003,-3.6696,-3.4525,-3.3275,-3.2851,-3.2841,-3.3001,-3.3388,-3.4525,-3.5761,-3.6846,-3.7779,-3.9089,-3.953,-3.9697,-3.9633,-3.8764,-3.8489,-3.8933,-3.8594,-3.8489,-3.8764,-3.9374,-3.927,-3.9053,-3.8936,-3.9115,-3.9839,-4.0199,-4.0242,-4.0185,-4.0049,-4.0074,-4.0074,-4.0099,-4.0111,-3.9885,-3.9885,-3.9848,-3.9772,-3.971,-3.9697,-3.9697,-3.9697,-3.9697,-3.9697,-3.9697,-3.9697,-3.9697,-3.9697,-3.9697,-3.9697,-3.9697,-3.971,-3.9722,-3.9835,-3.9898,-3.991,-3.9798,-3.9923,-4.0262,-4.0488,-4.0651,-4.0777,-4.0962,-4.1125,-4.1075,-4.1037,-4.105,-4.105,-4.0874,-4.0614,-4.036,-4.0122,-3.9894,-3.9565,-3.9283,-3.8998,-3.8841,-3.8636,-3.8421,-3.8303,-3.825,-3.808,-3.8027,-3.7974,-3.7974,-3.7962,-3.7962,-3.7974,-3.7974,-3.7974,-3.7974,-3.7974,-3.7902,-3.789,-3.7878,-3.7661,-3.7469,-3.7372,-3.7036,-3.6341,-3.5602,-3.4646,-3.3301,-3.1535,-3.0799,-2.9547,-2.8908,-2.8828,-3.9697,-3.9697,-3.9697,-3.9478,-3.9089,-3.8214,-3.6588,-3.4469,-3.3229,-3.3115,-3.3987,-3.3987,-3.4089,-3.4647,-3.648,-3.7394,-3.8214,-3.8985,-3.9374,-3.953,-3.953,-3.8173,-3.7962,-3.8502,-3.8161,-3.7991,-3.8279,-3.9283,-3.9318,-3.9136,-3.9062,-3.9291,-4.0133,-4.06,-4.0773,-4.0846,-4.0849,-4.0761,-4.0749,-4.0648,-4.0561,-4.0385,-4.035,-4.0237,-3.9973,-3.9885,-3.9785,-3.981,-3.9798,-3.9697,-3.9697,-3.9697,-3.9697,-3.9697,-3.9697,-3.9697,-3.9697,-3.971,-3.976,-4.0061,-4.0275,-4.0388,-4.0601,-4.0563,-4.0588,-4.0752,-4.1037,-4.1216,-4.1367,-4.158,-4.1589,-4.1576,-4.1564,-4.1522,-4.151,-4.1293,-4.098,-4.0664,-4.0427,-4.0006,-3.9718,-3.9306,-3.9046,-3.8745,-3.85,-3.8253,-3.8128,-3.8188,-3.8063,-3.8063,-3.7974,-3.7974,-3.7974,-3.7974,-3.7974,-3.7974,-3.7974,-3.7974,-3.7974,-3.7974,-3.795,-3.7938,-3.7962,-3.7878,-3.7685,-3.7121,-3.6363,-3.5676,-3.5085,-3.3236,-3.1594,-3.1117,-3.0595,-2.9914,-2.9489,-3.9697,-3.9697,-3.9697,-3.9141,-3.8031,-3.7007,-3.5608,-3.4302,-3.3649,-3.3875,-3.4368,-3.3931,-3.4312,-3.5333,-3.6576,-3.7394,-3.7991,-3.9089,-3.9581,-3.9426,-3.9426,-3.8671,-3.8344,-3.8502,-3.8712,-3.8332,-3.8332,-3.9062,-3.9183,-3.9234,-3.9206,-3.963,-4.0512,-4.0928,-4.1258,-4.1571,-4.1818,-4.1697,-4.1497,-4.1309,-4.1109,-4.0934,-4.0808,-4.0724,-4.0438,-4.0262,-4.0074,-4.0136,-4.0136,-3.9873,-3.981,-3.9885,-3.9798,-3.9697,-3.9898,-3.9948,-4.0061,-4.0237,-4.0438,-4.0664,-4.0802,-4.099,-4.1329,-4.1417,-4.1404,-4.1505,-4.1618,-4.1706,-4.1894,-4.2032,-4.202,-4.1952,-4.191,-4.1813,-4.1751,-4.1646,-4.133,-4.1002,-4.0633,-4.0211,-3.98,-3.936,-3.8982,-3.8707,-3.8647,-3.8821,-3.8797,-3.8701,-3.846,-3.8106,-3.8034,-3.7974,-3.7974,-3.7974,-3.7974,-3.7974,-3.7974,-3.7974,-3.7974,-3.7974,-3.7974,-3.7974,-3.7974,-3.7974,-3.795,-3.721,-3.6279,-3.6013,-3.5296,-3.3375,-3.1992,-3.1762,-3.1284,-3.0578,-3.0315,-3.9697,-3.9697,-3.9569,-3.7926,-3.5617,-3.4947,-3.4402,-3.3955,-3.4134,-3.4536,-3.448,-3.3547,-3.4346,-3.5749,-3.6565,-3.7126,-3.7885,-3.8868,-3.931,-3.9218,-3.9206,-3.8724,-3.8514,-3.9102,-3.8816,-3.9062,-3.9238,-3.9042,-3.8933,-3.9109,-3.9479,-4.0031,-4.0665,-4.12,-4.1676,-4.2103,-4.2301,-4.2313,-4.1821,-4.135,-4.1455,-4.1264,-4.1068,-4.1326,-4.1175,-4.1025,-4.0774,-4.0802,-4.0877,-4.0375,-4.0174,-4.0312,-4.0136,-3.9998,-4.0249,-4.0348,-4.0498,-4.0633,-4.0909,-4.1146,-4.1247,-4.1459,-4.1882,-4.2082,-4.2145,-4.2145,-4.2195,-4.2246,-4.2409,-4.2399,-4.2411,-4.2467,-4.2424,-4.2257,-4.2066,-4.1923,-4.1626,-4.1194,-4.0715,-4.0293,-3.9909,-3.9546,-3.9546,-3.9268,-3.908,-3.9381,-3.9381,-3.9188,-3.8984,-3.8527,-3.8238,-3.8118,-3.7986,-3.7986,-3.7974,-3.7974,-3.7974,-3.7974,-3.7974,-3.7974,-3.7974,-3.7974,-3.7974,-3.7974,-3.7974,-3.7042,-3.6283,-3.5756,-3.4891,-3.3436,-3.2421,-3.2405,-3.1933,-3.1102,-3.0924,-3.9697,-3.9581,-3.8518,-3.6487,-3.4292,-3.4803,-3.4157,-3.2856,-3.3741,-3.4725,-3.5542,-3.5432,-3.5366,-3.5793,-3.6727,-3.7245,-3.7512,-3.8502,-3.8776,-3.8841,-3.8841,-3.8514,-3.7868,-3.8566,-3.8502,-3.8265,-3.8441,-3.9187,-3.9389,-3.9503,-3.9681,-4.0366,-4.0938,-4.1553,-4.1928,-4.2356,-4.25,-4.2588,-4.2128,-4.1898,-4.2175,-4.1901,-4.1616,-4.171,-4.1626,-4.1309,-4.1134,-4.1188,-4.1188,-4.0987,-4.1012,-4.1053,-4.0965,-4.0874,-4.0937,-4.105,-4.0873,-4.0956,-4.1222,-4.1496,-4.1604,-4.1876,-4.2206,-4.2579,-4.2828,-4.2828,-4.2828,-4.2866,-4.2848,-4.2812,-4.275,-4.2874,-4.2818,-4.2594,-4.2312,-4.2088,-4.1864,-4.1372,-4.0788,-4.0458,-4.0049,-3.9946,-4.0013,-3.9878,-3.9664,-3.9597,-3.9573,-3.9501,-3.9513,-3.9212,-3.8707,-3.8479,-3.8094,-3.8022,-3.7986,-3.7974,-3.7974,-3.7974,-3.7974,-3.7974,-3.7974,-3.7974,-3.7974,-3.7974,-3.7802,-3.6665,-3.5674,-3.4925,-3.3968,-3.2721,-3.2133,-3.1885,-3.1854,-3.1181,-3.128,-3.8879,-3.8372,-3.7091,-3.5277,-3.3733,-3.4303,-3.3607,-3.2352,-3.3346,-3.438,-3.4969,-3.5146,-3.5311,-3.5617,-3.6792,-3.7245,-3.7311,-3.8291,-3.8566,-3.8579,-3.8473,-3.8198,-3.8092,-3.8222,-3.8344,-3.8212,-3.8724,-3.9394,-3.9881,-4.0006,-4.0222,-4.0736,-4.1338,-4.172,-4.2041,-4.2256,-4.2356,-4.2457,-4.2073,-4.2187,-4.2594,-4.2184,-4.1898,-4.1997,-4.197,-4.1616,-4.1462,-4.1395,-4.1295,-4.1072,-4.0806,-4.0806,-4.0757,-4.0744,-4.0997,-4.1129,-4.1186,-4.126,-4.1538,-4.1749,-4.1973,-4.2221,-4.2531,-4.2886,-4.2731,-4.2718,-4.2886,-4.2911,-4.2911,-4.2918,-4.2806,-4.2874,-4.2606,-4.2324,-4.2029,-4.1797,-4.1578,-4.125,-4.0987,-4.0858,-4.0656,-4.06,-4.0668,-4.0668,-4.0451,-4.0451,-4.0331,-4.0054,-4.003,-3.9922,-3.9405,-3.896,-3.8635,-3.8178,-3.7986,-3.7974,-3.7974,-3.7974,-3.8082,-3.801,-3.8022,-3.7998,-3.7974,-3.759,-3.6935,-3.5838,-3.4891,-3.4112,-3.2995,-3.1777,-3.1354,-3.1054,-3.1143,-3.1289,-3.124,-3.7794,-3.6715,-3.5683,-3.4303,-3.3031,-3.3335,-3.2721,-3.172,-3.2949,-3.3427,-3.336,-3.3776,-3.438,-3.5421,-3.6251,-3.6696,-3.7257,-3.808,-3.8356,-3.8356,-3.8356,-3.8145,-3.8193,-3.8412,-3.8643,-3.8873,-3.9279,-3.9878,-4.0475,-4.0427,-4.0535,-4.1109,-4.1459,-4.172,-4.1972,-4.2041,-4.2086,-4.213,-4.196,-4.1789,-4.1915,-4.2041,-4.2037,-4.2162,-4.2219,-4.2053,-4.1749,-4.1594,-4.1434,-4.1201,-4.0912,-4.0936,-4.0948,-4.1053,-4.1133,-4.1355,-4.1385,-4.1638,-4.1984,-4.2183,-4.2338,-4.2513,-4.2806,-4.2862,-4.2694,-4.275,-4.2918,-4.2986,-4.2986,-4.293,-4.2874,-4.2762,-4.2494,-4.2041,-4.1745,-4.1561,-4.1332,-4.1206,-4.1182,-4.1157,-4.1157,-4.11,-4.11,-4.1124,-4.1148,-4.1172,-4.1088,-4.086,-4.0631,-4.0463,-4.0138,-3.9741,-3.9393,-3.8888,-3.8383,-3.8178,-3.825,-3.8407,-3.8515,-3.8262,-3.8118,-3.8238,-3.7816,-3.6665,-3.5904,-3.5256,-3.4134,-3.3176,-3.2008,-3.1112,-3.1015,-3.0918,-3.0947,-3.1055,-3.0986,-3.7061,-3.5311,-3.509,-3.3596,-3.1556,-3.1498,-3.1383,-3.1392,-3.1662,-3.1767,-3.2045,-3.2949,-3.3888,-3.4969,-3.5113,-3.5783,-3.7,-3.7814,-3.808,-3.808,-3.8133,-3.808,-3.8261,-3.8688,-3.9273,-3.9618,-3.9799,-4.0134,-4.0715,-4.0607,-4.0655,-4.1206,-4.1242,-4.1447,-4.1663,-4.1732,-4.1789,-4.1777,-4.1732,-4.1561,-4.1459,-4.1631,-4.1859,-4.2029,-4.2155,-4.2093,-4.2012,-4.2049,-4.1975,-4.1864,-4.1648,-4.1543,-4.1506,-4.147,-4.1592,-4.148,-4.1533,-4.1582,-4.1854,-4.2073,-4.2142,-4.2268,-4.2594,-4.2918,-4.2862,-4.2862,-4.2974,-4.2974,-4.2918,-4.2806,-4.275,-4.275,-4.2538,-4.1915,-4.1504,-4.1344,-4.123,-4.1172,-4.116,-4.116,-4.116,-4.1148,-4.116,-4.116,-4.116,-4.1184,-4.1184,-4.0992,-4.0968,-4.0896,-4.0787,-4.0463,-4.009,-3.9813,-3.9405,-3.8803,-3.8755,-3.8912,-3.8972,-3.8767,-3.8647,-3.8647,-3.7956,-3.659,-3.5788,-3.5202,-3.4009,-3.2377,-3.1903,-3.117,-3.1005,-3.0898,-3.0898,-3.0898,-3.0898]},{"header":{"parameterUnit":"m.s-1","parameterCategory":1,"la1":31.0,"la2":29.5877,"lo1":-88.7671,"lo2":-86.6584,"dy":0.0162,"dx":0.0185,"nx":115,"ny":88,"refTime":"2026-04-20T12:00:00:Z","depth":0,"parameterNumber":3,"parameterNumberName":"V-component_of_WINDS"},"data":[0.0,0.0,0.0,0.0,0.0,0.0,0.0,0.0,0.0,0.0,0.0,0.0,0.0,0.0,0.0,0.0,0.0,0.0,0.0,0.0,0.0,0.0,0.0,0.0,0.0,0.0,0.0,0.0,0.0,0.0,0.0,0.0,0.0,0.0,0.0,0.0,0.0,0.0,0.0,0.0,0.0,0.0,0.0,0.0,0.0,0.0,0.0,0.0,0.0,0.0,0.0,0.0,0.0,0.0,0.0,0.0,0.0,0.0,0.0,0.0,0.0,0.0,0.0,0.0,0.0,0.0,0.0,0.0,0.0,0.0,0.0,0.0,0.0,0.0,0.0,0.0,0.0,0.0,0.0,0.0,0.0,0.0,0.0,0.0,0.0,0.0,0.0,0.0,0.0,0.0,0.0,0.0,0.0,0.0,0.0,0.0,0.0,0.0,0.0,0.0,0.0,0.0,0.0,0.0,0.0,0.0,0.0,0.0,0.0,0.0,0.0,0.0,0.0,0.0,0.0,0.0,0.0,0.0,0.0,0.0,0.0,0.0,0.0,0.0,0.0,0.0,0.0,0.0,0.0,0.0,0.0,0.0,0.0,0.0,0.0,0.0,0.0,0.0,0.0,0.0,0.0,0.0,0.0,0.0,0.0,0.0,0.0,0.0,0.0,0.0,0.0,0.0,0.0,0.0,0.0,0.0,0.0,0.0,0.0,0.0,0.0,0.0,0.0,0.0,0.0,0.0,0.0,0.0,0.0,0.0,0.0,0.0,0.0,0.0,0.0,0.0,0.0,0.0,0.0,0.0,0.0,0.0,0.0,0.0,0.0,0.0,0.0,0.0,0.0,0.0,0.0,0.0,0.0,0.0,0.0,0.0,0.0,0.0,0.0,0.0,0.0,0.0,0.0,0.0,0.0,0.0,0.0,0.0,0.0,0.0,0.0,0.0,0.0,0.0,0.0,0.0,0.0,0.0,0.0,0.0,0.0,0.0,0.0,0.0,0.0,0.0,0.0,0.0,0.0,0.0,0.0,0.0,0.0,0.0,0.0,0.0,0.0,0.0,0.0,0.0,0.0,0.0,0.0,0.0,0.0,0.0,0.0,0.0,0.0,0.0,0.0,0.0,0.0,0.0,0.0,0.0,0.0,0.0,0.0,0.0,0.0,0.0,0.0,0.0,0.0,0.0,0.0,0.0,0.0,0.0,0.0,0.0,0.0,0.0,0.0,0.0,0.0,0.0,0.0,0.0,0.0,0.0,0.0,0.0,0.0,0.0,0.0,0.0,0.0,0.0,0.0,0.0,0.0,0.0,0.0,0.0,0.0,0.0,0.0,0.0,0.0,0.0,0.0,0.0,0.0,0.0,0.0,0.0,0.0,0.0,0.0,0.0,0.0,0.0,0.0,0.0,0.0,0.0,0.0,0.0,0.0,0.0,0.0,0.0,0.0,0.0,0.0,0.0,0.0,0.0,0.0,0.0,0.0,0.0,0.0,0.0,0.0,0.0,0.0,0.0,0.0,0.0,0.0,0.0,0.0,0.0,0.0,0.0,0.0,0.0,0.0,0.0,0.0,0.0,0.0,0.0,0.0,0.0,0.0,0.0,0.0,0.0,0.0,0.0,0.0,0.0,0.0,0.0,0.0,0.0,0.0,0.0,0.0,0.0,0.0,0.0,0.0,0.0,0.0,0.0,0.0,0.0,0.0,0.0,0.0,0.0,0.0,0.0,0.0,0.0,0.0,0.0,0.0,0.0,0.0,0.0,0.0,0.0,0.0,0.0,0.0,0.0,0.0,0.0,0.0,0.0,0.0,0.0,0.0,0.0,0.0,0.0,0.0,0.0,0.0,0.0,0.0,0.0,0.0,0.0,0.0,0.0,0.0,0.0,0.0,0.0,0.0,0.0,0.0,0.0,0.0,0.0,0.0,0.0,0.0,0.0,0.0,0.0,0.0,0.0,0.0,0.0,0.0,0.0,0.0,0.0,0.0,0.0,0.0,0.0,0.0,0.0,0.0,0.0,0.0,0.0,0.0,0.0,0.0,0.0,0.0,0.0,0.0,0.0,0.0,0.0,0.0,0.0,0.0,0.0,0.0,0.0,0.0,0.0,0.0,0.0,0.0,0.0,0.0,0.0,0.0,0.0,0.0,0.0,0.0,0.0,0.0,0.0,0.0,0.0,0.0,0.0,0.0,0.0,0.0,0.0,0.0,0.0,0.0,0.0,0.0,0.0,0.0,0.0,0.0,0.0,0.0,0.0,0.0,0.0,0.0,0.0,0.0,0.0,0.0,0.0,0.0,0.0,0.0,0.0,0.0,0.0,0.0,0.0,0.0,0.0,0.0,0.0,0.0,0.0,0.0,0.0,0.0,0.0,0.0,0.0,0.0,0.0,0.0,0.0,0.0,0.0,0.0,0.0,0.0,0.0,0.0,0.0,0.0,0.0,0.0,0.0,0.0,0.0,0.0,0.0,0.0,0.0,0.0,0.0,0.0,0.0,0.0,0.0,0.0,0.0,0.0,0.0,0.0,0.0,0.0,0.0,0.0,0.0,0.0,0.0,0.0,0.0,0.0,0.0,0.0,0.0,0.0,0.0,0.0,0.0,0.0,0.0,0.0,0.0,0.0,0.0,0.0,0.0,0.0,0.0,0.0,0.0,0.0,0.0,0.0,0.0,0.0,0.0,0.0,0.0,0.0,0.0,0.0,0.0,0.0,0.0,0.0,0.0,0.0,0.0,0.0,0.0,0.0,0.0,0.0,0.0,0.0,0.0,0.0,0.0,0.0,0.0,0.0,0.0,0.0,0.0,0.0,0.0,0.0,0.0,0.0,0.0,0.0,0.0,0.0,0.0,0.0,0.0,0.0,0.0,0.0,0.0,0.0,0.0,0.0,0.0,0.0,0.0,0.0,0.0,0.0,0.0,0.0,0.0,0.0,0.0,0.0,0.0,0.0,0.0,0.0,0.0,0.0,0.0,0.0,0.0,0.0,0.0,0.0,0.0,0.0,0.0,0.0,0.0,0.0,0.0,0.0,0.0,0.0,0.0,0.0,0.0,0.0,0.0,0.0,0.0,0.0,0.0,0.0,0.0,0.0,0.0,0.0,0.0,0.0,0.0,0.0,0.0,0.0,0.0,0.0,0.0,0.0,0.0,0.0,0.0,0.0,0.0,0.0,0.0,0.0,0.0,0.0,0.0,0.0,0.0,0.0,0.0,0.0,0.0,0.0,0.0,0.0,0.0,0.0,0.0,0.0,0.0,0.0,0.0,0.0,0.0,0.0,0.0,0.0,0.0,0.0,0.0,0.0,0.0,0.0,0.0,0.0,0.0,0.0,0.0,0.0,0.0,0.0,0.0,0.0,0.0,0.0,0.0,0.0,0.0,0.0,0.0,0.0,0.0,0.0,0.0,0.0,0.0,0.0,0.0,0.0,0.0,0.0,0.0,0.0,0.0,0.0,0.0,0.0,0.0,0.0,0.0,0.0,0.0,0.0,0.0,0.0,0.0,0.0,0.0,0.0,0.0,0.0,0.0,0.0,0.0,0.0,0.0,0.0,0.0,0.0,0.0,0.0,0.0,0.0,0.0,0.0,0.0,0.0,0.0,0.0,0.0,0.0,0.0,0.0,0.0,0.0,0.0,0.0,0.0,0.0,0.0,0.0,0.0,0.0,0.0,0.0,0.0,0.0,0.0,0.0,0.0,0.0,0.0,0.0,0.0,0.0,0.0,0.0,0.0,0.0,0.0,0.0,0.0,0.0,0.0,0.0,0.0,0.0,0.0,0.0,0.0,0.0,0.0,0.0,0.0,0.0,0.0,0.0,0.0,0.0,0.0,0.0,0.0,0.0,0.0,0.0,0.0,0.0,0.0,0.0,0.0,0.0,0.0,0.0,0.0,0.0,0.0,0.0,0.0,0.0,0.0,0.0,0.0,0.0,0.0,0.0,0.0,0.0,0.0,0.0,0.0,0.0,0.0,0.0,0.0,0.0,0.0,0.0,0.0,0.0,0.0,0.0,0.0,0.0,0.0,0.0,0.0,0.0,0.0,0.0,0.0,0.0,0.0,0.0,0.0,0.0,0.0,0.0,0.0,0.0,0.0,0.0,0.0,0.0,0.0,0.0,0.0,0.0,0.0,0.0,0.0,0.0,0.0,0.0,0.0,0.0,0.0,0.0,0.0,0.0,0.0,0.0,0.0,0.0,0.0,0.0,0.0,0.0,0.0,0.0,0.0,0.0,0.0,0.0,0.0,0.0,0.0,0.0,0.0,0.0,0.0,0.0,0.0,1.7924,0.0,0.0,0.0,0.0,0.0,0.0,0.0,0.0,0.0,0.0,0.0,0.0,0.0,0.0,0.0,0.0,0.0,0.0,0.0,0.0,0.0,0.0,0.0,0.0,0.0,0.0,0.0,0.0,0.0,0.0,0.0,0.0,0.0,0.0,0.0,0.0,0.0,0.0,0.0,0.0,0.0,0.0,0.0,0.0,0.0,0.0,0.0,0.0,0.0,0.0,0.0,0.0,0.0,0.0,0.0,0.0,0.0,0.0,0.0,0.0,0.0,0.0,0.0,0.0,0.0,0.0,0.0,0.0,0.0,0.0,0.0,0.0,0.0,0.0,0.0,0.0,0.0,0.0,0.0,0.0,0.0,0.0,0.0,0.0,0.0,0.0,0.0,0.0,0.0,0.0,0.0,0.0,0.0,0.0,0.0,0.0,0.0,0.0,0.0,0.0,0.0,0.0,0.0,0.0,0.0,0.0,0.0,0.0,0.0,0.0,1.9279,1.9279,1.8519,1.8317,1.872,0.0,0.0,0.0,0.0,0.0,0.0,0.0,0.0,0.0,0.0,0.0,0.0,0.0,0.0,0.0,0.0,0.0,0.0,0.0,0.0,0.0,0.0,0.0,0.0,0.0,0.0,0.0,0.0,0.0,0.0,0.0,0.0,0.0,0.0,0.0,0.0,0.0,0.0,0.0,0.0,0.0,0.0,0.0,0.0,0.0,0.0,0.0,0.0,0.0,0.0,0.0,0.0,0.0,0.0,0.0,0.0,0.0,0.0,0.0,0.0,0.0,0.0,0.0,0.0,0.0,0.0,0.0,0.0,0.0,0.0,0.0,0.0,0.0,0.0,0.0,0.0,0.0,0.0,0.0,0.0,0.0,0.0,0.0,0.0,0.0,0.0,0.0,0.0,0.0,0.0,0.0,0.0,0.0,0.0,0.0,0.0,0.0,0.0,0.0,0.0,0.0,0.0,0.0,0.0,0.0,0.0,0.0,0.0,0.0,0.0,0.0,0.0,1.9069,1.8849,1.926,0.0,0.0,0.0,0.0,0.0,0.0,0.0,0.0,0.0,0.0,0.0,0.0,0.0,0.0,0.0,0.0,0.0,0.0,0.0,0.0,0.0,0.0,0.0,0.0,0.0,0.0,0.0,0.0,0.0,0.0,0.0,0.0,0.0,0.0,0.0,0.0,0.0,0.0,0.0,0.0,0.0,0.0,0.0,0.0,0.0,0.0,0.0,0.0,0.0,0.0,0.0,0.0,0.0,0.0,0.0,0.0,0.0,0.0,0.0,0.0,0.0,0.0,0.0,0.0,0.0,0.0,0.0,0.0,0.0,0.0,0.0,0.0,0.0,0.0,0.0,0.0,0.0,0.0,0.0,0.0,0.0,0.0,0.0,0.0,0.0,0.0,0.0,0.0,0.0,0.0,0.0,0.0,0.0,0.0,0.0,0.0,0.0,0.0,0.0,0.0,0.0,0.0,0.0,0.0,0.0,0.0,0.0,0.0,0.0,0.0,2.0013,2.1519,2.0721,0.0,1.937,0.0,0.0,0.0,0.0,0.0,0.0,0.0,0.0,0.0,0.0,0.0,0.0,0.0,0.0,0.0,0.0,0.0,0.0,0.0,0.0,0.0,0.0,0.0,0.0,0.0,0.0,0.0,0.0,0.0,0.0,0.0,0.0,0.0,0.0,0.0,0.0,0.0,0.0,0.0,0.0,0.0,0.0,0.0,0.0,0.0,0.0,0.0,0.0,0.0,0.0,0.0,0.0,0.0,0.0,0.0,0.0,0.0,0.0,0.0,0.0,0.0,0.0,0.0,0.0,0.0,0.0,0.0,0.0,0.0,0.0,0.0,0.0,0.0,0.0,0.0,0.0,0.0,0.0,0.0,0.0,0.0,0.0,0.0,0.0,0.0,0.0,0.0,0.0,0.0,0.0,0.0,0.0,0.0,0.0,0.0,0.0,0.0,0.0,0.0,0.0,0.0,0.0,0.0,0.0,0.0,0.0,0.0,0.0,0.0,0.0,0.0,2.1776,2.1464,2.0647,0.0,0.0,0.0,0.0,0.0,0.0,0.0,0.0,0.0,0.0,0.0,0.0,0.0,0.0,0.0,0.0,0.0,0.0,0.0,0.0,0.0,0.0,0.0,0.0,0.0,0.0,0.0,0.0,0.0,0.0,0.0,0.0,0.0,0.0,0.0,0.0,0.0,0.0,0.0,0.0,0.0,0.0,0.0,0.0,0.0,0.0,0.0,0.0,0.0,0.0,0.0,0.0,0.0,0.0,0.0,0.0,0.0,0.0,0.0,0.0,0.0,0.0,0.0,0.0,0.0,0.0,0.0,0.0,0.0,0.0,0.0,0.0,0.0,0.0,0.0,0.0,0.0,0.0,0.0,0.0,0.0,0.0,0.0,0.0,0.0,0.0,0.0,0.0,0.0,0.0,0.0,0.0,0.0,0.0,0.0,0.0,0.0,0.0,0.0,0.0,0.0,0.0,0.0,0.0,0.0,0.0,0.0,0.0,0.0,0.0,2.0437,0.0,2.2051,2.1904,2.0913,1.904,0.0,0.0,0.0,0.0,0.0,0.0,0.0,0.0,0.0,0.0,0.0,0.0,0.0,0.0,0.0,0.0,0.0,0.0,0.0,0.0,0.0,0.0,0.0,0.0,0.0,0.0,0.0,0.0,0.0,0.0,0.0,0.0,0.0,0.0,0.0,0.0,0.0,0.0,0.0,0.0,0.0,0.0,0.0,0.0,0.0,0.0,0.0,0.0,0.0,0.0,0.0,0.0,0.0,0.0,0.0,0.0,0.0,0.0,0.0,0.0,0.0,0.0,0.0,0.0,0.0,0.0,0.0,0.0,0.0,0.0,0.0,0.0,0.0,0.0,0.0,0.0,0.0,0.0,0.0,0.0,0.0,0.0,0.0,0.0,0.0,0.0,0.0,0.0,0.0,0.0,0.0,0.0,0.0,0.0,0.0,0.0,0.0,0.0,0.0,0.0,0.0,0.0,0.0,0.0,0.0,0.0,0.0,0.0,0.0,2.1281,2.1291,2.2878,2.2198,2.0656,0.0,0.0,0.0,0.0,0.0,0.0,0.0,0.0,0.0,0.0,0.0,0.0,0.0,0.0,0.0,0.0,0.0,0.0,0.0,0.0,0.0,0.0,0.0,0.0,0.0,0.0,0.0,0.0,0.0,0.0,0.0,0.0,0.0,0.0,0.0,0.0,0.0,0.0,0.0,0.0,0.0,0.0,0.0,0.0,0.0,0.0,0.0,0.0,0.0,0.0,0.0,0.0,0.0,0.0,0.0,0.0,0.0,0.0,0.0,0.0,0.0,0.0,0.0,0.0,0.0,0.0,0.0,0.0,0.0,0.0,0.0,0.0,0.0,0.0,0.0,0.0,0.0,0.0,0.0,0.0,0.0,0.0,0.0,0.0,0.0,0.0,0.0,0.0,0.0,0.0,0.0,0.0,0.0,0.0,0.0,0.0,0.0,0.0,0.0,0.0,0.0,0.0,0.0,0.0,0.0,0.0,0.0,0.0,0.0,1.9759,2.0272,2.1557,2.3584,2.1969,2.0317,0.0,0.0,0.0,0.0,0.0,0.0,0.0,0.0,0.0,0.0,0.0,0.0,0.0,0.0,0.0,0.0,0.0,0.0,0.0,0.0,0.0,0.0,0.0,0.0,0.0,0.0,0.0,0.0,0.0,0.0,0.0,0.0,0.0,0.0,0.0,0.0,0.0,0.0,0.0,0.0,0.0,0.0,0.0,0.0,0.0,0.0,0.0,0.0,0.0,0.0,0.0,0.0,0.0,0.0,0.0,0.0,0.0,0.0,0.0,0.0,0.0,0.0,0.0,0.0,0.0,0.0,0.0,0.0,0.0,0.0,0.0,0.0,0.0,0.0,0.0,0.0,0.0,0.0,0.0,0.0,0.0,0.0,0.0,0.0,0.0,0.0,0.0,0.0,0.0,0.0,0.0,0.0,0.0,0.0,0.0,0.0,0.0,0.0,0.0,0.0,0.0,0.0,0.0,0.0,0.0,0.0,0.0,0.0,0.0,1.9253,0.0,2.2776,0.0,2.1795,1.9861,0.0,0.0,0.0,0.0,0.0,0.0,0.0,0.0,0.0,0.0,0.0,0.0,0.0,0.0,0.0,0.0,0.0,0.0,0.0,0.0,0.0,0.0,0.0,0.0,0.0,0.0,0.0,0.0,0.0,0.0,0.0,0.0,0.0,0.0,0.0,0.0,0.0,0.0,0.0,0.0,0.0,0.0,0.0,0.0,0.0,0.0,0.0,0.0,0.0,0.0,0.0,0.0,0.0,0.0,0.0,0.0,0.0,0.0,0.0,0.0,0.0,0.0,0.0,0.0,0.0,0.0,0.0,0.0,0.0,0.0,0.0,0.0,0.0,0.0,0.0,0.0,0.0,0.0,0.0,0.0,0.0,0.0,0.0,0.0,0.0,0.0,0.0,0.0,0.0,0.0,0.0,0.0,0.0,0.0,0.0,0.0,0.0,0.0,0.0,0.0,0.0,0.0,0.0,0.0,0.0,0.0,0.0,0.0,1.854,2.1629,2.3961,2.475,2.419,2.1777,1.9392,0.0,0.0,0.0,0.0,0.0,0.0,0.0,0.0,0.0,0.0,0.0,0.0,0.0,0.0,0.0,0.0,0.0,0.0,0.0,0.0,0.0,0.0,0.0,0.0,0.0,0.0,0.0,0.0,0.0,0.0,0.0,0.0,0.0,0.0,0.0,0.0,0.0,0.0,0.0,0.0,0.0,0.0,0.0,0.0,0.0,0.0,0.0,0.0,0.0,0.0,0.0,0.0,0.0,0.0,0.0,0.0,0.0,0.0,0.0,0.0,0.0,0.0,0.0,0.0,0.0,0.0,0.0,0.0,0.0,0.0,0.0,0.0,0.0,0.0,0.0,0.0,0.0,0.0,0.0,0.0,0.0,0.0,0.0,0.0,0.0,0.0,0.0,0.0,0.0,0.0,0.0,0.0,0.0,0.0,0.0,0.0,0.0,0.0,0.0,0.0,0.0,0.0,0.0,0.0,0.0,0.0,0.0,0.0,0.0,1.9934,2.1861,2.3336,2.4043,2.1253,1.9877,0.0,0.0,0.0,0.0,0.0,0.0,0.0,0.0,0.0,0.0,0.0,0.0,0.0,0.0,0.0,0.0,0.0,0.0,0.0,0.0,0.0,0.0,0.0,0.0,0.0,0.0,0.0,0.0,0.0,0.0,0.0,0.0,0.0,0.0,0.0,0.0,0.0,0.0,0.0,0.0,0.0,0.0,0.0,0.0,0.0,0.0,0.0,0.0,0.0,0.0,0.0,0.0,0.0,0.0,0.0,0.0,0.0,0.0,0.0,0.0,0.0,0.0,0.0,0.0,0.0,0.0,0.0,0.0,0.0,0.0,0.0,0.0,0.0,0.0,0.0,0.0,0.0,0.0,0.0,0.0,0.0,0.0,0.0,0.0,0.0,0.0,0.0,0.0,0.0,0.0,0.0,0.0,0.0,0.0,0.0,0.0,0.0,0.0,0.0,0.0,0.0,0.0,0.0,0.0,0.0,0.0,0.0,0.0,0.0,2.1244,2.2643,2.376,2.4454,2.1394,2.0105,2.0766,0.0,0.0,0.0,0.0,0.0,0.0,0.0,0.0,0.0,0.0,0.0,0.0,0.0,0.0,0.0,0.0,0.0,0.0,0.0,0.0,0.0,0.0,0.0,0.0,0.0,0.0,0.0,0.0,0.0,0.0,0.0,0.0,0.0,0.0,0.0,0.0,0.0,0.0,0.0,0.0,0.0,0.0,0.0,0.0,0.0,0.0,0.0,0.0,0.0,0.0,0.0,0.0,0.0,0.0,0.0,0.0,0.0,0.0,0.0,0.0,0.0,0.0,0.0,0.0,0.0,0.0,0.0,0.0,0.0,0.0,0.0,0.0,0.0,0.0,0.0,0.0,0.0,0.0,0.0,0.0,0.0,0.0,0.0,0.0,0.0,0.0,0.0,0.0,0.0,0.0,0.0,0.0,0.0,0.0,0.0,0.0,0.0,0.0,0.0,0.0,0.0,0.0,0.0,0.0,0.0,0.0,0.0,0.0,2.4867,2.5769,2.5832,2.4998,2.2227,2.0346,0.0,0.0,0.0,0.0,0.0,0.0,0.0,0.0,0.0,0.0,0.0,0.0,0.0,0.0,0.0,0.0,0.0,0.0,0.0,0.0,0.0,0.0,0.0,0.0,0.0,0.0,0.0,0.0,0.0,0.0,0.0,0.0,0.0,0.0,0.0,0.0,0.0,0.0,0.0,0.0,0.0,0.0,0.0,0.0,0.0,0.0,0.0,0.0,0.0,0.0,0.0,0.0,0.0,0.0,0.0,0.0,0.0,0.0,0.0,0.0,0.0,0.0,0.0,0.0,0.0,0.0,0.0,0.0,0.0,0.0,0.0,0.0,0.0,0.0,0.0,0.0,0.0,0.0,0.0,0.0,0.0,0.0,0.0,0.0,0.0,0.0,0.0,0.0,0.0,0.0,0.0,0.0,0.0,0.0,0.0,0.0,0.0,0.0,0.0,0.0,0.0,0.0,0.0,0.0,0.0,0.0,0.0,0.0,0.0,2.669,2.6761,2.6531,2.6129,2.4261,2.3125,0.0,0.0,0.0,0.0,0.0,0.0,0.0,0.0,0.0,0.0,0.0,0.0,0.0,0.0,0.0,0.0,0.0,0.0,0.0,0.0,0.0,0.0,0.0,0.0,0.0,0.0,0.0,0.0,0.0,0.0,0.0,0.0,0.0,0.0,0.0,0.0,0.0,0.0,0.0,0.0,0.0,0.0,0.0,0.0,0.0,0.0,0.0,0.0,0.0,0.0,0.0,0.0,0.0,0.0,0.0,0.0,0.0,0.0,0.0,0.0,0.0,0.0,0.0,0.0,0.0,0.0,0.0,0.0,0.0,0.0,0.0,0.0,0.0,0.0,0.0,0.0,0.0,0.0,0.0,0.0,0.0,0.0,0.0,0.0,0.0,0.0,0.0,0.0,0.0,0.0,0.0,0.0,0.0,0.0,0.0,0.0,0.0,0.0,0.0,0.0,0.0,0.0,0.0,0.0,0.0,0.0,0.0,0.0,2.5114,2.8012,2.817,2.7964,2.7419,2.5651,2.453,0.0,0.0,0.0,0.0,0.0,0.0,0.0,0.0,0.0,0.0,0.0,0.0,0.0,0.0,0.0,0.0,0.0,0.0,0.0,0.0,0.0,0.0,0.0,0.0,0.0,0.0,0.0,0.0,0.0,0.0,0.0,0.0,0.0,0.0,0.0,0.0,0.0,0.0,0.0,0.0,0.0,0.0,0.0,0.0,0.0,0.0,0.0,0.0,0.0,0.0,0.0,0.0,0.0,0.0,0.0,0.0,0.0,0.0,0.0,0.0,0.0,0.0,0.0,0.0,0.0,0.0,0.0,0.0,0.0,0.0,0.0,0.0,0.0,0.0,0.0,0.0,0.0,0.0,0.0,0.0,0.0,0.0,0.0,0.0,0.0,0.0,0.0,0.0,0.0,0.0,0.0,0.0,0.0,0.0,0.0,0.0,0.0,0.0,0.0,0.0,0.0,0.0,0.0,0.0,0.0,0.0,0.0,0.0,2.6313,2.8817,2.9618,2.9597,2.8683,2.6774,2.5271,0.0,0.0,0.0,0.0,0.0,0.0,0.0,0.0,0.0,0.0,0.0,0.0,0.0,0.0,0.0,0.0,0.0,0.0,0.0,0.0,0.0,0.0,0.0,0.0,0.0,0.0,0.0,0.0,0.0,0.0,0.0,0.0,0.0,0.0,0.0,0.0,0.0,0.0,0.0,0.0,0.0,0.0,0.0,0.0,0.0,0.0,0.0,0.0,0.0,0.0,0.0,0.0,0.0,0.0,0.0,0.0,0.0,0.0,0.0,0.0,0.0,0.0,0.0,0.0,0.0,0.0,0.0,0.0,0.0,0.0,0.0,0.0,0.0,0.0,0.0,0.0,0.0,0.0,0.0,0.0,0.0,0.0,0.0,0.0,0.0,0.0,0.0,0.0,0.0,0.0,0.0,0.0,0.0,0.0,0.0,0.0,0.0,0.0,0.0,0.0,0.0,0.0,0.0,0.0,0.0,0.0,0.0,0.0,2.6985,2.928,2.9769,3.0,2.999,2.8593,2.7014,0.0,0.0,0.0,0.0,0.0,0.0,0.0,0.0,0.0,0.0,0.0,0.0,0.0,0.0,0.0,0.0,0.0,0.0,0.0,0.0,0.0,0.0,0.0,0.0,0.0,0.0,0.0,0.0,0.0,0.0,0.0,0.0,0.0,0.0,0.0,0.0,0.0,0.0,0.0,0.0,0.0,0.0,0.0,0.0,0.0,0.0,0.0,0.0,2.1153,0.0,0.0,0.0,0.0,0.0,0.0,0.0,0.0,0.0,0.0,0.0,0.0,0.0,0.0,0.0,0.0,0.0,0.0,0.0,0.0,0.0,0.0,0.0,0.0,0.0,0.0,0.0,0.0,0.0,0.0,0.0,0.0,0.0,0.0,0.0,0.0,0.0,0.0,0.0,0.0,0.0,0.0,0.0,0.0,0.0,0.0,0.0,0.0,0.0,0.0,0.0,0.0,0.0,0.0,0.0,0.0,0.0,0.0,0.0,2.8127,2.9989,3.0578,3.0815,3.07,2.9851,2.8301,0.0,0.0,0.0,0.0,0.0,0.0,0.0,0.0,0.0,0.0,0.0,0.0,0.0,0.0,0.0,0.0,0.0,0.0,0.0,0.0,0.0,0.0,0.0,0.0,0.0,0.0,0.0,0.0,0.0,0.0,0.0,0.0,0.0,0.0,0.0,0.0,0.0,0.0,0.0,0.0,0.0,0.0,0.0,0.0,0.0,0.0,0.0,0.0,0.0,0.0,0.0,0.0,0.0,0.0,0.0,0.0,0.0,0.0,0.0,0.0,0.0,0.0,0.0,0.0,0.0,0.0,0.0,0.0,0.0,0.0,0.0,0.0,0.0,0.0,0.0,0.0,0.0,0.0,0.0,0.0,0.0,0.0,0.0,0.0,0.0,0.0,0.0,0.0,0.0,0.0,0.0,0.0,0.0,0.0,0.0,0.0,0.0,0.0,0.0,0.0,0.0,0.0,0.0,0.0,0.0,0.0,0.0,2.7025,2.9144,3.0644,3.1403,3.1601,3.1193,3.0672,2.9274,2.6874,0.0,0.0,0.0,0.0,0.0,0.0,0.0,0.0,0.0,0.0,0.0,0.0,0.0,0.0,0.0,0.0,0.0,0.0,0.0,0.0,0.0,0.0,0.0,0.0,0.0,0.0,0.0,0.0,0.0,0.0,0.0,0.0,0.0,0.0,0.0,0.0,0.0,0.0,1.9142,2.2253,0.0,0.0,0.0,0.0,0.0,0.0,0.0,0.0,2.3808,0.0,0.0,0.0,0.0,0.0,0.0,0.0,0.0,0.0,0.0,0.0,0.0,0.0,0.0,0.0,0.0,0.0,0.0,0.0,0.0,0.0,0.0,0.0,0.0,0.0,0.0,0.0,0.0,0.0,0.0,0.0,0.0,0.0,0.0,0.0,0.0,0.0,0.0,0.0,0.0,0.0,0.0,0.0,0.0,0.0,0.0,0.0,0.0,0.0,0.0,0.0,0.0,0.0,0.0,0.0,0.0,2.6678,2.7816,2.9161,3.0662,3.1403,3.1725,3.1497,3.0777,2.9507,2.7633,0.0,0.0,0.0,0.0,0.0,0.0,0.0,0.0,0.0,0.0,0.0,0.0,0.0,0.0,0.0,0.0,0.0,0.0,0.0,0.0,0.0,0.0,0.0,0.0,0.0,0.0,0.0,0.0,0.0,0.0,0.0,0.0,0.0,0.0,0.0,0.0,0.0,0.0,0.0,2.4015,2.5643,0.0,0.0,0.0,0.0,0.0,0.0,0.0,0.0,2.4576,0.0,0.0,0.0,0.0,0.0,0.0,0.0,0.0,0.0,0.0,0.0,0.0,0.0,0.0,0.0,0.0,0.0,0.0,0.0,0.0,0.0,0.0,0.0,0.0,0.0,0.0,0.0,0.0,0.0,0.0,0.0,0.0,0.0,0.0,0.0,0.0,0.0,0.0,0.0,0.0,0.0,0.0,0.0,0.0,0.0,0.0,0.0,0.0,0.0,0.0,0.0,0.0,0.0,0.0,0.0,2.6575,2.8196,2.9713,3.1214,3.161,3.1774,3.1671,3.0448,2.9197,0.0,0.0,0.0,0.0,0.0,0.0,0.0,0.0,0.0,0.0,0.0,0.0,0.0,0.0,0.0,0.0,0.0,0.0,0.0,0.0,0.0,0.0,0.0,0.0,0.0,0.0,0.0,0.0,0.0,0.0,0.0,0.0,0.0,0.0,0.0,0.0,0.0,0.0,0.0,0.0,2.516,2.6113,2.522,0.0,0.0,0.0,0.0,0.0,0.0,2.5781,2.5064,0.0,0.0,0.0,0.0,0.0,0.0,0.0,0.0,0.0,0.0,0.0,0.0,0.0,0.0,0.0,0.0,0.0,0.0,0.0,0.0,0.0,0.0,0.0,0.0,0.0,0.0,0.0,0.0,0.0,0.0,0.0,0.0,0.0,0.0,0.0,0.0,0.0,0.0,0.0,0.0,0.0,0.0,0.0,0.0,0.0,0.0,0.0,0.0,0.0,0.0,0.0,0.0,0.0,0.0,0.0,2.6333,2.8437,3.0248,3.1714,3.18,3.1837,3.1841,3.0261,2.8976,0.0,0.0,0.0,0.0,0.0,0.0,0.0,0.0,0.0,0.0,0.0,0.0,0.0,0.0,0.0,0.0,0.0,0.0,0.0,0.0,0.0,0.0,0.0,0.0,0.0,0.0,0.0,0.0,0.0,0.0,0.0,0.0,0.0,0.0,0.0,0.0,0.0,0.0,0.0,0.0,0.0,2.6842,2.6233,2.6371,0.0,0.0,0.0,0.0,2.78,2.7058,0.0,0.0,0.0,0.0,0.0,0.0,0.0,0.0,0.0,0.0,0.0,0.0,0.0,0.0,0.0,0.0,0.0,0.0,0.0,0.0,0.0,0.0,0.0,0.0,0.0,0.0,0.0,0.0,0.0,0.0,0.0,0.0,0.0,0.0,0.0,0.0,0.0,0.0,0.0,0.0,0.0,0.0,0.0,0.0,0.0,0.0,0.0,0.0,0.0,0.0,0.0,0.0,0.0,0.0,0.0,0.0,2.7075,2.8696,3.0265,3.1714,3.18,3.1947,3.2197,3.0722,2.9452,0.0,0.0,0.0,0.0,0.0,0.0,0.0,0.0,0.0,0.0,0.0,0.0,0.0,0.0,0.0,0.0,0.0,0.0,0.0,0.0,0.0,0.0,0.0,0.0,0.0,0.0,0.0,0.0,0.0,0.0,0.0,0.0,0.0,0.0,0.0,0.0,0.0,0.0,0.0,0.0,0.0,2.8834,2.6588,2.6944,2.7362,0.0,0.0,2.8396,2.8499,2.9583,0.0,0.0,0.0,0.0,0.0,0.0,0.0,0.0,0.0,0.0,0.0,0.0,0.0,0.0,0.0,0.0,0.0,0.0,0.0,0.0,0.0,0.0,0.0,0.0,0.0,0.0,0.0,0.0,0.0,0.0,0.0,0.0,0.0,0.0,0.0,0.0,0.0,0.0,0.0,0.0,0.0,0.0,0.0,0.0,0.0,0.0,0.0,0.0,0.0,0.0,0.0,0.0,0.0,0.0,0.0,2.4152,2.6857,2.8921,3.0411,3.1376,3.1654,3.1856,3.2002,3.0275,2.8888,0.0,0.0,0.0,0.0,0.0,0.0,0.0,0.0,0.0,0.0,0.0,0.0,0.0,0.0,0.0,0.0,0.0,0.0,0.0,0.0,0.0,0.0,0.0,0.0,0.0,0.0,0.0,0.0,0.0,0.0,0.0,0.0,0.0,0.0,0.0,0.0,0.0,0.0,0.0,0.0,0.0,0.0,2.7487,2.8121,0.0,0.0,0.0,2.9595,3.0553,0.0,0.0,0.0,0.0,0.0,0.0,0.0,0.0,0.0,0.0,0.0,0.0,0.0,0.0,0.0,0.0,0.0,0.0,0.0,0.0,0.0,0.0,0.0,0.0,0.0,0.0,0.0,0.0,0.0,0.0,0.0,0.0,0.0,0.0,0.0,0.0,0.0,0.0,0.0,0.0,0.0,0.0,0.0,0.0,0.0,0.0,0.0,0.0,0.0,0.0,0.0,0.0,0.0,0.0,0.0,0.0,0.0,2.6607,2.9317,3.0968,3.1472,3.1739,3.1946,3.2041,3.0074,0.0,0.0,0.0,0.0,0.0,0.0,0.0,0.0,0.0,0.0,0.0,0.0,0.0,0.0,0.0,0.0,0.0,0.0,0.0,0.0,0.0,0.0,0.0,0.0,0.0,0.0,0.0,1.5191,0.0,0.0,0.0,0.0,0.0,0.0,0.0,0.0,0.0,0.0,0.0,0.0,0.0,0.0,2.8811,2.8509,2.9465,3.0207,0.0,0.0,3.0912,3.2005,3.1381,3.032,0.0,0.0,0.0,0.0,0.0,0.0,0.0,0.0,0.0,0.0,0.0,0.0,0.0,0.0,0.0,0.0,0.0,0.0,0.0,0.0,0.0,0.0,0.0,0.0,0.0,0.0,0.0,0.0,0.0,0.0,0.0,0.0,0.0,0.0,0.0,0.0,0.0,0.0,0.0,0.0,0.0,0.0,0.0,0.0,0.0,0.0,0.0,0.0,0.0,0.0,0.0,0.0,0.0,0.0,0.0,2.6742,3.0065,3.2015,3.2466,3.2289,3.2372,3.2781,3.0645,2.8879,0.0,0.0,0.0,0.0,0.0,0.0,0.0,0.0,0.0,0.0,0.0,0.0,0.0,0.0,0.0,0.0,0.0,0.0,0.0,0.0,0.0,0.0,0.0,0.0,0.0,0.0,0.0,0.0,0.0,0.0,0.0,0.0,0.0,0.0,0.0,0.0,0.0,0.0,0.0,0.0,0.0,3.0339,2.9617,3.0892,3.1863,0.0,0.0,3.2761,3.1972,3.2987,3.2903,3.001,0.0,0.0,0.0,0.0,0.0,0.0,0.0,0.0,0.0,0.0,0.0,0.0,0.0,0.0,0.0,0.0,0.0,0.0,0.0,0.0,0.0,0.0,0.0,0.0,0.0,0.0,0.0,0.0,0.0,0.0,0.0,0.0,0.0,0.0,0.0,0.0,0.0,0.0,0.0,0.0,0.0,0.0,0.0,0.0,0.0,0.0,0.0,0.0,0.0,0.0,0.0,0.0,0.0,2.5127,2.7611,3.0439,3.2144,3.266,3.2803,3.2832,3.2708,3.0999,2.9455,0.0,0.0,0.0,0.0,0.0,0.0,0.0,0.0,0.0,0.0,0.0,0.0,0.0,0.0,0.0,0.0,0.0,0.0,0.0,0.0,0.0,0.0,0.0,0.0,0.0,0.0,0.0,0.0,1.8213,1.8619,1.8937,0.0,0.0,0.0,0.0,0.0,0.0,0.0,0.0,0.0,0.0,3.0913,3.1059,3.2056,0.0,0.0,3.2988,3.312,3.2765,3.2957,3.2422,3.0253,2.9219,0.0,0.0,0.0,0.0,0.0,0.0,0.0,0.0,0.0,0.0,0.0,0.0,0.0,0.0,0.0,0.0,0.0,0.0,0.0,0.0,0.0,0.0,0.0,0.0,0.0,0.0,0.0,0.0,0.0,0.0,0.0,0.0,0.0,0.0,0.0,0.0,0.0,0.0,0.0,0.0,0.0,0.0,0.0,0.0,0.0,0.0,0.0,0.0,0.0,0.0,0.0,0.0,2.5517,2.8246,3.0755,3.2375,3.3129,3.3322,3.3229,3.2815,3.1406,2.9931,0.0,0.0,0.0,0.0,0.0,0.0,0.0,0.0,0.0,0.0,0.0,0.0,0.0,0.0,0.0,0.0,0.0,0.0,0.0,0.0,0.0,0.0,0.0,0.0,0.0,0.0,0.0,0.0,1.9759,1.9993,1.984,0.0,0.0,0.0,0.0,0.0,0.0,0.0,0.0,0.0,0.0,3.1693,3.2004,3.2921,3.3569,3.3587,3.3385,3.3313,3.3614,3.3342,3.2561,3.0951,0.0,0.0,0.0,0.0,0.0,0.0,0.0,0.0,0.0,0.0,0.0,0.0,0.0,0.0,0.0,0.0,0.0,0.0,0.0,0.0,0.0,0.0,0.0,0.0,0.0,0.0,0.0,2.1996,0.0,0.0,2.078,0.0,0.0,0.0,0.0,0.0,0.0,0.0,0.0,0.0,0.0,0.0,0.0,0.0,0.0,0.0,0.0,0.0,0.0,0.0,0.0,0.0,0.0,2.617,2.8409,3.0974,3.2898,3.4097,3.3871,3.3612,3.3368,3.1877,3.0166,2.8236,0.0,0.0,0.0,0.0,0.0,0.0,0.0,0.0,0.0,0.0,0.0,0.0,0.0,0.0,0.0,0.0,0.0,0.0,0.0,0.0,0.0,0.0,0.0,0.0,0.0,0.0,1.993,1.9989,1.9711,0.0,0.0,0.0,0.0,0.0,0.0,0.0,0.0,0.0,0.0,3.0681,3.2885,3.2249,3.3475,3.4473,3.447,3.3819,3.3599,3.4343,3.4413,3.3903,0.0,0.0,0.0,0.0,0.0,0.0,0.0,0.0,0.0,0.0,0.0,0.0,0.0,0.0,0.0,0.0,0.0,0.0,0.0,0.0,0.0,0.0,0.0,0.0,0.0,0.0,0.0,2.6947,2.5578,0.0,0.0,0.0,0.0,0.0,0.0,0.0,0.0,0.0,0.0,0.0,2.981,3.0294,0.0,0.0,0.0,0.0,0.0,0.0,0.0,0.0,0.0,0.0,0.0,0.0,2.6651,2.9715,3.1616,3.3253,3.4602,3.4582,3.4286,3.3867,3.245,3.0142,2.6828,0.0,0.0,0.0,0.0,0.0,0.0,0.0,0.0,0.0,0.0,0.0,0.0,0.0,0.0,0.0,0.0,0.0,0.0,0.0,0.0,0.0,0.0,0.0,0.0,0.0,2.0781,0.0,0.0,0.0,0.0,0.0,0.0,0.0,0.0,0.0,0.0,0.0,2.7902,2.9197,3.1684,3.3505,3.3772,3.4712,3.535,0.0,0.0,0.0,0.0,0.0,0.0,0.0,0.0,0.0,0.0,0.0,0.0,0.0,0.0,3.2255,2.7305,2.6154,2.6061,2.6368,0.0,0.0,0.0,0.0,0.0,0.0,0.0,0.0,0.0,0.0,0.0,0.0,0.0,0.0,2.9566,0.0,2.8359,0.0,0.0,0.0,0.0,0.0,0.0,0.0,0.0,3.1305,3.2525,3.2757,3.3243,3.2829,0.0,3.0957,2.8658,0.0,0.0,0.0,0.0,0.0,0.0,0.0,0.0,2.7777,3.0787,3.2332,3.3673,3.4833,3.4899,3.4622,3.3978,3.244,3.0263,2.7419,2.6426,2.5182,0.0,0.0,0.0,0.0,0.0,0.0,0.0,0.0,0.0,0.0,0.0,0.0,0.0,0.0,0.0,0.0,0.0,0.0,0.0,0.0,0.0,0.0,0.0,2.2176,0.0,0.0,0.0,0.0,0.0,0.0,0.0,0.0,0.0,2.6012,2.7816,2.957,3.0934,3.2967,3.4353,3.4504,0.0,0.0,0.0,0.0,0.0,0.0,0.0,3.4747,3.5048,3.432,3.3924,3.4455,3.5381,3.5987,3.5728,0.0,0.0,3.0821,2.9719,2.9694,3.0256,3.0974,3.1495,3.1477,3.2335,3.2961,0.0,0.0,0.0,0.0,0.0,0.0,0.0,0.0,3.1201,3.1636,0.0,3.0675,0.0,0.0,0.0,0.0,0.0,3.0092,0.0,0.0,3.4703,3.5703,3.5066,3.5042,3.4629,3.3975,3.4554,3.3363,3.0447,2.6417,0.0,0.0,0.0,0.0,0.0,0.0,2.9499,3.1648,3.3061,3.417,3.4916,3.4916,3.4535,3.3812,3.2009,3.0663,2.9825,2.86,2.6911,2.4742,2.3769,0.0,0.0,0.0,0.0,0.0,0.0,0.0,0.0,0.0,0.0,0.0,0.0,0.0,0.0,0.0,0.0,0.0,0.0,0.0,0.0,2.1799,0.0,0.0,0.0,0.0,0.0,0.0,0.0,0.0,0.0,0.0,2.8507,2.9903,3.1266,3.2386,0.0,0.0,0.0,0.0,3.6157,3.693,3.6369,3.6402,3.786,3.8,3.7802,3.7419,0.0,0.0,3.6809,3.7362,3.7735,3.6943,3.7636,3.7905,3.6636,3.5607,3.5128,3.5146,3.4586,3.4126,3.4089,3.4343,3.4375,3.7143,0.0,0.0,0.0,0.0,3.4859,3.5943,3.7814,3.7085,3.6423,3.5794,3.5181,0.0,0.0,0.0,0.0,0.0,0.0,3.4518,3.5563,3.6924,3.7731,3.7996,3.7488,3.6905,3.6306,3.5883,3.5006,3.3665,3.1885,2.9036,2.5342,0.0,0.0,0.0,0.0,3.0444,3.3027,3.3574,3.4402,3.5661,3.5181,3.4535,3.3822,3.3267,3.2233,3.0647,2.9732,2.8547,2.7046,2.5228,0.0,0.0,0.0,0.0,0.0,0.0,0.0,0.0,0.0,0.0,0.0,0.0,0.0,0.0,0.0,0.0,0.0,0.0,0.0,2.3243,2.3813,2.4057,0.0,0.0,0.0,0.0,0.0,0.0,0.0,0.0,0.0,3.2215,3.2205,3.2325,0.0,0.0,3.5761,3.5467,3.656,3.7536,3.776,3.7693,0.0,3.8173,3.7404,3.7196,3.8503,3.9315,3.947,3.8525,3.9133,3.9572,3.8992,3.9428,3.9712,3.9341,3.8245,3.7423,3.7335,3.7574,3.7828,3.7831,3.8231,3.8576,4.1812,3.8652,3.7859,3.7831,3.8377,3.8228,3.899,4.0393,3.9928,3.9385,3.8794,3.8209,3.6685,3.4417,3.355,0.0,0.0,0.0,3.6431,3.7556,3.8287,3.8848,3.9264,3.8837,3.8448,3.8053,3.7017,3.6322,3.5902,3.4865,3.2648,2.9365,0.0,0.0,2.9453,3.0597,3.2299,3.4551,3.4965,3.5545,3.6406,3.5711,3.4965,3.427,3.3978,3.325,3.2088,3.1053,3.0045,2.9013,2.6859,2.5075,0.0,0.0,0.0,0.0,0.0,0.0,0.0,0.0,0.0,0.0,0.0,1.7154,0.0,0.0,0.0,0.0,2.0951,2.2936,2.5023,2.5005,0.0,0.0,0.0,0.0,0.0,0.0,0.0,3.0142,3.0999,3.2038,3.3812,3.4203,3.4509,3.4997,3.6094,3.683,3.674,0.0,3.8391,3.8682,3.8803,3.8975,3.9267,3.8625,3.8528,3.9813,4.0459,4.0626,4.0179,4.055,4.077,4.059,4.0693,4.0906,4.0906,4.0251,3.95,3.8828,3.9043,3.9369,3.9387,3.9985,4.0492,4.5301,4.4511,4.2553,4.1349,4.0823,4.139,4.1279,4.0656,4.0606,4.0889,4.1376,3.9992,3.8656,3.7238,3.5253,0.0,3.5504,3.6831,3.7819,3.848,3.9141,3.9393,3.9393,3.9345,3.9266,3.9172,3.8025,3.7411,3.7238,3.6054,3.5006,3.4159,3.2698,3.2271,3.2878,3.3591,3.4684,3.6141,3.6787,3.7085,3.7003,3.6357,3.5644,3.4916,3.4187,3.3779,3.368,3.2348,3.1267,3.0472,2.8508,2.6437,2.4381,0.0,0.0,0.0,0.0,0.0,0.0,0.0,0.0,0.0,0.0,0.0,0.0,0.0,0.0,0.0,2.2615,0.0,2.6104,2.569,0.0,0.0,0.0,2.7156,2.8921,2.8896,2.9387,3.1042,0.0,0.0,3.4137,3.5909,3.7269,3.7461,3.7963,3.8224,3.8031,3.8327,3.8849,3.9523,3.9679,3.9961,4.047,4.0617,4.0659,4.0874,4.1316,4.1394,4.1283,4.1394,4.1486,4.1349,4.1459,4.149,4.1486,4.164,4.1509,3.9752,3.9642,3.9767,3.9894,4.0383,4.0854,4.5583,4.5393,4.4899,4.428,4.3634,4.3781,4.3428,4.273,4.2204,4.1804,4.1356,4.0515,3.966,3.8779,3.8229,3.8433,3.9141,3.9487,4.0008,4.067,4.0364,4.0223,4.0189,3.9623,3.9087,3.8641,3.8811,3.8378,3.7404,3.7557,3.699,3.5788,3.5359,3.4904,3.4428,3.5114,3.6208,3.7682,3.7301,3.6812,3.6274,3.6092,3.5628,3.4899,3.4187,3.3524,3.2984,3.2078,3.125,3.0506,2.9006,2.7647,2.6553,2.4099,0.0,0.0,0.0,0.0,0.0,0.0,0.0,0.0,0.0,2.0841,1.7582,0.0,2.2512,0.0,2.4298,2.5925,2.6917,2.6884,0.0,0.0,2.9065,2.9453,3.1544,3.1717,3.2276,3.3781,3.4847,3.5909,3.7036,3.7615,3.8249,3.9007,3.8597,3.8195,3.8161,3.8815,3.9311,3.9539,3.9724,3.991,4.0137,4.0549,4.0717,4.0402,4.0995,4.1258,4.0563,4.1047,4.1393,4.1071,4.1276,4.1459,4.1481,4.1112,4.0683,4.0282,4.1106,4.2068,4.2086,4.2176,4.2321,4.56,4.5606,4.5677,4.5258,4.457,4.458,4.4175,4.3479,4.3116,4.2532,4.1797,4.1129,4.0451,3.9785,3.9785,3.985,3.9961,3.9961,4.0161,4.0531,4.0165,4.0021,3.9985,3.9589,3.923,3.8841,3.8912,3.8572,3.7858,3.7901,3.7575,3.6782,3.6796,3.6532,3.6038,3.6375,3.7258,3.8659,3.8295,3.7715,3.7019,3.6671,3.6125,3.5396,3.4684,3.3938,3.3216,3.2464,3.1603,3.0522,2.9171,2.8044,2.7317,2.5459,2.4033,0.0,0.0,0.0,0.0,0.0,0.0,0.0,0.0,0.0,0.0,0.0,2.4282,2.5276,2.6733,2.8075,2.9118,2.9201,2.9947,3.1769,3.1603,3.2083,3.3972,3.417,3.4601,3.5744,3.6522,3.7284,3.8096,3.8493,3.8904,3.9444,3.9099,3.885,3.9031,3.9486,3.9755,3.9772,3.9884,3.9986,3.9986,4.0254,4.0427,4.0204,4.0514,4.0707,4.0204,4.0514,4.0784,4.0563,4.0707,4.0879,4.0868,4.0712,4.053,4.0677,4.1442,4.2058,4.1832,4.2187,4.2595,4.5454,4.5486,4.5609,4.5263,4.4611,4.4647,4.4235,4.3478,4.3369,4.2936,4.2239,4.1656,4.1093,4.0531,4.0531,4.0217,3.9679,3.9553,3.9544,3.9544,3.9418,3.9388,3.9388,3.9388,3.9388,3.9358,3.8811,3.8467,3.8362,3.7823,3.75,3.7391,3.7316,3.7312,3.7377,3.7192,3.7778,3.9131,3.9175,3.8817,3.8081,3.7531,3.6837,3.6025,3.5197,3.4419,3.3673,3.2967,3.1984,3.0688,2.9367,2.8392,2.7729,2.6833,2.6003,0.0,2.5259,0.0,0.0,0.0,0.0,0.0,0.0,0.0,0.0,2.4613,2.67,2.8525,2.945,3.0456,3.1631,3.1912,3.258,3.3889,3.4071,3.4634,3.5943,3.6224,3.6539,3.7168,3.7897,3.8361,3.8543,3.9067,3.9475,3.9588,3.9668,3.9778,4.0011,4.0045,4.0037,4.0087,4.0113,4.0087,4.0087,4.0096,4.0121,4.0096,4.0146,4.0113,4.0121,4.0121,4.0121,4.0121,4.0146,4.0146,4.0113,4.0458,4.0666,4.0655,4.1013,4.1156,4.0836,4.14,4.2059,4.5341,4.5326,4.5354,4.5268,4.5146,4.5173,4.4473,4.3324,4.2833,4.2229,4.1596,4.146,4.1309,4.1205,4.119,4.1115,4.098,4.0457,4.0217,4.0187,3.9679,3.9388,3.9388,3.9388,3.9388,3.9388,3.9275,3.8931,3.8377,3.8257,3.7937,3.7413,3.6917,3.6899,3.7326,0.0,0.0,0.0,3.8507,3.8121,3.7443,3.7768,3.7367,3.6025,3.47,0.0,3.2934,3.2216,3.1681,3.1383,3.0572,0.0,0.0,0.0,0.0,0.0,0.0,0.0,0.0,0.0,0.0,0.0,2.8784,2.8257,2.6536,2.8787,3.029,3.0179,3.1835,3.2829,3.2531,3.3574,3.4634,3.5462,3.5595,3.5943,3.6804,3.7417,3.7838,3.7996,3.8626,3.9332,3.9879,4.0219,4.0377,4.0441,4.0618,4.0549,4.0155,4.0011,3.9952,3.9952,4.0037,4.0113,4.0113,4.013,4.018,4.0113,4.0113,4.0113,4.0113,4.0113,4.0113,4.0113,4.0113,4.0113,4.0113,4.0196,4.0271,4.0246,4.0328,4.0535,4.1151,4.1442,4.1635,4.5798,0.0,4.5439,4.5289,0.0,4.5289,4.4915,4.4257,4.3614,4.2955,4.2357,4.2342,4.2162,4.1901,4.1901,4.1722,4.1369,4.104,4.0876,4.0846,4.0202,3.9903,3.9888,3.9574,3.9388,3.9388,3.9388,3.923,3.8916,3.8901,3.8556,3.7898,3.7584,3.7259,3.6927,3.6275,3.6585,3.7867,3.8137,3.8116,3.776,3.8044,3.7665,3.6572,3.5462,0.0,0.0,0.0,0.0,0.0,0.0,0.0,0.0,0.0,0.0,2.9417,2.94,2.9417,2.945,3.0448,3.1205,3.157,3.2575,3.2299,3.0133,3.1653,3.2845,3.3187,3.4253,3.4883,3.4916,3.5562,3.629,3.6986,3.7085,3.7384,3.8063,3.851,3.8874,3.9265,3.9667,4.0219,4.0951,4.1155,4.1113,4.0849,4.0899,4.0761,4.0138,4.0011,4.0011,3.9986,4.0045,4.0248,4.0561,4.0646,4.0612,4.0629,4.0646,4.0502,4.0146,4.0113,4.0113,4.0113,4.0113,4.0113,4.0113,4.0113,4.0113,4.0113,4.0113,4.0204,4.0737,4.0995,4.1139,4.6501,4.6441,4.5873,4.5633,4.5648,4.5648,4.5574,4.5424,0.0,0.0,0.0,4.3469,4.315,4.259,4.2575,4.2237,4.1728,4.1609,4.1602,4.1557,4.0891,4.0516,4.0367,3.9858,3.9493,3.9388,3.9388,3.9388,3.9388,3.9388,3.914,3.8616,3.8452,3.7808,3.6686,3.5998,3.6204,3.7183,3.7711,3.7966,3.7978,3.8025,3.7752,3.7122,3.6304,3.5259,3.4054,3.3895,3.3267,3.2078,3.1979,3.2045,3.2161,3.2045,3.2293,3.3011,3.3077,3.3127,3.3282,3.3839,3.4253,3.4369,3.5628,3.5495,3.3442,3.3978,3.4883,3.6108,3.6307,3.6638,3.7235,3.7433,3.7731,3.8344,3.8526,3.8841,3.9398,3.9613,3.9945,4.0459,4.0668,4.1033,4.1777,4.2016,4.1831,4.1238,4.1221,4.0879,4.0154,4.0037,4.0087,4.0087,4.0096,4.0333,4.0798,4.0916,4.1001,4.0865,4.0933,4.0764,4.0299,4.0113,4.0113,4.0113,4.0113,4.0113,4.0113,4.0113,4.0113,4.0113,4.0113,4.0113,4.0121,4.0402,4.0659,4.716,4.716,4.7055,4.7025,4.7025,4.7025,4.6711,4.6142,4.5454,4.4781,4.4182,4.4167,4.3768,4.3155,4.3155,4.311,4.2976,4.2462,4.2261,4.2231,4.1587,4.095,4.0412,4.0307,3.9963,3.9418,3.9388,3.9388,3.9388,3.9388,3.9364,3.9215,3.8676,3.8003,3.7285,3.6656,3.6442,3.6627,3.6675,3.6662,3.6692,3.7216,3.7431,3.7156,3.5966,3.5154,3.4752,3.4276,3.3819,3.3518,3.3491,3.3773,3.4369,3.3839,3.3822,3.4518,3.4584,3.4866,3.5479,3.5644,3.5976,3.6605,3.7433,3.7235,3.5727,3.6224,3.6721,3.697,3.7516,3.7904,3.8079,3.8593,3.8947,3.9156,3.9702,4.0133,4.0178,4.0641,4.0993,4.113,4.1276,4.1598,4.2285,4.265,4.2456,4.2051,4.1671,4.1567,4.0468,4.007,4.0113,4.0113,4.0113,4.0163,4.04,4.0282,4.04,4.0248,4.035,4.0367,4.0146,4.0113,4.0113,4.0113,4.0113,4.0113,4.0113,4.0113,4.0113,4.0113,4.0113,4.0113,4.0113,4.0196,4.0246,4.7309,4.7309,4.7309,4.7309,4.7309,4.7309,4.7145,4.6845,4.6531,4.5798,4.4855,4.4466,4.4152,4.3798,4.3454,4.3305,4.329,4.303,4.2895,4.2836,4.2222,4.1796,4.1497,4.1115,4.0591,3.9978,3.9948,3.9768,3.9418,3.9388,3.9388,3.9379,3.8721,3.8242,3.7913,3.7315,3.6985,3.6971,3.6587,3.6399,3.6399,3.7071,3.7313,3.7192,3.6282,3.5881,3.6092,3.5449,3.5124,3.5052,3.5407,3.558,3.5544,3.5589,3.5744,3.6075,3.6108,3.6423,3.7168,3.7566,3.7914,3.8278,3.8593,3.8709,3.8411,3.8311,3.8278,3.8304,3.8593,3.8957,3.9338,3.9353,3.9441,3.9862,3.9855,3.9798,3.9831,4.004,4.0411,4.078,4.0984,4.1205,4.1666,4.2118,4.2017,4.125,4.1083,4.0907,4.0696,4.0341,4.0113,4.0113,4.0113,4.0299,4.0603,4.0679,4.0696,4.0696,4.0679,4.051,4.0231,4.0113,4.0113,4.0113,4.0113,4.0113,4.0113,4.0113,4.0113,4.0113,4.0113,4.0113,4.0113,4.0113,4.0163,4.7309,4.7309,4.7309,4.7309,4.7309,4.7309,4.7309,4.7309,4.7294,4.6711,4.5738,4.5065,4.4601,4.4272,4.3738,4.3439,4.3319,4.3305,4.329,4.3245,4.2821,4.2545,4.2366,4.1833,4.1265,4.0666,4.0472,4.0127,3.9679,3.9463,3.9388,3.9328,3.8886,3.8616,3.8601,3.7958,3.7644,3.7588,3.699,3.6562,3.6425,3.6785,3.6999,3.7001,3.6434,3.6435,3.7032,3.6352,3.6038,3.6312,3.6548,3.663,3.6576,3.6914,3.7195,3.7343,3.736,3.7554,3.8007,3.8532,3.8925,3.9106,3.9106,3.9373,3.9996,3.9635,3.9446,3.9725,3.9785,3.9973,4.0198,3.9899,3.9731,4.0082,3.9831,3.9661,3.9566,3.9692,3.9897,4.0403,4.0563,4.0658,4.0704,4.1195,4.1307,4.0651,4.0074,4.018,4.0908,4.0718,4.0441,4.0493,4.0333,4.0282,4.0865,4.0899,4.0865,4.095,4.0899,4.0595,4.0231,4.0113,4.0113,4.0113,4.0113,4.0113,4.0113,4.0113,4.0113,4.0113,4.0113,4.0113,4.0113,4.0113,4.0188,4.7309,4.7309,4.7309,4.7309,4.7309,4.7309,4.7309,4.7309,4.7309,4.7264,4.698,4.6426,4.5454,4.4407,4.4242,4.3843,4.3349,4.3305,4.3305,4.3305,4.3245,4.294,4.247,4.2336,4.1976,4.1317,4.0756,4.0457,4.0277,3.9723,3.9403,3.9388,3.9349,3.9305,3.923,3.8631,3.8302,3.8287,3.7668,3.7057,3.6487,3.5967,3.5943,3.6461,3.5899,3.6091,3.7111,3.603,3.5875,3.6793,3.6023,3.6215,3.7666,3.7492,3.7491,3.8131,3.8151,3.7992,3.7568,3.7544,3.7907,3.8421,3.8561,3.8817,3.9405,3.939,3.9877,4.0808,4.1153,4.0803,4.0482,4.0261,3.9994,3.9676,3.9928,4.0308,4.0274,4.0876,4.1114,4.0499,4.0339,4.0357,3.988,4.0301,4.0814,4.0897,4.0179,4.0104,4.1217,4.1327,4.1425,4.1656,4.1035,4.0282,4.0324,4.0214,4.0341,4.0333,4.0248,4.0197,4.013,4.0113,4.0113,4.0113,4.0113,4.0113,4.0113,4.0113,4.0113,4.0113,4.0113,4.0113,4.0113,4.0113,4.0188,4.7309,4.7309,4.7309,4.7309,4.7309,4.7309,4.7309,4.7309,4.7309,4.7309,4.7279,4.7025,4.6381,4.5454,4.4691,4.4152,4.3858,4.3469,4.3305,4.3305,4.3305,4.3155,4.2955,4.294,4.2596,4.2021,4.1683,4.1354,4.092,4.0322,3.9813,3.9418,3.9388,3.9388,3.9358,3.914,3.899,3.899,3.8332,3.7853,3.7539,3.6611,3.6386,3.6809,3.6041,3.6057,3.712,3.6796,3.6582,3.6708,3.6889,3.7215,3.7705,3.7463,3.762,3.8206,3.7966,3.7855,3.797,3.7987,3.8271,3.8888,3.892,3.9219,3.9881,3.9945,4.0388,4.1146,4.0659,4.0169,4.0306,4.0072,3.9828,3.9922,3.9893,3.9807,3.9837,4.0086,4.001,3.9385,3.9247,3.8916,3.8269,3.8884,3.9955,4.0807,4.0812,4.1233,4.2295,4.2177,4.2219,4.2628,4.2049,4.1271,4.0865,4.0747,4.0578,4.0248,4.0113,4.0113,4.0146,4.0113,4.0113,4.013,4.0113,4.0113,4.0113,4.0113,4.0113,4.0113,4.0113,4.0113,4.0113,4.0113,4.0163,4.7309,4.7309,4.7309,4.7309,4.7309,4.7309,4.7309,4.7309,4.7309,4.7309,4.7309,4.7309,4.704,4.6471,4.5379,4.4676,4.4272,4.3783,4.3469,4.3319,4.3305,4.3305,4.3305,4.3305,4.309,4.2656,4.247,4.2036,4.1384,4.0711,4.0142,3.9723,3.9478,3.9388,3.9388,3.9388,3.9388,3.9328,3.8901,3.8676,3.8527,3.7584,3.7131,3.7303,3.6351,3.631,3.7323,3.706,3.6936,3.6951,3.7501,3.7764,3.7663,3.7501,3.7685,3.8197,3.7768,3.7701,3.8357,3.8263,3.8401,3.8976,3.9037,3.9365,3.994,4.0111,4.0362,4.0704,3.994,3.9677,4.0218,3.9993,3.9902,4.017,3.9681,3.9388,3.9409,3.9388,3.9191,3.8527,3.8552,3.8092,3.7419,3.7962,3.9006,4.0381,4.1029,4.1832,4.2588,4.2394,4.2318,4.2996,4.264,4.2154,4.1606,4.1491,4.1153,4.0747,4.0561,4.0773,4.0502,4.0434,4.0434,4.0595,4.0333,4.0113,4.0113,4.0113,4.0113,4.0113,4.0113,4.0113,4.0113,4.0113,4.0138,4.7309,4.7309,4.7309,4.7309,4.7309,4.7309,4.7309,4.7309,4.7309,4.7309,4.7309,4.7309,4.7294,4.7189,4.6456,4.5514,4.4466,4.4317,4.3902,4.3394,4.3349,4.3319,4.3305,4.3305,4.3275,4.3125,4.2701,4.2141,4.1429,4.0786,4.0397,4.0322,3.9768,3.9403,3.9388,3.9388,3.9388,3.9373,3.9298,3.9334,3.926,3.8631,3.8008,3.7488,3.681,3.6766,3.7226,3.6258,3.6383,3.8141,3.7225,3.7104,3.8042,3.7711,3.7763,3.8273,3.7791,3.7709,3.8302,3.7919,3.785,3.8387,3.8626,3.8757,3.9455,3.9546,3.9591,3.9538,3.951,3.9698,4.027,4.024,4.0024,3.9595,3.946,3.9388,3.9388,3.9388,3.911,3.8556,3.8332,3.8265,3.8231,3.7785,3.858,3.9574,3.9656,4.0035,4.147,4.1709,4.1981,4.2405,4.2554,4.2408,4.2248,4.1923,4.1685,4.123,4.109,4.1777,4.1448,4.117,4.117,4.1018,4.0595,4.0316,4.018,4.0113,4.0113,4.0113,4.0113,4.0113,4.0113,4.0113,4.0138,4.7309,4.7309,4.7309,4.7309,4.7309,4.7309,4.7309,4.7309,4.7309,4.7309,4.7309,4.7309,4.7309,4.7309,4.707,4.6456,4.5562,4.5155,4.4571,4.4018,4.3932,4.3733,4.3319,4.3305,4.3305,4.3245,4.309,4.2656,4.2096,4.1796,4.1205,4.0487,4.0172,3.9858,3.9463,3.9388,3.9388,3.9388,3.9388,3.9388,3.9373,3.9185,3.8916,3.8626,3.7629,3.7177,3.7367,3.7355,3.7512,3.7724,3.766,3.7899,3.8263,3.8169,3.7928,3.78,3.7541,3.7721,3.8303,3.8221,3.8332,3.8945,3.9035,3.911,3.9313,3.9388,3.9388,3.9388,3.9388,3.9553,3.9696,3.9788,3.9717,3.946,3.9388,3.9388,3.9388,3.9373,3.9155,3.8512,3.8048,3.7971,3.8609,3.8915,3.9567,4.0595,4.1055,4.1405,4.1837,4.2141,4.2125,4.2395,4.2504,4.2467,4.2441,4.1966,4.1522,4.1111,4.1031,4.1405,4.136,4.1765,4.1871,4.1813,4.1271,4.0865,4.0798,4.0536,4.0468,4.0333,4.0316,4.0434,4.0113,4.0316,4.029,4.7309,4.7309,4.7309,4.7309,4.7309,4.7309,4.7309,4.7309,4.7309,4.7309,4.7309,4.7309,4.7309,4.7309,4.7309,4.7085,4.6591,4.5918,4.5259,4.4646,4.4421,4.4092,4.3633,4.3394,4.3305,4.3305,4.3305,4.309,4.2686,4.25,4.1916,4.11,4.0651,4.0187,3.9732,3.9529,3.9388,3.9388,3.9388,3.9388,3.9388,3.9388,3.9388,3.9254,3.8527,3.7943,3.7749,3.7952,3.7983,3.7831,3.8165,3.8398,3.8381,3.8381,3.8318,3.8096,3.8082,3.8332,3.8898,3.8847,3.8931,3.9364,3.9388,3.9388,3.9388,3.9388,3.9388,3.9388,3.9388,3.9388,3.9388,3.9424,3.9388,3.9388,3.9388,3.9388,3.9388,3.9388,3.9215,3.8841,3.8452,3.8469,3.8953,3.9524,4.0109,4.0895,4.1452,4.1772,4.1836,4.1868,4.1852,4.1868,4.1771,4.1739,4.1661,4.1279,4.1638,4.139,4.1583,4.1704,4.1735,4.2227,4.25,4.2453,4.2202,4.1762,4.1373,4.1077,4.0908,4.0747,4.0984,4.1238,4.0916,4.0629,4.0697,4.7309,4.7309,4.7309,4.7309,4.7309,4.7309,4.7309,4.7309,4.7309,4.7309,4.7309,4.7309,4.7309,4.7309,4.7309,4.7279,4.7115,4.6591,4.5948,4.5289,4.4736,4.4407,4.4197,4.3633,4.3349,4.3305,4.3305,4.329,4.3185,4.2731,4.2396,4.2111,4.1085,4.0531,4.0367,3.9798,3.9433,3.9403,3.9388,3.9388,3.9388,3.9388,3.9388,3.9388,3.9269,3.899,3.8407,3.7873,3.7892,3.8335,3.8453,3.8427,3.8476,3.8493,3.8691,3.9196,3.9315,3.9682,4.0154,3.9677,3.9284,3.9388,3.9388,3.9388,3.9388,3.9388,3.9388,3.9388,3.9388,3.9388,3.9388,3.9388,3.9388,3.9388,3.9388,3.9388,3.9388,3.9388,3.9388,3.9313,3.9179,3.9364,3.9436,3.9581,3.9904,4.0209,4.0428,4.0646,4.0802,4.0851,4.0612,4.0612,4.0836,4.099,4.0783,4.06,4.1342,4.1957,4.2397,4.2643,4.2409,4.2653,4.2897,4.2909,4.274,4.231,4.1948,4.1694,4.1796,4.1762,4.1982,4.1948,4.1677,4.1407,4.1288,4.7309,4.7309,4.7309,4.7309,4.7309,4.7309,4.7309,4.7309,4.7309,4.7309,4.7309,4.7309,4.7309,4.7309,4.7309,4.7309,4.7294,4.707,4.6636,4.6037,4.5741,4.517,4.4421,4.4122,4.3738,4.3364,4.3305,4.3305,4.326,4.312,4.2836,4.2366,4.1991,4.1265,4.0487,4.0187,3.9903,3.9433,3.9388,3.9388,3.9388,3.9388,3.9388,3.9388,3.9388,3.9305,3.9074,3.8901,3.8902,3.9068,3.9099,3.9099,3.9073,3.9082,3.9217,3.941,3.9418,3.946,3.9661,3.9553,3.9388,3.9388,3.9388,3.9388,3.9388,3.9388,3.9388,3.9388,3.9388,3.9388,3.9388,3.9388,3.9388,3.9388,3.9388,3.9388,3.9388,3.9388,3.9388,3.9388,3.9388,3.946,3.9553,3.9696,3.9839,4.0101,4.0226,4.0331,4.0455,4.0489,4.0489,4.0489,4.0489,4.0489,4.0489,4.0524,4.0955,4.1534,4.2091,4.2829,4.2777,4.2868,4.3153,4.3354,4.3193,4.2987,4.2608,4.2472,4.2591,4.2472,4.2388,4.2337,4.2269,4.2168,4.2033,4.7309,4.7309,4.7309,4.7309,4.7309,4.7309,4.7309,4.7309,4.7309,4.7309,4.7309,4.7309,4.7309,4.7309,4.7309,4.7309,4.7309,4.7309,4.71,4.6638,4.6354,4.5828,4.5005,4.4481,4.4097,4.3678,4.3409,4.3305,4.3305,4.329,4.312,4.2761,4.2515,4.2021,4.116,4.0846,4.0442,3.9888,3.9798,3.9627,3.9433,3.9388,3.9388,3.9388,3.9388,3.9388,3.9388,3.9388,3.9388,3.9388,3.9388,3.9388,3.9388,3.9373,3.9388,3.9388,3.9388,3.9388,3.9388,3.9424,3.9388,3.9388,3.9388,3.9388,3.9388,3.9388,3.9388,3.9388,3.9388,3.9388,3.9388,3.9388,3.9388,3.9388,3.9388,3.9388,3.9388,3.9388,3.9388,3.9388,3.9388,3.946,3.9553,3.9696,3.9803,4.0051,4.0191,4.0296,4.0385,4.0455,4.0489,4.0489,4.0489,4.0489,4.0489,4.0558,4.0665,4.1013,4.1445,4.2221,4.2684,4.3002,4.3304,4.3829,4.3878,4.3866,4.3582,4.3464,4.3464,4.3176,4.3024,4.3295,4.3386,4.2929,4.2743,4.7309,4.7309,4.7309,4.7309,4.7309,4.7309,4.7309,4.7309,4.7309,4.7309,4.7309,4.7309,4.7309,4.7309,4.7309,4.7309,4.7309,4.7309,4.7294,4.7085,4.6741,4.6307,4.5992,4.487,4.4287,4.4167,4.3589,4.3319,4.3305,4.3305,4.3305,4.317,4.2746,4.2425,4.2156,4.1722,4.1115,4.0546,4.0457,4.0172,3.9657,3.9597,3.9597,3.9649,3.9553,3.9604,3.9723,3.9612,3.9478,3.9403,3.9388,3.9388,3.9388,3.9388,3.9388,3.9388,3.9388,3.9388,3.9388,3.9388,3.9388,3.9388,3.9388,3.9388,3.9388,3.9388,3.9448,3.9523,3.9538,3.9538,3.9634,3.9694,3.9694,3.9574,3.9544,3.9418,3.9388,3.9433,3.9589,3.9538,3.9463,3.9574,3.9709,3.9875,3.9887,3.9939,4.0168,4.0324,4.0331,4.0401,4.0455,4.0505,4.0505,4.0489,4.0489,4.0524,4.0612,4.0699,4.099,4.1509,4.2347,4.2769,4.3122,4.3718,4.4446,4.4485,4.4445,4.4192,4.4141,4.4056,4.4158,4.453,4.431,4.3724,4.3487,4.7309,4.7309,4.7309,4.7309,4.7309,4.7309,4.7309,4.7309,4.7309,4.7309,4.7309,4.7309,4.7309,4.7309,4.7309,4.7309,4.7309,4.7309,4.7309,4.7279,4.716,4.6741,4.6142,4.4975,4.4347,4.4257,4.3678,4.3305,4.3305,4.3305,4.3305,4.3305,4.311,4.2806,4.2425,4.2231,4.1796,4.122,4.1115,4.1055,4.0876,4.0801,4.0861,4.0868,4.0397,4.0397,4.0726,4.0397,3.9888,3.9433,3.9388,3.9388,3.9388,3.9388,3.9388,3.9388,3.9388,3.9388,3.9388,3.9418,3.9403,3.9388,3.9508,3.9388,3.9388,3.9403,3.9664,3.9978,4.0157,4.0337,4.0711,4.0816,4.0816,4.0741,4.0068,3.9508,3.9553,3.9858,4.0142,4.0187,4.0546,4.0711,4.0778,4.0785,4.0724,4.054,4.055,4.0603,4.0568,4.0491,4.0668,4.0562,4.0536,4.0505,4.0489,4.0489,4.0524,4.0509,4.0646,4.0783,4.1558,4.2189,4.252,4.2953,4.4162,4.4547,4.4564,4.4445,4.4581,4.4598,4.4598,4.4598,4.4598,4.4276,4.4231,4.7309,4.7309,4.7309,4.7309,4.7309,4.7309,4.7309,4.7309,4.7309,4.7309,4.7309,4.7309,4.7309,4.7309,4.7309,4.7309,4.7309,4.7309,4.7309,4.7309,4.7294,4.7085,4.6546,4.5603,4.502,4.4646,4.4047,4.3589,4.3349,4.3305,4.3305,4.3305,4.3305,4.3135,4.2836,4.2761,4.2485,4.1961,4.1826,4.1722,4.1452,4.1422,4.1407,4.1362,4.098,4.1025,4.1265,4.0995,4.0397,3.9664,3.9388,3.9388,3.9388,3.9388,3.9388,3.9388,3.9388,3.9388,3.9448,3.9612,3.9843,3.9903,4.0038,4.0232,4.0277,4.0247,4.0472,4.0741,4.0816,4.101,4.1302,4.1422,4.1422,4.125,4.0696,4.0247,4.0247,4.0606,4.0786,4.092,4.113,4.1422,4.1437,4.1452,4.1295,4.107,4.1076,4.1042,4.0976,4.0954,4.0975,4.1025,4.1162,4.1264,4.1258,4.1197,4.1109,4.1032,4.094,4.0893,4.1516,4.2206,4.2816,4.341,4.415,4.4598,4.4598,4.4598,4.4598,4.4598,4.4598,4.4598,4.4598,4.4598,4.4649,4.7309,4.7309,4.7309,4.7309,4.7309,4.7309,4.7309,4.7309,4.7309,4.7309,4.7309,4.7309,4.7309,4.7309,4.7309,4.7309,4.7309,4.7309,4.7309,4.7309,4.7309,4.7249,4.7115,4.6441,4.5858,4.5364,4.4736,4.4092,4.3663,4.3469,4.3364,4.3319,4.3305,4.3305,4.3185,4.323,4.3,4.262,4.25,4.2237,4.1893,4.1833,4.1848,4.1818,4.1773,4.1504,4.1474,4.1339,4.095,3.9709,3.9597,3.9717,3.9687,3.9642,3.9657,3.9753,3.9828,3.9798,3.9753,4.0262,4.0502,4.0576,4.101,4.1384,4.1257,4.1197,4.1235,4.1512,4.1489,4.1594,4.1743,4.1683,4.1743,4.1803,4.1639,4.1594,4.1579,4.1572,4.1527,4.1504,4.1519,4.1594,4.1594,4.1579,4.1617,4.1625,4.1633,4.1543,4.1459,4.1388,4.1623,4.1918,4.2046,4.2236,4.2124,4.2032,4.1848,4.1714,4.1635,4.1691,4.2326,4.3022,4.3694,4.4253,4.4281,4.4412,4.4598,4.4598,4.457,4.4598,4.4598,4.4598,4.4598,4.4598,4.4632,4.7309,4.7309,4.7309,4.7309,4.7309,4.7309,4.7309,4.7309,4.7309,4.7309,4.7309,4.7309,4.7309,4.7309,4.7309,4.7309,4.7309,4.7309,4.7309,4.7309,4.7309,4.7309,4.7174,4.6666,4.6277,4.5918,4.5394,4.4751,4.4257,4.3992,4.3838,4.3379,4.3334,4.3305,4.3305,4.329,4.3245,4.3135,4.3105,4.3,4.2865,4.2751,4.2751,4.2751,4.2781,4.2312,4.1683,4.1916,4.1782,4.1175,4.0965,4.095,4.0831,4.0846,4.0816,4.0801,4.0861,4.0905,4.098,4.1025,4.116,4.1205,4.1384,4.1422,4.1422,4.1474,4.1722,4.2036,4.2201,4.2342,4.2686,4.2841,4.2791,4.2731,4.2776,4.2781,4.2781,4.2447,4.2231,4.2276,4.2551,4.288,4.2865,4.2776,4.2611,4.2321,4.2134,4.2061,4.2025,4.1949,4.2272,4.2685,4.2729,4.2842,4.2882,4.2679,4.2386,4.2222,4.2127,4.2132,4.2815,4.3154,4.359,4.384,4.3989,4.4167,4.4349,4.4468,4.444,4.4497,4.4598,4.4598,4.4598,4.4598,4.4767,4.7309,4.7309,4.7309,4.7309,4.7309,4.7309,4.7309,4.7309,4.7309,4.7309,4.7309,4.7309,4.7309,4.7309,4.7309,4.7309,4.7309,4.7309,4.7309,4.7309,4.7309,4.7309,4.7264,4.695,4.6651,4.6337,4.5963,4.5409,4.4885,4.4466,4.4107,4.3738,4.3469,4.3305,4.3305,4.3305,4.3305,4.3275,4.3305,4.3305,4.3305,4.3305,4.3305,4.3305,4.329,4.2886,4.2447,4.2626,4.2611,4.2387,4.2282,4.1968,4.1474,4.1437,4.1437,4.1422,4.1422,4.1422,4.1437,4.1707,4.1886,4.1871,4.2102,4.2267,4.2297,4.2297,4.2432,4.2716,4.2836,4.2985,4.326,4.329,4.3305,4.3305,4.3305,4.3305,4.323,4.3015,4.2821,4.2865,4.3075,4.3185,4.329,4.3305,4.323,4.2776,4.2761,4.2719,4.2988,4.2968,4.3084,4.3305,4.3327,4.3409,4.3497,4.331,4.2894,4.2684,4.2515,4.2494,4.2771,4.2984,4.3168,4.3488,4.38,4.3803,4.3939,4.4106,4.4327,4.4514,4.457,4.457,4.4598,4.4598,4.4886,4.7309,4.7309,4.7309,4.7309,4.7309,4.7309,4.7309,4.7309,4.7309,4.7309,4.7309,4.7309,4.7309,4.7309,4.7309,4.7309,4.7309,4.7309,4.7309,4.7309,4.7309,4.7309,4.7279,4.7189,4.6995,4.6474,4.6471,4.6082,4.5469,4.493,4.4736,4.4407,4.3768,4.3589,4.3499,4.3319,4.3305,4.3305,4.3305,4.3305,4.3305,4.3305,4.3305,4.3305,4.329,4.3275,4.311,4.3185,4.323,4.3305,4.3305,4.2731,4.2028,4.1669,4.1683,4.1728,4.1848,4.1908,4.1998,4.2237,4.2545,4.256,4.294,4.32,4.32,4.3125,4.3125,4.3185,4.3215,4.3215,4.3305,4.3305,4.3305,4.3305,4.3305,4.3305,4.3305,4.3305,4.323,4.3245,4.323,4.3275,4.3305,4.3305,4.3305,4.3305,4.329,4.3369,4.3596,4.3723,4.3706,4.3807,4.38,4.3891,4.3996,4.3972,4.3556,4.3377,4.3091,4.3106,4.3142,4.3432,4.3706,4.352,4.3654,4.3676,4.3668,4.3741,4.4015,4.4344,4.457,4.4598,4.4598,4.4598,4.4942,4.7309,4.7309,4.7309,4.7309,4.7309,4.7309,4.7309,4.7309,4.7309,4.7309,4.7309,4.7309,4.7309,4.7309,4.7309,4.7309,4.7309,4.7309,4.7309,4.7309,4.7309,4.7309,4.7309,4.7309,4.7219,4.7204,4.707,4.6711,4.6277,4.5965,4.5487,4.508,4.4481,4.4167,4.4003,4.3618,4.3394,4.3394,4.3349,4.3305,4.3305,4.3305,4.3305,4.3305,4.3305,4.3305,4.3305,4.3305,4.3305,4.3305,4.3305,4.3155,4.2901,4.2826,4.2826,4.2796,4.2766,4.2761,4.2836,4.2961,4.311,4.3155,4.323,4.329,4.3305,4.3305,4.3305,4.3305,4.3305,4.3305,4.3305,4.3364,4.3334,4.3319,4.3439,4.3439,4.3424,4.3394,4.3409,4.3439,4.3379,4.3305,4.3305,4.3344,4.3344,4.3384,4.3369,4.3503,4.3729,4.3808,4.3849,4.4013,4.422,4.4343,4.4479,4.4433,4.4249,4.4156,4.4024,4.4101,4.4185,4.4308,4.433,4.4173,4.3868,4.3719,4.3665,4.3631,4.3913,4.4449,4.4555,4.4654,4.4936,4.5207,4.4987,4.7309,4.7309,4.7309,4.7309,4.7309,4.7309,4.7309,4.7309,4.7309,4.7309,4.7309,4.7309,4.7309,4.7309,4.7309,4.7309,4.7309,4.7309,4.7309,4.7309,4.7309,4.7309,4.7309,4.7309,4.7309,4.7309,4.7279,4.7174,4.6815,4.6441,4.613,4.5768,4.5155,4.4825,4.4676,4.4197,4.3858,4.3753,4.3514,4.3334,4.3305,4.3305,4.3305,4.3305,4.3305,4.3305,4.3305,4.3305,4.3305,4.3305,4.3305,4.3305,4.3305,4.3305,4.3305,4.3305,4.3305,4.3305,4.3305,4.3305,4.3275,4.329,4.3305,4.3305,4.3305,4.3305,4.3364,4.3334,4.3305,4.3305,4.3305,4.3604,4.3768,4.3913,4.4092,4.4272,4.4242,4.4018,4.3858,4.3738,4.3514,4.3409,4.3329,4.3384,4.3423,4.3423,4.3423,4.3636,4.3847,4.391,4.3988,4.4205,4.4435,4.4458,4.4572,4.4572,4.461,4.461,4.4625,4.4718,4.4779,4.4702,4.484,4.4884,4.4492,4.4205,4.4024,4.4074,4.4322,4.4619,4.5244,4.5662,4.5754,4.5766,4.5551,4.7309,4.7309,4.7309,4.7309,4.7309,4.7309,4.7309,4.7309,4.7309,4.7309,4.7309,4.7309,4.7309,4.7309,4.7309,4.7309,4.7309,4.7309,4.7309,4.7309,4.7309,4.7309,4.7309,4.7309,4.7309,4.7309,4.7309,4.7309,4.716,4.683,4.6548,4.6337,4.5843,4.5499,4.5379,4.484,4.4601,4.4347,4.4007,4.3678,4.3514,4.3364,4.3305,4.3305,4.3305,4.3305,4.3305,4.3305,4.3305,4.3305,4.3305,4.3305,4.3305,4.3305,4.3305,4.3305,4.3305,4.3305,4.3305,4.3305,4.3305,4.3305,4.3439,4.3499,4.3604,4.3738,4.3798,4.3693,4.3753,4.3813,4.3988,4.4172,4.4451,4.4586,4.4915,4.5214,4.502,4.4796,4.4556,4.4287,4.3798,4.3569,4.3479,4.3384,4.3384,4.3557,4.3557,4.3778,4.3988,4.4065,4.4166,4.4381,4.4572,4.4572,4.4572,4.4572,4.461,4.461,4.4641,4.4702,4.481,4.4872,4.504,4.5178,4.5499,4.5237,4.4907,4.449,4.4626,4.5082,4.6106,4.6562,4.635,4.6346,4.6278,4.7309,4.7309,4.7309,4.7309,4.7309,4.7309,4.7309,4.7309,4.7309,4.7309,4.7309,4.7352,4.7381,4.7396,4.7294,4.7309,4.7309,4.7309,4.7309,4.7309,4.7309,4.7309,4.7309,4.7309,4.7309,4.7309,4.7309,4.7309,4.7264,4.7174,4.7145,4.698,4.6531,4.616,4.6127,4.5529,4.52,4.517,4.5065,4.4736,4.4212,4.3663,4.3469,4.3424,4.3439,4.3484,4.3544,4.3559,4.3514,4.3439,4.3364,4.3319,4.3305,4.3305,4.3305,4.3305,4.3305,4.3305,4.3379,4.3499,4.3544,4.3663,4.3928,4.4137,4.4287,4.4586,4.484,4.505,4.499,4.4885,4.4811,4.508,4.517,4.5244,4.5439,4.5514,4.5409,4.5454,4.5214,4.4975,4.4586,4.3977,4.3673,4.3494,4.3423,4.3557,4.3729,4.3964,4.4143,4.4205,4.4281,4.4496,4.461,4.461,4.461,4.461,4.461,4.461,4.4641,4.4702,4.4902,4.5003,4.5064,4.5309,4.5681,4.5583,4.475,4.4465,4.4768,4.5765,4.7126,4.716,4.6769,4.687,4.7378,4.7309,4.7309,4.7309,4.7309,4.7309,4.7309,4.7309,4.7309,4.7309,4.7309,4.7409,4.7849,4.8061,4.7976,4.7581,4.7309,4.7309,4.7309,4.7309,4.7309,4.7309,4.7309,4.7309,4.7309,4.7309,4.7309,4.7309,4.7309,4.7309,4.7309,4.7309,4.7264,4.704,4.6875,4.6756,4.6202,4.5948,4.5753,4.5499,4.5155,4.487,4.4601,4.4421,4.4421,4.4407,4.4377,4.4377,4.4451,4.4451,4.4377,4.4167,4.4067,4.4227,4.4182,4.4032,4.4466,4.4466,4.4302,4.4018,4.4242,4.4317,4.4436,4.4691,4.4855,4.493,4.514,4.5334,4.5274,4.5274,4.5319,4.5454,4.5663,4.5813,4.5933,4.6082,4.6247,4.6202,4.5948,4.5828,4.5574,4.5319,4.4781,4.4227,4.3918,4.3848,4.3907,4.4059,4.4178,4.4296,4.4396,4.4458,4.4534,4.461,4.461,4.461,4.461,4.461,4.461,4.461,4.4733,4.5018,4.5172,4.5126,4.508,4.5223,4.4905,4.439,4.5568,4.6906,4.7638,4.8298,4.8346,4.8443,4.9137,4.9475,4.7309,4.7309,4.7309,4.7309,4.7309,4.7309,4.7309,4.7309,4.7309,4.7424,4.7822,4.849,4.8887,4.8682,4.8088,4.7694,4.7666,4.7424,4.7309,4.7309,4.7309,4.7309,4.7309,4.7309,4.7309,4.7309,4.7309,4.7309,4.7309,4.7309,4.7309,4.7309,4.7249,4.7249,4.716,4.6845,4.6561,4.6501,4.5933,4.5633,4.5514,4.5319,4.5229,4.5229,4.5274,4.5289,4.5289,4.5229,4.5229,4.511,4.4825,4.4766,4.499,4.4781,4.4736,4.5095,4.5259,4.5304,4.5035,4.5065,4.5274,4.5349,4.5559,4.5648,4.5858,4.5798,4.5813,4.5963,4.5948,4.5903,4.5903,4.6337,4.6471,4.6696,4.689,4.7145,4.7234,4.6756,4.6471,4.6352,4.6082,4.5708,4.5151,4.4569,4.4334,4.4342,4.4379,4.4484,4.4641,4.4788,4.4718,4.4772,4.4687,4.4687,4.4671,4.4656,4.4641,4.4718,4.4718,4.4702,4.4979,4.5018,4.4972,4.4926,4.4957,4.5509,4.5706,4.7513,4.9066,4.8461,4.8299,4.9819,5.0524,5.1065,5.1067,4.7309,4.7309,4.7309,4.7309,4.7309,4.7309,4.7309,4.7309,4.7309,4.7779,4.8558,4.9262,4.9607,4.9447,4.8831,4.8366,4.8407,4.7666,4.7396,4.7309,4.7309,4.7309,4.7309,4.7309,4.7309,4.7309,4.7309,4.7309,4.7309,4.7309,4.7309,4.7309,4.7309,4.7309,4.7279,4.716,4.7085,4.698,4.6531,4.6277,4.6097,4.5813,4.5484,4.5439,4.5379,4.5304,4.5319,4.5469,4.5544,4.5559,4.5349,4.5379,4.5559,4.5364,4.5379,4.5663,4.6022,4.6112,4.6052,4.5723,4.5394,4.5529,4.5888,4.6426,4.6741,4.7025,4.7115,4.6935,4.6785,4.6905,4.6995,4.7189,4.707,4.71,4.7174,4.7219,4.7309,4.7264,4.7025,4.7055,4.68,4.6381,4.6172,4.5612,4.5086,4.5067,4.5232,4.534,4.5393,4.5441,4.5187,4.5049,4.4872,4.4795,4.4741,4.4833,4.5126,4.5226,4.521,4.4979,4.4841,4.4872,4.5033,4.4987,4.5149,4.6096,4.6818,4.7449,4.7832,4.7745,4.8331,5.0086,5.0862,5.1014,5.1117,4.7309,4.7309,4.7309,4.7309,4.7309,4.7309,4.7309,4.7309,4.7309,4.8088,4.9383,4.9686,5.0096,5.0112,4.9157,4.8599,4.8449,4.7694,4.7381,4.7309,4.7309,4.7309,4.7309,4.7352,4.7309,4.7352,4.7309,4.7309,4.7309,4.7309,4.7309,4.7309,4.7309,4.7396,4.7424,4.7337,4.7309,4.7264,4.7085,4.6935,4.6875,4.6756,4.6531,4.6546,4.6531,4.6531,4.6561,4.6546,4.6546,4.6411,4.6097,4.6157,4.6277,4.6082,4.6112,4.6352,4.6726,4.683,4.6875,4.6621,4.6531,4.6561,4.6815,4.7025,4.7279,4.7309,4.7309,4.7279,4.7309,4.7309,4.7294,4.7279,4.7264,4.7294,4.7309,4.7309,4.7309,4.7309,4.7294,4.7189,4.7145,4.6965,4.683,4.6696,4.6202,4.5781,4.6032,4.6167,4.6208,4.6157,4.5895,4.568,4.5495,4.5526,4.5526,4.5649,4.5772,4.5711,4.5664,4.5519,4.5303,4.5272,4.5372,4.528,4.5133,4.5587,4.6053,4.643,4.7001,4.7758,4.9044,5.0584,5.0997,5.0999,5.1116,4.7309,4.7309,4.7309,4.7309,4.7309,4.7309,4.7482,4.7666,4.7694,4.8641,5.0174,5.0445,5.0859,5.0897,4.9757,4.9035,4.8723,4.7934,4.7424,4.7309,4.7309,4.7467,4.751,4.751,4.7467,4.7495,4.7352,4.7309,4.7309,4.7352,4.7396,4.7424,4.7366,4.7467,4.7424,4.7396,4.7309,4.7309,4.7309,4.7309,4.7294,4.7249,4.7234,4.7219,4.7174,4.716,4.7145,4.7115,4.716,4.704,4.6905,4.689,4.695,4.6995,4.6935,4.713,4.7309,4.7309,4.7309,4.7309,4.7294,4.716,4.7189,4.7264,4.7309,4.7309,4.7309,4.7309,4.7309,4.7309,4.7309,4.7309,4.7309,4.7309,4.7309,4.7309,4.7309,4.7309,4.7309,4.7279,4.7249,4.7204,4.716,4.7083,4.7026,4.6766,4.7045,4.7104,4.6908,4.6819,4.668,4.648,4.6311,4.6419,4.6542,4.6388,4.6249,4.6203,4.6157,4.6142,4.6003,4.5942,4.5849,4.5818,4.558,4.5187,4.5512,4.6251,4.73,4.8418,4.9576,5.0625,5.1083,5.11,5.1166,4.7309,4.7309,4.7309,4.7309,4.7309,4.7309,4.7779,4.8449,4.8641,4.9519,5.0951,5.1745,5.2125,5.1855,5.0345,4.9623,4.9222,4.8046,4.7309,4.7309,4.7309,4.7794,4.7934,4.7849,4.7666,4.8157,4.7779,4.7309,4.7309,4.7467,4.7553,4.7525,4.7467,4.7467,4.7294,4.7309,4.7309,4.7309,4.7309,4.7309,4.7309,4.7309,4.7309,4.7309,4.7309,4.7309,4.7309,4.7309,4.7309,4.7249,4.7219,4.7204,4.7219,4.7234,4.7219,4.7279,4.7309,4.7309,4.7309,4.7309,4.7309,4.7309,4.7309,4.7309,4.7309,4.7309,4.7309,4.7309,4.7309,4.7309,4.7309,4.7309,4.7309,4.7309,4.7309,4.7309,4.7309,4.7309,4.7309,4.7352,4.7294,4.7294,4.7337,4.7351,4.7593,4.7728,4.8099,4.8018,4.7671,4.7527,4.7419,4.7342,4.7204,4.7188,4.7204,4.6896,4.6726,4.668,4.6742,4.6834,4.6757,4.6619,4.6511,4.6388,4.6088,4.5735,4.589,4.6218,4.7268,4.8319,4.9274,5.0185,5.0777,5.1014,5.076,4.7309,4.7309,4.7309,4.7309,4.7381,4.7934,4.8324,4.8764,4.9718,5.0592,5.1194,5.2033,5.2409,5.1855,5.0729,4.9765,4.9463,4.813,4.7309,4.7309,4.7309,4.7864,4.8088,4.7892,4.7764,4.813,4.7779,4.7309,4.7309,4.7553,4.751,4.7424,4.7542,4.7396,4.7309,4.7309,4.7309,4.7309,4.7309,4.7309,4.7309,4.7309,4.7309,4.7309,4.7309,4.7309,4.7309,4.7309,4.7309,4.7309,4.7309,4.7309,4.7309,4.7309,4.7309,4.7309,4.7309,4.7309,4.7309,4.7309,4.7309,4.7309,4.7309,4.7309,4.7309,4.7309,4.7309,4.7369,4.7474,4.7444,4.7309,4.7324,4.7324,4.7309,4.7309,4.7309,4.7309,4.7309,4.7309,4.7337,4.7381,4.7538,4.7624,4.7639,4.7794,4.7922,4.816,4.837,4.8122,4.8178,4.8189,4.8189,4.8112,4.8035,4.7896,4.7604,4.7558,4.7635,4.7711,4.7804,4.7635,4.7327,4.705,4.685,4.6581,4.6336,4.6361,4.6579,4.7245,4.8139,4.911,4.9554,4.983,4.9881,4.9627,4.7309,4.7309,4.7309,4.7495,4.7822,4.8366,4.8887,4.9614,5.0914,5.1545,5.1709,5.2194,5.2194,5.1582,5.0576,4.9527,4.9262,4.8019,4.7309,4.7309,4.7309,4.7864,4.8061,4.7864,4.7892,4.813,4.7907,4.7424,4.7467,4.7709,4.7752,4.7684,4.7707,4.777,4.7682,4.7534,4.7309,4.7309,4.7309,4.7309,4.7309,4.7309,4.7309,4.7309,4.7309,4.7309,4.7309,4.7309,4.7309,4.7309,4.7309,4.7309,4.7309,4.7309,4.7309,4.7309,4.7309,4.7309,4.7309,4.7309,4.7309,4.7309,4.7309,4.7309,4.7384,4.7549,4.7668,4.7728,4.7803,4.7923,4.7938,4.7893,4.7878,4.7893,4.7908,4.7938,4.7683,4.7713,4.7504,4.756,4.7467,4.7681,4.788,4.7964,4.8007,4.8091,4.8202,4.837,4.8521,4.8563,4.8604,4.8573,4.8558,4.8404,4.8358,4.8343,4.8373,4.8558,4.8496,4.8373,4.8296,4.7942,4.7635,4.7342,4.7142,4.6976,4.6724,4.6941,4.7574,4.821,4.8991,4.9191,4.9029,4.9171,4.9323,4.7309,4.7309,4.7309,4.7737,4.8449,4.8532,4.9479,5.1065,5.198,5.2318,5.2302,5.2178,5.1908,5.1065,5.0135,4.9343,4.8682,4.7737,4.7424,4.7309,4.7337,4.7976,4.8172,4.7864,4.8088,4.8172,4.7976,4.7553,4.7639,4.8119,4.8189,4.8195,4.8436,4.8442,4.8279,4.7996,4.7728,4.7758,4.7758,4.7788,4.7803,4.7534,4.7534,4.7489,4.7399,4.7324,4.7309,4.7309,4.7309,4.7309,4.7309,4.7309,4.7309,4.7309,4.7309,4.7309,4.7309,4.7309,4.7324,4.7339,4.7474,4.7549,4.7563,4.7429,4.7578,4.7982,4.8252,4.8446,4.8596,4.8925,4.912,4.906,4.9015,4.903,4.903,4.882,4.8401,4.8206,4.7921,4.7755,4.7572,4.7654,4.7837,4.7964,4.8355,4.8301,4.837,4.8412,4.8521,4.8563,4.8604,4.8604,4.8589,4.8589,4.8604,4.8604,4.8604,4.8604,4.8604,4.8512,4.8496,4.8481,4.8204,4.7958,4.7835,4.7725,4.7791,4.7785,4.7906,4.8566,4.95,4.9409,4.9419,4.9818,4.9932,4.7309,4.7309,4.7309,4.7467,4.7737,4.8366,4.9559,5.1102,5.2033,5.2106,5.1471,5.1471,5.138,5.1005,4.9638,4.8953,4.8366,4.7822,4.7553,4.7424,4.7424,4.8423,4.8589,4.8187,4.8407,4.8517,4.8339,4.7654,4.7802,4.8329,4.8889,4.8956,4.923,4.9251,4.9133,4.8895,4.879,4.8685,4.867,4.855,4.8446,4.8236,4.8087,4.7952,4.7638,4.7534,4.7414,4.7444,4.7429,4.7309,4.7309,4.7309,4.7309,4.7309,4.7309,4.7309,4.7309,4.7324,4.7384,4.7743,4.7997,4.8132,4.8386,4.8341,4.8371,4.8566,4.9015,4.9119,4.9299,4.9553,4.9674,4.9659,4.9644,4.9704,4.9689,4.9539,4.9164,4.8893,4.8608,4.8424,4.8181,4.8215,4.8326,4.8492,4.8837,4.8633,4.8583,4.8659,4.8609,4.8609,4.8604,4.8604,4.8604,4.8604,4.8604,4.8604,4.8604,4.8604,4.8604,4.8604,4.8573,4.8558,4.8589,4.8481,4.8235,4.8596,4.9142,4.8992,4.8624,4.9507,5.0317,5.004,4.9926,5.0405,5.0948,4.7309,4.7309,4.7309,4.7694,4.846,4.9222,5.0267,5.1215,5.1692,5.1545,5.1194,5.1508,5.1231,5.0461,4.9543,4.8953,4.8517,4.7737,4.7381,4.751,4.751,4.8076,4.8313,4.8187,4.8019,4.8297,4.8297,4.781,4.8064,4.8776,4.9399,4.971,5.0029,5.0093,5.005,5.0095,5.0169,4.9914,4.9674,4.9449,4.9209,4.8999,4.885,4.864,4.8192,4.7982,4.7758,4.7833,4.7833,4.7519,4.7444,4.7534,4.7429,4.7309,4.7549,4.7608,4.7743,4.7952,4.8192,4.8461,4.8626,4.885,4.9254,4.9359,4.9344,4.9464,4.9598,4.9703,4.9927,5.0092,5.0077,5.0108,5.0169,5.0275,5.02,5.0185,4.9915,4.9629,4.9401,4.9216,4.9148,4.9151,4.9227,4.932,4.9466,4.9578,4.9547,4.9424,4.9116,4.8773,4.8681,4.8604,4.8604,4.8604,4.8604,4.8604,4.8604,4.8604,4.8604,4.8604,4.8604,4.8604,4.8604,4.8604,4.8573,4.9044,4.9592,4.9568,4.9483,5.0424,5.1197,5.1202,5.1176,5.1396,5.1982,4.7309,4.7309,4.7366,4.8543,5.0165,5.0729,5.1124,5.1422,5.1327,5.1081,5.1118,5.1782,5.1161,5.0119,4.9527,4.9157,4.8599,4.7892,4.7581,4.7681,4.7666,4.8034,4.8202,4.7752,4.7934,4.781,4.7918,4.8429,4.8618,4.9277,5.0079,5.0439,5.1009,5.1105,5.0895,5.1075,5.1088,5.0876,5.0396,5.005,4.9734,4.9614,4.9599,4.9359,4.9179,4.9,4.87,4.8626,4.8716,4.8117,4.7878,4.8042,4.7833,4.7668,4.7967,4.8191,4.8371,4.864,4.8969,4.9254,4.9374,4.9629,4.9912,5.0152,5.0227,5.0227,5.0287,5.0346,5.0541,5.0753,5.0768,5.0722,5.0783,5.0922,5.103,5.097,5.0835,5.0532,5.0166,4.998,4.9837,4.9827,4.9827,4.9923,5.002,5.0405,5.0405,5.0159,4.9897,4.9312,4.8943,4.8789,4.862,4.862,4.8604,4.8604,4.8604,4.8604,4.8604,4.8604,4.8604,4.8604,4.8604,4.8604,4.8604,4.9269,4.971,4.9898,5.0412,5.1365,5.2011,5.2366,5.2495,5.2539,5.2893,4.7309,4.7381,4.8099,4.9536,5.108,5.0757,5.1241,5.22,5.1586,5.0881,5.029,5.0368,5.039,5.0064,4.9407,4.9091,4.8887,4.8187,4.7992,4.7964,4.7964,4.8202,4.8687,4.816,4.8187,4.8648,4.8982,4.9264,4.9852,5.0334,5.079,5.132,5.1814,5.1774,5.1546,5.1726,5.1557,5.1434,5.1333,5.094,5.071,5.038,5.0261,4.9929,4.9719,4.9449,4.9239,4.9194,4.9194,4.8955,4.8985,4.8925,4.882,4.882,4.8895,4.903,4.9253,4.9463,4.9674,5.0005,5.0246,5.035,5.0634,5.0857,5.0928,5.0928,5.0928,5.0973,5.1065,5.1248,5.1401,5.1323,5.1369,5.1556,5.1787,5.1743,5.1698,5.1318,5.0935,5.0749,5.0575,5.0557,5.0529,5.0585,5.0654,5.0682,5.0651,5.0559,5.0574,5.0189,4.9543,4.9251,4.8758,4.8666,4.862,4.8604,4.8604,4.8604,4.8604,4.8604,4.8604,4.8604,4.8604,4.8604,4.8713,4.955,5.0245,5.0697,5.132,5.2238,5.2694,5.2935,5.3409,5.3602,5.3906,4.748,4.824,4.911,5.0381,5.1451,5.1096,5.1627,5.2537,5.1842,5.1091,5.0643,5.0544,5.0429,5.0165,4.9383,4.9091,4.9066,4.8355,4.816,4.8175,4.826,4.8453,4.8537,4.8484,4.8313,4.869,4.9232,4.9748,5.0931,5.1205,5.1482,5.2023,5.232,5.2215,5.2033,5.1834,5.1726,5.1618,5.1956,5.1864,5.1556,5.1287,5.1167,5.0833,5.0576,5.0261,5.0186,5.0216,5.0095,4.9824,4.9612,4.9612,4.9552,4.9537,4.9733,5.0004,5.0185,5.0276,5.0502,5.0759,5.103,5.1104,5.1024,5.1109,5.1264,5.1249,5.1109,5.1139,5.1139,5.1261,5.1354,5.1323,5.1571,5.1803,5.2017,5.2078,5.2154,5.2091,5.1875,5.1828,5.1688,5.1732,5.1703,5.1703,5.1775,5.1775,5.1621,5.1267,5.1236,5.1097,5.0436,4.9866,4.9451,4.8866,4.862,4.8604,4.8604,4.8604,4.8743,4.865,4.8666,4.8635,4.8604,4.8877,4.9349,5.0128,5.0767,5.1294,5.2043,5.2886,5.3229,5.3518,5.394,5.4194,5.411,4.7727,4.9392,5.0142,5.1096,5.1974,5.1826,5.2238,5.2921,5.2095,5.172,5.174,5.1516,5.1091,5.0352,4.9781,4.9479,4.9107,4.8521,4.8328,4.8328,4.8328,4.8495,4.8556,4.8508,4.8799,4.909,4.9491,5.0585,5.1805,5.1744,5.1882,5.2499,5.2473,5.2215,5.2063,5.2033,5.1972,5.191,5.2048,5.2185,5.2109,5.2033,5.1911,5.1834,5.1788,5.147,5.144,5.1364,5.1167,5.0879,5.0409,5.0439,5.0455,5.047,5.0682,5.0955,5.1106,5.1304,5.15,5.1515,5.1589,5.1572,5.1354,5.1308,5.1448,5.1401,5.1261,5.1229,5.1229,5.1276,5.1323,5.1416,5.1664,5.2033,5.2246,5.2367,5.2548,5.2622,5.2592,5.2561,5.2561,5.2606,5.2606,5.2637,5.2667,5.2698,5.259,5.2298,5.2006,5.179,5.1374,5.0867,5.042,4.9774,4.9127,4.8866,4.8958,4.9158,4.9297,4.8974,4.8789,4.8943,4.9171,4.955,5.0104,5.0586,5.1327,5.1951,5.2747,5.3348,5.345,5.3551,5.3602,5.3788,5.367,4.8298,5.0429,5.0583,5.161,5.3041,5.3076,5.3144,5.3161,5.2956,5.287,5.2679,5.2095,5.1443,5.0643,5.0615,5.0167,4.9325,4.8728,4.8521,4.8521,4.848,4.8521,4.8752,4.9186,5.0042,5.0368,5.0598,5.1254,5.2113,5.1975,5.2036,5.2622,5.2669,5.2457,5.2261,5.2231,5.2185,5.217,5.2231,5.2367,5.2473,5.2337,5.2155,5.2017,5.1941,5.1865,5.188,5.1926,5.1835,5.1698,5.1546,5.1531,5.1485,5.144,5.1592,5.1682,5.1865,5.1926,5.2033,5.1956,5.1926,5.1849,5.1556,5.1261,5.1308,5.1308,5.1214,5.1214,5.1261,5.1354,5.1401,5.1401,5.1602,5.2109,5.2412,5.2563,5.2653,5.2698,5.2683,5.2683,5.2683,5.2667,5.2683,5.2683,5.2683,5.2713,5.2713,5.2467,5.2436,5.2344,5.2206,5.179,5.1313,5.0959,5.0436,4.9666,4.9605,4.9805,4.9882,4.962,4.9466,4.9466,4.9802,5.0477,5.0522,5.0743,5.1503,5.2705,5.2834,5.3314,5.3433,5.3518,5.3518,5.3518,5.3518]}]]